[[{"header":{"parameterUnit":"m.s-1","parameterCategory":1,"la1":30.6,"la2":28.766,"lo1":-90.7593,"lo2":-88.6598,"dy":0.0162,"dx":0.0183,"nx":116,"ny":114,"refTime":"2024-02-25T18:00:00:Z","depth":0,"parameterNumber":2,"parameterNumberName":"U-component_of_WINDS"},"data":[0.0,0.0,0.0,0.0,0.0,0.0,0.0,0.0,0.0,0.0,0.0,0.0,0.0,0.0,0.0,0.0,0.0,0.0,0.0,0.0,0.0,0.0,0.0,0.0,0.0,0.0,0.0,0.0,0.0,0.0,0.0,0.0,0.0,0.0,0.0,0.0,0.0,0.0,0.0,0.0,0.0,0.0,0.0,0.0,0.0,0.0,0.0,0.0,0.0,0.0,0.0,0.0,0.0,0.0,0.0,0.0,0.0,0.0,0.0,0.0,0.0,0.0,0.0,0.0,0.0,0.0,0.0,0.0,0.0,0.0,0.0,0.0,0.0,0.0,0.0,0.0,0.0,0.0,0.0,0.0,0.0,0.0,0.0,0.0,0.0,0.0,0.0,0.0,0.0,0.0,0.0,0.0,0.0,0.0,0.0,0.0,0.0,0.0,0.0,0.0,0.0,0.0,0.0,0.0,0.0,0.0,0.0,0.0,0.0,0.0,0.0,0.0,0.0,0.0,0.0,0.0,0.0,0.0,0.0,0.0,0.0,0.0,0.0,0.0,0.0,0.0,0.0,0.0,0.0,0.0,0.0,0.0,0.0,0.0,0.0,0.0,0.0,0.0,0.0,0.0,0.0,0.0,0.0,0.0,0.0,0.0,0.0,0.0,0.0,0.0,0.0,0.0,0.0,0.0,0.0,0.0,0.0,0.0,0.0,0.0,0.0,0.0,0.0,0.0,0.0,0.0,0.0,0.0,0.0,0.0,0.0,0.0,0.0,0.0,0.0,0.0,0.0,0.0,0.0,0.0,0.0,0.0,0.0,0.0,0.0,0.0,0.0,0.0,0.0,0.0,0.0,0.0,0.0,0.0,0.0,0.0,0.0,0.0,0.0,0.0,0.0,0.0,0.0,0.0,0.0,0.0,0.0,0.0,0.0,0.0,0.0,0.0,0.0,0.0,0.0,0.0,0.0,0.0,0.0,0.0,0.0,0.0,0.0,0.0,0.0,0.0,0.0,0.0,0.0,0.0,0.0,0.0,0.0,0.0,0.0,0.0,0.0,0.0,0.0,0.0,0.0,0.0,0.0,0.0,0.0,0.0,0.0,0.0,0.0,0.0,0.0,0.0,0.0,0.0,0.0,0.0,0.0,0.0,0.0,0.0,0.0,0.0,0.0,0.0,0.0,0.0,0.0,0.0,0.0,0.0,0.0,0.0,0.0,0.0,0.0,0.0,0.0,0.0,0.0,0.0,0.0,0.0,0.0,0.0,0.0,0.0,0.0,0.0,0.0,0.0,0.0,0.0,0.0,0.0,0.0,0.0,0.0,0.0,0.0,0.0,0.0,0.0,0.0,0.0,0.0,0.0,0.0,0.0,0.0,0.0,0.0,0.0,0.0,0.0,0.0,0.0,0.0,0.0,0.0,0.0,0.0,0.0,0.0,0.0,0.0,0.0,0.0,0.0,0.0,0.0,0.0,0.0,0.0,0.0,0.0,0.0,0.0,0.0,0.0,0.0,0.0,0.0,0.0,0.0,0.0,0.0,0.0,0.0,0.0,0.0,0.0,0.0,0.0,0.0,0.0,0.0,0.0,0.0,0.0,0.0,0.0,0.0,0.0,0.0,0.0,0.0,0.0,0.0,0.0,0.0,0.0,0.0,0.0,0.0,0.0,0.0,0.0,0.0,0.0,0.0,0.0,0.0,0.0,0.0,0.0,0.0,0.0,0.0,0.0,0.0,0.0,0.0,0.0,0.0,0.0,0.0,0.0,0.0,0.0,0.0,0.0,0.0,0.0,0.0,0.0,0.0,0.0,0.0,0.0,0.0,0.0,0.0,0.0,0.0,0.0,0.0,0.0,0.0,0.0,0.0,0.0,0.0,0.0,0.0,0.0,0.0,0.0,0.0,0.0,0.0,0.0,0.0,0.0,0.0,0.0,0.0,0.0,0.0,0.0,0.0,0.0,0.0,0.0,0.0,0.0,0.0,0.0,0.0,0.0,0.0,0.0,0.0,0.0,0.0,0.0,0.0,0.0,0.0,0.0,0.0,0.0,0.0,0.0,0.0,0.0,0.0,0.0,0.0,0.0,0.0,0.0,0.0,0.0,0.0,0.0,0.0,0.0,0.0,0.0,0.0,0.0,0.0,0.0,0.0,0.0,0.0,0.0,0.0,0.0,0.0,0.0,0.0,0.0,0.0,0.0,0.0,0.0,0.0,0.0,0.0,0.0,0.0,0.0,0.0,0.0,0.0,0.0,0.0,0.0,0.0,0.0,0.0,0.0,0.0,0.0,0.0,0.0,0.0,0.0,0.0,0.0,0.0,0.0,0.0,0.0,0.0,0.0,0.0,0.0,0.0,0.0,0.0,0.0,0.0,0.0,0.0,0.0,0.0,0.0,0.0,0.0,0.0,0.0,0.0,0.0,0.0,0.0,0.0,0.0,0.0,0.0,0.0,0.0,0.0,0.0,0.0,0.0,0.0,0.0,0.0,0.0,0.0,0.0,0.0,0.0,0.0,0.0,0.0,0.0,0.0,0.0,0.0,0.0,0.0,0.0,0.0,0.0,0.0,0.0,0.0,0.0,0.0,0.0,0.0,0.0,0.0,0.0,0.0,0.0,0.0,0.0,0.0,0.0,0.0,0.0,0.0,0.0,0.0,0.0,0.0,0.0,0.0,0.0,0.0,0.0,0.0,0.0,0.0,0.0,0.0,0.0,0.0,0.0,0.0,0.0,0.0,0.0,0.0,0.0,0.0,0.0,0.0,0.0,0.0,0.0,0.0,0.0,0.0,0.0,0.0,0.0,0.0,0.0,0.0,0.0,0.0,0.0,0.0,0.0,0.0,0.0,0.0,0.0,0.0,0.0,0.0,0.0,0.0,0.0,0.0,0.0,0.0,0.0,0.0,0.0,0.0,0.0,0.0,0.0,0.0,0.0,0.0,0.0,0.0,0.0,0.0,0.0,0.0,0.0,0.0,0.0,0.0,0.0,0.0,0.0,0.0,0.0,0.0,0.0,0.0,0.0,0.0,0.0,0.0,0.0,0.0,0.0,0.0,0.0,0.0,0.0,0.0,0.0,0.0,0.0,0.0,0.0,0.0,0.0,0.0,0.0,0.0,0.0,0.0,0.0,0.0,0.0,0.0,0.0,0.0,0.0,0.0,0.0,0.0,0.0,0.0,0.0,0.0,0.0,0.0,0.0,0.0,0.0,0.0,0.0,0.0,0.0,0.0,0.0,0.0,0.0,0.0,0.0,0.0,0.0,0.0,0.0,0.0,0.0,0.0,0.0,0.0,0.0,0.0,0.0,0.0,0.0,0.0,0.0,0.0,0.0,0.0,0.0,0.0,0.0,0.0,0.0,0.0,0.0,0.0,0.0,0.0,0.0,0.0,0.0,0.0,0.0,0.0,0.0,0.0,0.0,0.0,0.0,0.0,0.0,0.0,0.0,0.0,0.0,0.0,0.0,0.0,0.0,0.0,0.0,0.0,0.0,0.0,0.0,0.0,0.0,0.0,0.0,0.0,0.0,0.0,0.0,0.0,0.0,0.0,0.0,0.0,0.0,0.0,0.0,0.0,0.0,0.0,0.0,0.0,0.0,0.0,0.0,0.0,0.0,0.0,0.0,0.0,0.0,0.0,0.0,0.0,0.0,0.0,0.0,0.0,0.0,0.0,0.0,0.0,0.0,0.0,0.0,0.0,0.0,0.0,0.0,0.0,0.0,0.0,0.0,0.0,0.0,0.0,0.0,0.0,0.0,0.0,0.0,0.0,0.0,0.0,0.0,0.0,0.0,0.0,0.0,0.0,0.0,0.0,0.0,0.0,0.0,0.0,0.0,0.0,0.0,0.0,0.0,0.0,0.0,0.0,0.0,0.0,0.0,0.0,0.0,0.0,0.0,0.0,0.0,0.0,0.0,0.0,0.0,0.0,0.0,0.0,0.0,0.0,0.0,0.0,0.0,0.0,0.0,0.0,0.0,0.0,0.0,0.0,0.0,0.0,0.0,0.0,0.0,0.0,0.0,0.0,0.0,0.0,0.0,0.0,0.0,0.0,0.0,0.0,0.0,0.0,0.0,0.0,0.0,0.0,0.0,0.0,0.0,0.0,0.0,0.0,0.0,0.0,0.0,0.0,0.0,0.0,0.0,0.0,0.0,0.0,0.0,0.0,0.0,0.0,0.0,0.0,0.0,0.0,0.0,0.0,0.0,0.0,0.0,0.0,0.0,0.0,0.0,0.0,0.0,0.0,0.0,0.0,0.0,0.0,0.0,0.0,0.0,0.0,0.0,0.0,0.0,0.0,0.0,0.0,0.0,0.0,0.0,0.0,0.0,0.0,0.0,0.0,0.0,0.0,0.0,0.0,0.0,0.0,0.0,0.0,0.0,0.0,0.0,0.0,0.0,0.0,0.0,0.0,0.0,0.0,0.0,0.0,0.0,0.0,0.0,0.0,0.0,0.0,0.0,0.0,0.0,0.0,0.0,0.0,0.0,0.0,0.0,0.0,0.0,0.0,0.0,0.0,0.0,0.0,0.0,0.0,0.0,0.0,0.0,0.0,0.0,0.0,0.0,0.0,0.0,0.0,0.0,0.0,0.0,0.0,0.0,0.0,0.0,0.0,0.0,0.0,0.0,0.0,0.0,0.0,0.0,0.0,0.0,0.0,0.0,0.0,0.0,0.0,0.0,0.0,0.0,0.0,0.0,0.0,0.0,0.0,0.0,0.0,0.0,0.0,0.0,0.0,0.0,0.0,0.0,0.0,0.0,0.0,0.0,0.0,0.0,0.0,0.0,0.0,0.0,0.0,0.0,0.0,0.0,0.0,0.0,0.0,0.0,0.0,0.0,0.0,0.0,0.0,0.0,0.0,0.0,0.0,0.0,0.0,0.0,0.0,0.0,0.0,0.0,0.0,0.0,0.0,0.0,0.0,0.0,0.0,0.0,0.0,0.0,0.0,0.0,0.0,0.0,0.0,0.0,0.0,0.0,0.0,0.0,0.0,0.0,0.0,0.0,0.0,0.0,0.0,0.0,0.0,0.0,0.0,0.0,0.0,0.0,0.0,0.0,0.0,0.0,0.0,0.0,0.0,0.0,0.0,0.0,0.0,0.0,0.0,0.0,0.0,0.0,0.0,0.0,0.0,0.0,0.0,0.0,0.0,0.0,0.0,0.0,0.0,0.0,0.0,0.0,0.0,0.0,0.0,0.0,0.0,0.0,0.0,0.0,0.0,0.0,0.0,0.0,0.0,0.0,0.0,0.0,0.0,0.0,0.0,0.0,0.0,0.0,0.0,0.0,0.0,0.0,0.0,0.0,0.0,0.0,0.0,0.0,0.0,0.0,0.0,0.0,0.0,0.0,0.0,0.0,0.0,0.0,0.0,0.0,0.0,0.0,0.0,0.0,0.0,0.0,0.0,0.0,0.0,0.0,0.0,0.0,0.0,0.0,0.0,0.0,0.0,0.0,0.0,0.0,0.0,0.0,0.0,0.0,0.0,0.0,0.0,0.0,0.0,0.0,0.0,0.0,0.0,0.0,0.0,0.0,0.0,0.0,0.0,0.0,0.0,0.0,0.0,0.0,0.0,0.0,0.0,0.0,0.0,0.0,0.0,0.0,0.0,0.0,0.0,0.0,0.0,0.0,0.0,0.0,0.0,0.0,0.0,0.0,0.0,0.0,0.0,0.0,0.0,0.0,0.0,0.0,0.0,0.0,0.0,0.0,0.0,0.0,0.0,0.0,0.0,0.0,0.0,0.0,0.0,0.0,0.0,0.0,0.0,0.0,0.0,0.0,0.0,0.0,0.0,0.0,0.0,0.0,0.0,0.0,0.0,0.0,0.0,0.0,0.0,0.0,0.0,0.0,0.0,0.0,0.0,0.0,0.0,0.0,0.0,0.0,0.0,0.0,0.0,0.0,0.0,0.0,0.0,0.0,0.0,0.0,0.0,0.0,0.0,0.0,0.0,0.0,0.0,0.0,0.0,0.0,0.0,0.0,0.0,0.0,0.0,0.0,0.0,0.0,0.0,0.0,0.0,0.0,0.0,0.0,0.0,0.0,0.0,0.0,0.0,0.0,0.0,0.0,0.0,0.0,0.0,0.0,0.0,0.0,0.0,2.547,2.4793,0.0,0.0,0.0,0.0,0.0,0.0,0.0,0.0,0.0,0.0,0.0,0.0,0.0,0.0,0.0,0.0,0.0,0.0,0.0,0.0,0.0,0.0,0.0,0.0,0.0,0.0,0.0,0.0,0.0,0.0,0.0,0.0,0.0,0.0,2.47,2.47,2.4871,2.5189,2.5338,2.5506,2.5738,2.5738,2.5801,2.5906,0.0,0.0,0.0,0.0,0.0,0.0,0.0,0.0,0.0,0.0,0.0,0.0,0.0,0.0,0.0,0.0,0.0,0.0,0.0,0.0,0.0,0.0,0.0,0.0,0.0,0.0,0.0,0.0,0.0,0.0,0.0,0.0,0.0,0.0,0.0,0.0,0.0,0.0,0.0,0.0,0.0,0.0,0.0,0.0,0.0,0.0,0.0,0.0,0.0,0.0,0.0,0.0,0.0,0.0,0.0,0.0,0.0,0.0,0.0,0.0,0.0,0.0,0.0,0.0,0.0,0.0,0.0,0.0,0.0,0.0,2.6346,2.5675,0.0,0.0,0.0,0.0,0.0,0.0,0.0,0.0,0.0,0.0,0.0,0.0,0.0,0.0,0.0,0.0,0.0,0.0,0.0,0.0,0.0,0.0,0.0,2.4507,2.4507,2.4507,2.4507,2.4507,2.4507,2.4507,2.4507,2.4507,2.4507,2.4508,2.4551,2.4594,2.4828,2.5274,2.5317,2.5528,2.5906,2.5906,2.5906,2.5906,2.5906,0.0,0.0,0.0,0.0,0.0,0.0,0.0,0.0,0.0,0.0,0.0,0.0,0.0,0.0,0.0,0.0,0.0,0.0,0.0,0.0,0.0,0.0,0.0,0.0,0.0,0.0,0.0,0.0,0.0,0.0,0.0,0.0,0.0,0.0,0.0,0.0,0.0,0.0,0.0,0.0,0.0,0.0,0.0,0.0,0.0,0.0,0.0,0.0,0.0,0.0,0.0,0.0,0.0,0.0,0.0,0.0,0.0,0.0,0.0,0.0,0.0,0.0,0.0,2.6949,2.7132,2.7206,2.7206,2.7243,2.7288,2.6964,2.648,2.5921,2.5282,0.0,0.0,0.0,0.0,0.0,0.0,0.0,0.0,0.0,0.0,0.0,0.0,0.0,0.0,0.0,0.0,0.0,0.0,0.0,0.0,0.0,2.4507,2.4507,2.4507,2.4507,2.4507,2.4507,2.4507,2.4507,2.4507,2.4507,2.4594,2.485,2.502,2.5253,2.5549,2.5738,2.5843,2.5906,2.5906,2.5906,2.5906,2.5906,2.5906,2.5906,0.0,0.0,0.0,0.0,0.0,0.0,0.0,0.0,0.0,0.0,0.0,0.0,0.0,0.0,0.0,0.0,0.0,0.0,0.0,0.0,0.0,0.0,0.0,0.0,0.0,0.0,0.0,0.0,0.0,0.0,0.0,0.0,0.0,0.0,0.0,0.0,0.0,0.0,0.0,0.0,0.0,2.4131,2.4546,0.0,0.0,0.0,0.0,0.0,0.0,0.0,0.0,0.0,0.0,0.0,0.0,0.0,2.6527,2.6527,2.6554,2.6591,2.6591,2.6646,2.6875,2.7206,2.7206,2.7389,2.7691,2.7072,0.0,2.6183,2.5355,0.0,0.0,0.0,0.0,0.0,0.0,0.0,0.0,0.0,0.0,0.0,0.0,0.0,0.0,0.0,0.0,0.0,0.0,0.0,0.0,0.0,2.4636,2.4722,2.4722,2.4828,2.485,2.4722,2.4722,2.4658,2.4507,2.4636,2.4786,2.4914,2.5105,2.5338,2.5612,2.5801,2.5906,2.5906,2.619,2.6278,2.63,2.6583,2.6387,2.5906,2.5906,0.0,0.0,0.0,0.0,0.0,0.0,0.0,0.0,0.0,0.0,0.0,0.0,0.0,0.0,0.0,0.0,0.0,0.0,0.0,0.0,0.0,0.0,0.0,0.0,0.0,0.0,0.0,0.0,0.0,0.0,0.0,0.0,0.0,0.0,0.0,0.0,0.0,0.0,0.0,2.4224,2.4691,2.5095,2.5131,2.5205,0.0,0.0,0.0,0.0,0.0,0.0,0.0,0.0,0.0,2.6343,2.6527,2.6591,2.6591,2.6811,2.6949,2.6949,2.7169,2.7371,2.7536,2.7536,2.7628,2.7812,2.7716,2.76,2.7351,2.5681,2.4789,2.4483,0.0,0.0,0.0,0.0,2.4642,2.4642,0.0,0.0,0.0,0.0,0.0,0.0,0.0,0.0,0.0,0.0,0.0,0.0,2.4507,2.4679,2.4807,2.4807,2.4935,2.4956,2.4807,2.4807,2.47,2.4508,2.4679,2.4828,2.4914,2.5168,2.5486,2.5849,2.5997,2.6147,2.6278,2.6606,2.678,2.6802,2.7129,2.6889,2.6256,2.6256,2.6171,2.6022,0.0,0.0,0.0,0.0,0.0,0.0,0.0,0.0,0.0,0.0,0.0,0.0,0.0,0.0,0.0,0.0,0.0,0.0,0.0,0.0,0.0,0.0,0.0,0.0,0.0,0.0,0.0,0.0,0.0,0.0,0.0,0.0,0.0,0.0,0.0,0.0,0.0,2.4966,2.5113,2.5499,2.5554,2.559,0.0,0.0,0.0,0.0,0.0,0.0,2.6573,2.6591,2.6591,2.6591,2.671,2.6738,2.6738,2.7151,2.7353,2.7353,2.7646,2.7848,2.7958,2.7958,2.8014,2.8124,2.8232,2.8183,2.7901,2.6219,2.5245,2.4817,2.4761,2.4722,2.4754,2.5008,2.5136,2.5215,0.0,0.0,0.0,0.0,0.0,0.0,0.0,0.0,0.0,0.0,0.0,2.4507,2.4507,2.4508,2.4508,2.4508,2.455,2.455,2.4508,2.4508,2.4508,2.4507,2.4508,2.4636,2.4871,2.5338,2.5892,2.654,2.654,2.6802,2.7217,2.7239,2.726,2.7282,2.7304,2.726,2.7239,2.7239,2.7217,2.7173,2.6729,0.0,0.0,0.0,0.0,0.0,0.0,0.0,0.0,0.0,0.0,0.0,0.0,0.0,0.0,0.0,0.0,0.0,0.0,0.0,0.0,0.0,0.0,0.0,0.0,0.0,0.0,0.0,0.0,0.0,0.0,0.0,0.0,0.0,0.0,0.0,0.0,0.0,0.0,2.5902,2.5984,0.0,0.0,0.0,0.0,2.6554,2.6554,2.6573,2.6591,2.6591,2.6591,2.6591,2.6986,2.7169,2.7169,2.7573,2.7757,2.7775,2.7775,2.7995,2.837,2.837,2.8572,2.892,2.8283,2.7654,2.7052,2.6944,2.6883,2.6732,2.5531,2.5087,2.5087,2.5103,2.5295,2.558,0.0,0.0,0.0,0.0,0.0,0.0,0.0,0.0,2.4507,2.4507,2.4507,2.4507,2.4507,2.4658,2.4764,2.4764,2.4892,2.4956,2.4956,2.4828,2.4764,2.4764,2.5186,2.5741,2.6411,2.6303,2.6519,2.7042,2.7042,2.7129,2.7326,2.761,2.7762,2.7784,2.8112,2.8266,2.8223,2.7566,2.7282,2.7282,2.7127,2.6972,0.0,0.0,0.0,0.0,0.0,0.0,0.0,0.0,0.0,0.0,0.0,0.0,0.0,0.0,0.0,0.0,0.0,0.0,0.0,0.0,0.0,0.0,0.0,0.0,0.0,0.0,0.0,0.0,0.0,0.0,0.0,0.0,0.0,0.0,0.0,0.0,0.0,2.6343,2.6398,0.0,2.66,2.6591,2.6591,2.6591,2.6857,2.7004,2.7004,2.7243,2.7371,2.7371,2.7518,2.7591,2.7591,2.7995,2.8197,2.8197,2.8454,2.8785,2.9188,2.9188,2.9379,2.9764,2.9519,2.9274,2.9028,2.8597,2.7514,2.6091,2.588,2.5802,2.5802,2.5802,2.5882,2.5993,0.0,0.0,0.0,0.0,0.0,0.0,0.0,0.0,2.4507,2.4507,2.4507,2.4507,2.4507,2.4658,2.4807,2.4892,2.502,2.5126,2.5189,2.502,2.4998,2.5231,2.5892,2.6561,2.7194,2.6955,2.7064,2.7544,2.7544,2.761,2.7807,2.8134,2.8264,2.8309,2.8638,2.8792,2.8771,2.8091,2.7807,2.7807,2.7717,2.7604,2.7446,0.0,0.0,0.0,0.0,0.0,0.0,0.0,0.0,0.0,0.0,0.0,0.0,0.0,0.0,0.0,0.0,0.0,0.0,0.0,0.0,0.0,0.0,0.0,0.0,0.0,0.0,0.0,0.0,0.0,0.0,0.0,0.0,0.0,0.0,2.6196,2.6306,2.6554,2.6591,2.6646,2.6802,2.682,2.6875,2.7004,2.7261,2.7408,2.7408,2.7646,2.7848,2.7995,2.8142,2.8271,2.8399,2.8792,2.9012,2.9012,2.9269,2.9525,2.9813,2.9813,2.9947,3.0204,3.0204,3.008,2.9831,2.952,2.8315,2.666,2.6567,2.6392,2.6216,2.6216,2.628,2.6375,0.0,0.0,0.0,0.0,0.0,0.0,0.0,2.3907,2.4507,2.4507,2.4507,2.4507,2.4508,2.4508,2.4615,2.4892,2.4893,2.4999,2.5211,2.5041,2.5252,2.5934,2.6646,2.7016,2.706,2.7237,2.7544,2.8023,2.8023,2.8309,2.8792,2.8792,2.8792,2.8792,2.8792,2.8792,2.8792,2.8792,2.8792,2.8791,2.8511,2.8418,2.8371,0.0,0.0,0.0,0.0,0.0,0.0,0.0,0.0,0.0,0.0,0.0,0.0,0.0,0.0,0.0,0.0,0.0,0.0,0.0,0.0,0.0,0.0,0.0,0.0,0.0,0.0,0.0,0.0,0.0,0.0,0.0,0.0,0.0,2.6591,2.6591,2.6591,2.6637,2.6637,2.6784,2.7187,2.7224,2.7389,2.7775,2.7812,2.783,2.783,2.7848,2.805,2.8443,2.8828,2.9225,2.9611,3.0002,3.0204,3.0204,3.0204,3.0204,3.0222,3.0222,3.0222,3.0241,3.0241,2.9868,2.9292,2.9616,2.9392,2.8717,2.7673,2.6871,2.628,2.628,2.6455,2.6772,0.0,0.0,0.0,0.0,0.0,0.0,0.0,2.4336,2.4507,2.4507,2.4507,2.4572,2.4764,2.4786,2.4892,2.5105,2.5105,2.5275,2.5679,2.5678,2.6105,2.7162,2.7079,2.7408,2.8307,2.798,2.8046,2.8594,2.8594,2.866,2.8792,2.8792,2.8792,2.8792,2.8792,2.8792,2.8792,2.8792,2.8792,2.8792,2.8721,2.8698,2.8675,0.0,0.0,0.0,0.0,0.0,0.0,0.0,0.0,0.0,0.0,0.0,0.0,0.0,0.0,0.0,0.0,0.0,0.0,0.0,0.0,0.0,0.0,0.0,0.0,0.0,0.0,0.0,0.0,0.0,0.0,0.0,2.6591,2.6591,2.6591,2.6591,2.6729,2.7004,2.7041,2.7206,2.7591,2.7628,2.7683,2.7775,2.8344,2.8674,2.8674,2.9214,2.958,2.9709,2.98,2.991,3.002,3.0149,3.0204,3.0204,3.0204,3.0351,3.0626,3.0626,3.0791,3.1047,3.1047,3.0952,3.0811,3.0901,3.0248,2.9145,2.8847,2.8308,2.7736,2.7736,2.744,2.7073,0.0,0.0,0.0,0.0,0.0,0.0,0.0,2.4507,2.4529,2.4636,2.4679,2.4764,2.4999,2.5041,2.5126,2.5359,2.5445,2.5637,2.6,2.6407,2.6967,2.7684,2.7733,2.8087,2.8792,2.8484,2.8507,2.8792,2.9011,2.9075,2.9097,2.9294,2.9381,2.9381,2.9381,2.9272,2.9075,2.9075,2.8989,2.8792,2.8792,2.8792,2.8769,2.8628,2.8581,2.8558,2.8396,2.8115,2.7694,2.6863,0.0,0.0,0.0,0.0,0.0,0.0,0.0,0.0,0.0,0.0,0.0,0.0,0.0,0.0,0.0,0.0,0.0,0.0,0.0,0.0,0.0,0.0,0.0,0.0,2.6857,2.6912,2.7096,2.6967,2.7004,2.7408,2.7444,2.7683,2.8252,2.8307,2.8454,2.8785,2.9232,2.9489,2.9489,2.9947,3.0277,3.0442,3.0442,3.0534,3.0699,3.0699,3.0699,3.0699,3.0699,3.0809,3.1029,3.1029,3.1189,3.141,3.141,3.141,3.141,3.141,3.0926,3.0115,0.0,0.0,0.0,0.0,2.7566,2.72,0.0,0.0,0.0,0.0,0.0,0.0,0.0,2.455,2.4636,2.4871,2.4935,2.502,2.5211,2.5253,2.538,2.5677,2.5873,2.6108,2.6389,2.7252,2.7793,2.7816,2.8458,2.8792,2.8792,2.8792,2.8836,2.888,2.9294,2.9534,2.96,3.0013,3.0185,3.0185,3.0185,2.9969,2.9578,2.9578,2.9316,2.888,2.888,2.8858,2.8792,2.8792,2.8746,2.8653,2.8653,2.8141,2.7434,2.7068,0.0,0.0,0.0,0.0,0.0,0.0,0.0,0.0,0.0,0.0,0.0,0.0,0.0,0.0,0.0,0.0,0.0,0.0,0.0,0.0,0.0,0.0,0.0,0.0,2.7261,2.7408,2.7812,2.7591,2.7536,2.7885,2.794,2.8252,2.9078,2.9152,2.9415,3.0149,3.0241,3.0259,3.0259,3.0314,0.0,0.0,0.0,3.1029,3.141,3.141,3.141,3.141,3.141,3.141,3.141,3.141,3.141,3.141,3.141,3.141,3.1377,3.1313,3.1184,3.0926,2.9757,2.856,2.7434,2.7267,2.72,2.72,0.0,0.0,0.0,0.0,0.0,0.0,0.0,2.4679,2.485,2.4892,2.5041,2.5253,2.5485,2.5506,2.5763,2.6345,2.6433,2.6802,2.7607,2.8034,2.836,2.8569,2.8725,2.8792,2.8792,2.8792,2.8989,2.9359,2.9469,2.9685,3.0078,3.0166,3.0185,3.0185,3.0185,3.0166,3.0078,3.0078,2.9794,2.9359,2.9359,2.9141,2.8792,2.8792,2.8396,2.7835,2.7835,2.7363,2.6592,2.5778,2.5289,2.4842,2.4042,2.3704,0.0,0.0,0.0,0.0,0.0,0.0,0.0,0.0,0.0,0.0,0.0,0.0,0.0,0.0,0.0,0.0,0.0,0.0,0.0,2.7665,2.7683,2.783,2.8223,2.8509,2.8693,2.8766,2.8785,2.9067,2.9892,2.9965,3.0039,3.0185,3.0497,3.0681,3.0681,3.0974,3.1208,3.13,3.13,3.1336,3.141,3.141,3.141,3.141,3.141,0.0,3.141,3.141,3.141,3.141,3.141,3.141,3.1345,3.0764,2.9887,2.8922,2.9218,2.9152,2.8757,2.7633,2.72,2.72,0.0,0.0,0.0,0.0,0.0,0.0,0.0,2.4914,2.5105,2.5232,2.5338,2.5593,2.6043,2.6086,2.6324,2.6911,2.7063,2.7431,2.8146,2.8335,2.8511,2.8769,2.8792,2.8792,2.8792,2.9033,2.9272,2.9512,2.9969,3.0319,3.0559,3.0774,3.0883,3.0883,3.0883,3.0752,3.0559,3.0559,3.0144,2.9512,2.9512,2.897,2.8188,2.8188,2.7718,2.7074,2.7297,2.6847,2.6148,2.5875,2.5544,2.5164,2.469,2.4703,2.4916,0.0,0.0,0.0,0.0,0.0,0.0,0.0,0.0,0.0,0.0,0.0,0.0,0.0,0.0,2.75,2.75,0.0,2.7867,2.8069,2.8271,2.8546,2.895,2.9372,2.9537,2.9335,2.947,2.9837,3.0442,3.0497,3.0571,3.0772,3.1006,3.1116,3.1116,3.13,3.141,3.141,3.141,3.141,3.141,3.1579,3.1689,3.1689,3.1891,3.1983,3.1983,3.1983,3.1983,3.1983,3.1983,3.1983,3.195,3.121,3.0264,2.9295,2.9295,2.8877,2.8229,2.7865,2.75,2.72,0.0,0.0,0.0,0.0,0.0,0.0,0.0,2.5147,2.5359,2.557,2.5698,2.5999,2.654,2.6693,2.6933,2.7391,2.7736,2.8077,2.8466,2.8488,2.8581,2.8769,2.8792,2.8792,2.8792,2.925,2.9532,2.9644,3.0472,3.0952,3.104,3.1407,3.1604,3.1604,3.1604,3.1385,3.104,3.104,3.0537,2.9751,2.9751,2.8919,2.7636,2.7636,2.7115,2.6419,2.6829,2.6465,2.5863,2.6282,2.6019,2.5517,2.5609,2.5847,2.6104,2.6104,2.6343,0.0,0.0,0.0,0.0,0.0,0.0,0.0,0.0,0.0,2.7316,2.7316,2.7646,2.7922,2.7922,2.7977,2.816,2.8553,2.8931,2.9262,2.9666,3.0057,3.0185,2.9868,3.0112,3.0461,3.0864,3.0932,3.1029,3.1391,3.141,3.141,3.141,3.141,3.1446,3.1506,3.1538,3.1543,3.1616,3.1946,3.2129,3.2129,3.2441,3.2588,3.2588,3.2588,3.2588,3.2588,3.2588,3.2521,3.2354,3.1598,3.0837,3.0071,2.9525,2.8599,2.7675,2.811,2.801,2.7559,0.0,0.0,0.0,0.0,0.0,0.0,0.0,0.0,2.557,2.5612,2.6107,2.6519,2.6606,2.6977,2.7413,2.7871,2.8373,2.8702,2.8746,2.8746,2.8769,2.8792,2.8792,2.8792,2.8792,2.925,2.9685,3.0122,3.0646,3.1127,3.1516,3.1582,3.1604,3.1604,3.1604,3.156,3.1516,3.1516,3.1236,3.0734,3.0734,2.9561,2.7773,2.7773,2.7008,2.6004,2.6428,2.6071,2.5518,2.5906,2.6,2.6021,2.6361,2.6508,2.6518,2.6518,2.6554,2.6591,2.6591,2.6591,2.6591,2.6591,2.6875,2.7132,0.0,0.0,2.772,2.772,2.8069,2.8333,2.8333,2.8608,2.9005,2.9409,2.9501,2.9684,3.0075,3.0479,3.0699,3.0662,3.0699,3.0882,3.1267,3.1336,3.1355,3.141,3.141,3.141,3.141,3.141,3.1543,3.1928,3.1946,3.2111,3.2459,3.2496,3.2533,3.2533,3.257,3.2588,3.2588,3.2588,3.2588,3.2588,3.2588,3.2253,3.1648,3.0837,3.0122,2.9473,2.937,2.9252,2.9083,2.845,2.8587,2.8863,0.0,0.0,0.0,0.0,0.0,0.0,0.0,0.0,0.0,2.615,2.6432,2.6824,2.7369,2.7872,2.8266,2.844,2.866,2.8792,2.8792,2.8792,2.8792,2.8792,2.8792,2.8792,2.8792,2.925,2.9729,3.0185,3.0668,3.1149,3.1604,3.1604,3.1604,3.1604,3.1604,3.1604,3.1604,3.1604,3.1345,3.0862,3.0385,2.9253,2.7779,2.7483,2.6788,2.5993,2.6162,2.6008,0.0,2.6215,2.6361,2.638,2.6563,2.6591,2.6591,2.6591,2.6591,2.6591,2.6591,2.6784,2.6967,2.6967,2.7261,2.7555,2.7555,2.7867,2.816,2.816,2.8462,2.8737,2.8737,2.9097,2.9409,0.0,2.9996,3.0382,3.0516,3.0882,3.1171,3.1171,3.1171,3.1226,3.1391,3.141,3.141,3.141,3.141,3.152,3.1726,3.1744,3.1928,3.2331,3.2349,3.2423,3.2588,3.2845,3.2955,3.2955,3.3193,3.3303,3.3303,3.3303,3.3303,3.3303,3.3303,3.2892,3.2222,3.1877,3.1028,2.9928,2.9209,2.8962,2.902,2.9381,2.901,2.822,0.0,0.0,0.0,0.0,0.0,0.0,0.0,0.0,0.0,0.0,2.6846,2.7304,2.8133,2.8572,2.8792,2.8792,2.8792,2.8792,2.8792,2.8792,2.8792,2.8792,2.8792,2.8792,2.8792,2.925,2.9687,3.0013,3.0472,3.0952,3.1407,3.1407,3.1473,3.1604,3.1604,3.1604,3.1604,3.1373,3.1054,3.0701,2.9866,2.8839,2.7756,2.7421,2.6835,2.6159,2.6159,2.6159,2.6215,2.6508,2.6591,2.6591,2.6591,2.6591,2.6591,2.6591,2.6692,2.6802,2.6912,2.7151,2.7371,2.7371,2.7665,2.7977,2.7977,2.8289,2.8553,2.8553,2.8792,2.9042,2.9152,2.9409,2.9684,2.9904,3.0437,3.0827,3.0969,3.1226,3.141,3.141,3.141,3.141,3.141,3.141,3.1465,3.1575,3.1575,3.1726,3.2148,3.2166,3.2349,3.2753,3.2771,3.2826,3.2936,3.323,3.3395,3.336,3.367,3.3817,3.3817,3.3817,3.3817,3.3817,3.3817,3.3486,3.2998,3.2771,3.1754,3.0143,2.9214,2.866,2.849,2.9414,2.8766,2.7351,0.0,0.0,0.0,0.0,0.0,0.0,0.0,0.0,0.0,0.0,0.0,0.0,0.0,2.8792,2.8792,2.8792,2.8792,2.8792,2.8792,2.8792,2.8792,2.8792,2.8792,2.8792,2.8792,2.925,2.9512,2.9534,2.9991,3.0472,3.0908,3.0908,3.1171,3.1604,3.1604,3.1604,3.1553,3.078,3.0443,3.0344,2.9466,2.8595,2.7795,2.7768,2.7295,2.6573,2.6573,2.6573,2.6573,2.6618,2.6591,2.6591,2.6591,2.6591,2.6591,2.6591,2.6894,2.7261,2.7646,2.7775,2.7775,2.7775,2.8087,2.837,2.837,2.8682,2.8975,2.8975,2.9005,2.9133,2.9519,2.9592,2.9868,3.0626,3.0772,3.0951,3.1336,3.141,3.141,3.141,3.141,3.141,3.141,3.141,3.1543,3.1946,3.1983,3.2166,3.2551,3.257,3.2771,3.3159,3.3177,3.336,3.378,3.378,3.3798,3.3798,3.3798,3.3817,3.3817,3.3817,3.3817,3.3817,3.3817,3.3782,3.3712,3.2998,3.156,2.977,2.9429,2.8568,2.7578,2.7996,2.7656,2.6656,0.0,0.0,0.0,0.0,0.0,0.0,0.0,0.0,0.0,0.0,0.0,0.0,0.0,0.0,0.0,0.0,2.8792,2.8792,2.8792,2.8792,2.8792,2.8792,2.8792,2.8792,2.8792,2.8967,2.9185,2.9512,2.9642,2.9969,3.045,3.045,3.0537,3.0665,3.0996,3.0846,3.0359,3.0394,3.0057,2.946,2.8588,2.8055,2.7753,2.7206,2.6845,2.6591,0.0,2.6591,2.6591,2.6591,2.6591,2.6591,2.6591,2.6591,2.6646,2.693,2.7279,2.7628,2.7757,2.7995,2.8215,2.8215,2.848,2.8792,2.8792,2.8883,2.9005,2.9005,2.9225,2.9445,2.9574,3.0051,3.0479,3.0754,3.1011,3.1263,3.1391,3.141,3.141,3.141,3.141,3.1488,3.1763,3.1799,3.1854,3.2001,3.2239,3.257,3.2991,3.301,3.3193,3.3596,3.3615,3.3635,3.3817,3.3817,3.3817,3.3817,3.3817,3.3817,3.3817,3.3817,3.3817,3.3817,3.3817,3.3817,3.3712,3.2438,3.1243,3.0001,2.8084,2.6757,2.5881,2.5222,2.467,2.4338,0.0,0.0,0.0,0.0,0.0,0.0,0.0,0.0,0.0,0.0,0.0,0.0,0.0,0.0,0.0,0.0,0.0,2.8792,2.8792,2.8792,2.8792,2.8792,2.8792,2.8792,2.8792,2.8792,2.8946,2.925,2.925,2.9491,2.9947,2.9947,3.0144,3.0447,3.0456,3.029,2.9946,2.9594,2.9164,2.8562,2.7699,2.7368,2.7314,2.6791,2.6591,0.0,2.6591,2.6591,2.6591,2.6591,2.6591,2.6591,2.6591,2.671,2.693,2.7481,2.7812,2.805,2.8197,2.8436,2.8608,2.8608,2.8792,2.9005,2.9005,2.9005,2.9042,2.9188,2.9427,2.9684,2.9978,3.0473,3.0846,3.0974,3.1244,3.141,3.141,3.141,3.141,3.141,3.141,3.1543,3.1964,3.2129,3.2276,3.2423,3.268,3.2991,3.3379,3.3397,3.3507,3.3798,3.3817,3.3817,3.3817,3.3817,3.3817,3.3817,3.3817,3.3817,3.3817,3.3817,3.3817,3.3817,3.3817,3.3486,3.291,3.1895,3.0482,2.8768,2.7143,2.5808,2.4697,2.3883,2.3414,2.3215,0.0,0.0,0.0,0.0,0.0,0.0,0.0,0.0,0.0,0.0,0.0,0.0,0.0,0.0,0.0,0.0,0.0,0.0,2.8792,2.8792,2.8792,2.8792,2.8792,2.8792,2.8792,2.8792,2.8792,2.8792,2.8792,2.9033,2.9469,2.9469,2.9947,3.0721,2.999,2.9857,3.0115,2.8482,2.778,2.7672,2.6899,2.6591,2.6591,2.6591,2.6591,2.6591,2.6591,2.6591,2.6591,2.6591,2.6591,2.6591,2.6609,2.6912,2.7389,2.8168,2.8407,2.8498,2.8913,2.9005,2.9005,2.9005,2.9005,2.9005,2.9005,2.9023,2.9152,2.9519,2.9629,2.9904,0.0,0.0,3.0937,3.1355,3.141,3.1377,3.1313,3.1345,3.1377,0.0,0.0,0.0,0.0,0.0,3.2808,3.3196,3.3214,3.3379,3.3798,3.3817,3.3817,3.3817,3.3817,3.3817,3.3817,3.3817,3.3817,3.3817,3.3817,3.3817,3.3817,3.3817,3.3817,3.3817,3.3712,3.2841,3.1473,3.1332,2.9326,2.6342,2.6648,2.5639,2.4044,2.397,2.3748,2.3327,0.0,0.0,0.0,0.0,0.0,0.0,0.0,0.0,0.0,0.0,0.0,0.0,0.0,0.0,0.0,0.0,0.0,0.0,2.8792,2.8792,2.8792,2.8792,2.8792,2.8792,2.8792,2.8792,2.8792,2.8792,2.8792,2.8858,2.8989,2.8989,2.894,2.889,2.9055,2.8671,2.795,2.7859,2.743,2.6899,2.6682,2.6591,2.6591,2.6591,2.6591,2.6591,2.6591,2.6591,2.6591,2.6591,2.6591,2.6646,2.6967,2.7334,2.7738,2.8242,2.8608,2.8876,2.8957,2.9005,2.9005,2.9005,2.9005,2.9005,2.9005,2.9243,2.9482,2.9574,3.0088,3.0565,0.0,3.1029,0.0,3.1391,3.141,0.0,3.0,3.0746,0.0,2.9967,0.0,3.2001,3.2404,3.2826,3.3196,3.3633,3.367,3.3707,3.3798,3.3817,3.3817,3.3817,3.3817,3.3817,3.3817,3.3817,3.3817,3.3817,3.3817,3.3817,3.3817,3.3817,3.3817,3.3747,3.2596,3.186,3.1332,2.9003,2.7542,2.6648,2.5602,2.4881,2.4377,2.3785,2.3475,2.329,0.0,0.0,0.0,0.0,0.0,0.0,0.0,0.0,0.0,0.0,0.0,0.0,0.0,0.0,0.0,0.0,0.0,0.0,0.0,2.8792,2.8792,2.8792,2.8792,2.8792,2.8792,2.8792,2.8792,2.8792,2.8792,2.8792,2.8792,2.8443,2.8362,2.8484,2.8039,2.7691,2.7408,2.7308,2.7008,0.0,0.0,2.6591,2.6591,2.6591,2.6591,2.6591,2.6591,0.0,0.0,0.0,0.0,2.6949,2.7334,2.7738,2.8142,2.8535,0.0,2.9005,2.9005,2.9005,2.9005,2.9005,2.9133,2.9262,2.9262,2.9562,2.9892,3.0106,3.051,3.0846,3.1043,3.0731,3.0487,0.0,0.0,0.0,2.933,3.0,3.0422,0.0,3.1287,0.0,3.2551,3.2939,3.336,3.378,3.3817,3.3817,3.3817,3.3817,3.3817,3.3817,3.3817,3.3817,3.3817,3.3817,3.3817,3.3817,3.3817,3.3817,3.3817,3.3817,3.3416,3.2736,3.1877,3.0714,2.9361,2.7614,2.6502,2.5786,2.4918,2.4599,2.4488,2.3711,2.3401,2.329,0.0,0.0,0.0,0.0,0.0,0.0,0.0,0.0,0.0,0.0,0.0,0.0,0.0,0.0,0.0,0.0,0.0,0.0,0.0,0.0,2.8792,2.8792,2.8792,2.8792,2.8792,2.8792,2.8792,2.8792,2.8792,2.8746,2.863,2.793,2.7962,2.8516,2.7106,2.6914,2.7592,2.6899,2.6591,2.6591,2.6591,2.6591,2.6591,0.0,2.6591,2.6591,0.0,0.0,0.0,0.0,2.7206,2.7279,2.7738,2.8124,2.8462,2.8865,2.9005,2.9005,2.9005,2.9005,2.9023,2.9078,2.9354,2.9611,2.9666,2.9984,3.0369,3.0717,3.0827,3.1006,3.1355,3.039,2.9543,2.933,0.0,2.7982,2.8871,2.933,2.9967,3.1023,3.1701,3.2221,3.257,3.3028,3.3415,3.378,3.3817,3.3817,3.3817,3.3817,3.3817,3.3817,3.3817,3.3817,3.3817,3.3817,3.3817,3.3817,3.3817,3.3817,3.3782,3.359,3.2771,3.1473,3.1084,2.9361,2.6867,2.6685,2.5822,2.4599,2.4599,2.4562,2.4414,2.3674,2.3364,2.3215,0.0,0.0,0.0,0.0,0.0,0.0,0.0,0.0,0.0,0.0,2.8792,2.8792,0.0,0.0,0.0,0.0,0.0,0.0,0.0,0.0,0.0,2.8792,2.8792,2.8792,2.8792,2.8792,2.8792,2.8792,2.8792,2.8466,2.7812,2.767,2.7357,2.6896,2.6615,2.6619,2.6791,2.6673,2.6591,2.6591,2.6591,2.6591,2.6591,2.6591,0.0,0.0,0.0,0.0,0.0,0.0,2.7206,2.7334,2.8058,2.8333,2.8462,2.8865,2.9005,2.9005,2.9005,2.9005,2.9097,2.9427,2.9556,2.9684,3.002,3.0406,0.0,0.0,3.1047,3.1336,3.1391,3.1216,3.0649,2.9493,3.0048,2.99,2.7784,2.9509,3.0682,0.0,3.1328,3.2514,3.2588,3.3266,3.3709,3.3798,3.3817,3.3817,3.3817,3.3817,3.3817,3.3817,3.3817,3.3817,3.3817,3.3817,3.3817,3.3817,3.3817,3.3817,3.3747,3.2473,3.1754,3.1367,2.8788,2.7397,2.6794,2.5543,2.4857,2.4599,2.4599,2.4414,2.4044,2.355,2.3228,2.293,0.0,0.0,0.0,0.0,0.0,0.0,0.0,2.8792,2.8792,2.8792,2.8792,2.8792,2.8792,2.8792,0.0,0.0,0.0,0.0,0.0,0.0,0.0,0.0,0.0,0.0,2.8164,2.8164,2.7977,2.76,0.0,2.741,2.703,2.6604,2.6428,2.6487,2.6095,2.6191,2.6591,2.6591,2.6591,2.6591,2.6591,2.6591,2.6591,0.0,0.0,0.0,0.0,0.0,0.0,0.0,2.782,2.7875,2.8278,2.8535,2.8737,2.892,2.9005,2.9005,2.9005,2.917,2.9372,2.9556,2.9923,3.029,3.0461,0.0,0.0,0.0,3.1281,3.141,3.141,3.0779,3.0098,2.9395,2.8592,2.8131,2.8229,2.8789,2.9215,2.9297,3.1249,3.232,3.1563,3.2911,3.3817,3.3817,3.3817,3.3817,3.3817,3.3817,3.3817,3.3817,3.3817,3.3817,3.3817,3.3817,3.3817,3.3817,3.3817,3.3381,3.2578,3.1825,3.0607,2.9003,2.7542,2.6444,2.5653,2.4894,2.4599,2.4599,2.4599,2.4341,2.397,2.355,2.3191,2.2856,0.0,0.0,0.0,0.0,0.0,0.0,0.0,2.8792,2.8792,2.8792,2.8792,2.8792,2.8792,2.8792,2.8792,0.0,0.0,0.0,0.0,0.0,0.0,0.0,0.0,0.0,0.0,0.0,0.0,2.6504,2.6504,0.0,0.0,0.0,0.0,0.0,2.5767,2.5921,2.6591,2.6591,2.6591,0.0,0.0,2.6591,0.0,0.0,0.0,0.0,0.0,0.0,0.0,0.0,2.8443,2.8517,2.8517,2.8766,2.9005,2.9005,2.9005,2.9005,2.9005,2.9299,2.9629,2.9721,3.029,3.0809,3.0901,3.1189,0.0,3.141,3.141,3.141,3.141,3.026,2.9199,0.0,2.6937,2.6236,2.8493,2.8081,2.8015,2.9236,3.1302,0.0,3.0719,3.2552,3.3817,3.3817,3.3817,3.3817,3.3817,3.3817,3.3817,3.3817,3.3817,3.3817,3.3817,3.3817,3.3817,3.3817,3.3817,3.298,3.1508,3.1155,2.9504,2.6867,2.6539,2.5712,2.4599,2.4599,2.4599,2.4599,2.4599,2.4304,2.3822,2.3513,2.3116,2.2744,0.0,0.0,0.0,0.0,0.0,0.0,0.0,2.8792,2.8792,2.8792,2.8792,2.8792,2.8792,2.8792,2.8792,0.0,0.0,0.0,0.0,0.0,0.0,0.0,0.0,0.0,0.0,0.0,0.0,2.6504,2.6504,0.0,0.0,0.0,0.0,0.0,0.0,2.6178,2.6591,2.6591,0.0,0.0,0.0,0.0,0.0,0.0,0.0,0.0,0.0,0.0,0.0,0.0,0.0,2.892,2.892,2.8957,2.9005,2.9005,0.0,0.0,2.9005,2.9299,2.9702,3.0039,3.0479,3.0882,3.1281,0.0,3.141,3.141,3.141,3.141,3.141,3.026,2.8871,2.7519,2.7088,2.7021,2.7238,2.8328,2.922,2.9627,0.0,0.0,3.0978,3.2626,3.3817,3.3817,3.3817,3.3817,3.3817,3.3817,3.3817,3.3817,3.3817,3.3817,3.3817,3.3817,3.3817,3.3817,3.3817,3.298,3.1437,3.0075,2.8501,2.683,2.5433,2.4747,2.4599,2.4599,2.4599,2.4599,2.4599,2.4119,2.3438,2.3401,2.2968,2.2334,0.0,0.0,0.0,0.0,0.0,0.0,2.8792,2.8792,2.8792,2.8792,2.8792,2.8792,2.8792,2.8792,2.8792,2.8792,0.0,0.0,0.0,0.0,0.0,0.0,0.0,0.0,0.0,0.0,2.5853,2.5118,2.5118,0.0,0.0,0.0,0.0,0.0,0.0,2.6215,2.6591,2.6591,0.0,0.0,0.0,0.0,0.0,0.0,0.0,0.0,0.0,0.0,2.7903,0.0,0.0,0.0,2.9005,2.9005,0.0,0.0,2.9005,2.903,2.9299,2.9635,3.0057,3.0461,3.0846,3.1208,3.1373,0.0,3.1152,3.0325,3.0811,3.1152,3.0293,2.9674,2.9101,2.8526,2.7685,2.742,2.8295,2.8937,2.9434,2.9778,3.1448,3.2162,3.1133,3.2731,3.3817,3.3817,3.3817,3.3817,3.3817,3.3817,3.3817,3.3817,3.3817,3.3817,3.3817,3.3817,3.3817,3.3817,3.3817,3.2508,3.011,2.9488,2.7852,2.5469,2.4881,2.4599,2.4599,2.4599,2.4599,2.4599,2.4599,2.4267,2.3748,2.3475,2.3079,2.2632,0.0,0.0,0.0,0.0,0.0,2.8792,2.8792,2.8792,2.8792,2.8792,2.8792,2.8792,2.8792,2.8792,2.8792,2.8792,2.8792,0.0,0.0,0.0,0.0,0.0,0.0,0.0,0.0,0.0,2.4947,2.4202,2.4202,2.4202,0.0,0.0,2.5131,2.5425,0.0,0.0,0.0,0.0,0.0,0.0,0.0,0.0,0.0,0.0,0.0,0.0,0.0,0.0,0.0,0.0,0.0,0.0,0.0,0.0,0.0,0.0,2.9005,2.9097,2.9501,2.9874,3.0296,3.0699,3.1116,3.141,0.0,0.0,3.1023,2.9591,3.0098,3.0487,2.9461,2.8608,2.8164,2.8559,2.742,2.6988,2.8427,2.9035,2.9486,2.9966,3.1553,3.225,3.1323,3.2784,3.3817,3.3817,3.3817,3.3817,3.3817,3.3817,3.3817,3.3817,3.3817,3.3817,3.3817,3.3817,3.3817,3.3817,3.3817,3.2193,2.9202,2.9202,2.7527,2.4599,2.4599,2.4599,2.4599,2.4599,2.4599,2.4599,2.4599,2.4341,2.397,2.355,2.3191,2.2856,0.0,0.0,0.0,0.0,0.0,0.0,2.8792,2.8792,2.8792,2.8792,2.8792,2.8792,2.8792,2.8792,2.8792,2.8792,2.8792,0.0,0.0,0.0,0.0,0.0,0.0,0.0,0.0,0.0,2.4947,2.4202,2.4202,2.4202,2.422,2.5003,2.5388,2.5425,0.0,0.0,0.0,0.0,0.0,0.0,0.0,0.0,0.0,0.0,0.0,0.0,0.0,0.0,0.0,0.0,0.0,0.0,0.0,2.9005,2.9005,0.0,2.9005,2.9097,2.9501,2.9874,3.0296,3.0699,3.1116,3.141,0.0,3.141,3.1023,2.9591,2.9297,2.933,2.9297,2.6971,2.5498,2.6888,2.5935,2.5498,2.6906,2.8394,2.9539,3.0207,3.1646,3.2324,3.1563,3.2876,3.3817,3.3817,3.3817,3.3817,3.3817,3.3817,3.3817,3.3817,3.3817,3.3817,3.3817,3.3817,3.3817,3.3817,3.3817,3.2193,2.9202,2.9202,2.7527,2.4599,2.4599,2.4599,2.4599,2.4599,2.4599,2.4599,2.4599,2.4341,2.397,2.355,2.3191,2.2856,0.0,0.0,0.0,0.0,0.0,0.0,0.0,2.8792,2.8792,2.8792,2.8792,2.8792,2.8792,2.8792,2.8792,2.8792,2.8792,0.0,0.0,0.0,0.0,0.0,0.0,0.0,0.0,0.0,2.443,2.4202,2.4202,2.4202,2.422,2.5021,2.5388,2.5443,2.6251,2.6591,0.0,0.0,0.0,0.0,0.0,0.0,2.6628,0.0,0.0,0.0,0.0,0.0,0.0,0.0,0.0,0.0,0.0,0.0,0.0,2.9335,2.9409,2.9501,2.9892,3.0296,3.0699,3.1134,3.1318,3.1152,3.0195,2.9967,2.9297,2.6871,2.7121,2.7486,2.6537,2.5614,2.5143,2.5599,2.6087,2.6254,2.5734,2.8592,3.0642,3.0479,3.2214,3.3317,3.3102,3.3521,3.3817,3.3817,3.3817,3.3817,3.3817,3.3817,3.3817,3.3817,3.3817,3.3817,3.3817,3.3817,3.3817,3.3817,3.3817,3.2193,2.9202,2.9202,2.7527,2.4599,2.4599,2.4599,2.4599,2.4599,2.4599,2.4599,2.4599,2.4525,2.4341,2.3674,2.334,2.2992,0.0,0.0,0.0,0.0,0.0,0.0,0.0,2.8792,2.8792,2.8792,2.8792,2.8792,2.8792,2.8792,2.8792,2.8792,2.8792,0.0,0.0,0.0,0.0,0.0,0.0,0.0,0.0,2.4202,2.4202,2.4202,2.4202,2.4202,2.422,2.5021,2.5388,2.5443,2.6251,2.6591,0.0,0.0,0.0,0.0,0.0,0.0,2.6628,0.0,0.0,0.0,0.0,0.0,0.0,0.0,0.0,0.0,0.0,0.0,0.0,0.0,2.9721,2.9892,3.0314,3.0607,3.0882,3.1318,3.141,3.1023,2.9641,0.0,2.8477,2.5581,2.57,2.602,2.5177,2.4568,2.4399,2.5075,2.6254,2.6655,2.5379,2.8789,3.1378,3.1306,3.2629,3.3651,3.3798,3.3817,3.3817,3.3817,3.3817,3.3817,3.3817,3.3817,3.3817,3.3817,3.3817,3.3743,3.3596,3.3562,3.3562,3.3562,3.2973,3.1476,2.9167,2.8609,2.6961,2.4599,2.4599,2.4599,0.0,2.4599,2.4599,2.4599,2.4599,2.4525,2.4304,2.3624,2.2918,2.2036,0.0,0.0,0.0,0.0,0.0,0.0,0.0,2.8792,2.8792,2.8792,2.8792,2.8769,2.8723,2.8769,2.8769,2.8723,0.0,0.0,0.0,0.0,0.0,0.0,0.0,0.0,0.0,2.4202,2.4202,2.4202,2.4202,2.422,2.4257,2.504,2.5407,2.548,2.6243,2.6591,0.0,0.0,0.0,0.0,2.6591,2.6591,0.0,0.0,0.0,0.0,0.0,0.0,0.0,0.0,0.0,0.0,0.0,0.0,0.0,0.0,0.0,0.0,0.0,3.0827,3.0919,3.1318,3.141,3.1023,2.9493,2.9166,0.0,2.5446,2.4873,2.4873,2.4839,2.3802,2.3475,2.5075,2.6321,2.6688,2.5513,2.8674,3.1512,3.2463,3.2973,3.3342,3.378,3.3817,3.3817,3.3817,3.3817,3.3817,3.3817,3.3817,3.3817,3.3817,3.3817,3.3633,3.3232,3.3232,3.3198,3.3061,3.1634,3.0256,2.8988,2.7542,2.6042,2.4599,2.4599,2.4599,2.4599,2.4599,2.4599,2.4599,2.4599,2.4341,2.397,2.355,2.2111,2.0338,0.0,0.0,0.0,0.0,0.0,0.0,0.0,0.0,0.0,0.0,2.8792,2.856,2.7953,2.8443,2.856,0.0,0.0,0.0,0.0,0.0,0.0,0.0,0.0,0.0,0.0,2.4202,2.4202,2.4202,2.4202,2.4367,2.4672,2.5168,2.5554,2.5866,2.638,2.6591,0.0,0.0,0.0,0.0,2.6591,2.6591,0.0,0.0,0.0,0.0,2.8619,2.8931,0.0,0.0,0.0,0.0,0.0,0.0,0.0,0.0,3.013,3.0351,3.1079,0.0,3.13,3.1391,3.157,3.1055,0.0,2.7817,0.0,0.0,0.0,2.37,2.3441,2.3338,2.3406,2.3836,2.57,2.6355,2.421,2.6586,2.9546,3.2299,3.2973,3.3342,3.378,3.3817,3.3817,3.3817,3.3817,3.3817,3.3817,3.3817,3.3817,3.3817,3.3817,3.3727,3.367,3.367,3.3063,3.1913,3.1528,2.9957,2.7433,2.7085,2.6042,2.4599,2.4599,2.4599,2.4599,2.4599,2.4599,2.4599,2.4599,2.4341,2.397,2.355,2.2111,2.0177,0.0,0.0,0.0,0.0,0.0,0.0,0.0,0.0,0.0,0.0,0.0,0.0,0.0,0.0,0.0,0.0,0.0,0.0,0.0,0.0,0.0,0.0,0.0,0.0,2.4202,2.4202,2.4202,2.4202,2.4202,2.4422,2.4819,2.5205,2.5609,2.6039,2.6435,2.6591,0.0,0.0,0.0,0.0,2.6591,0.0,0.0,0.0,0.0,0.0,2.8785,2.9005,0.0,2.9005,2.9005,2.9005,0.0,0.0,0.0,0.0,3.0332,3.0607,3.1244,3.0908,3.0584,3.1249,3.1184,3.0242,2.7685,0.0,0.0,0.0,0.0,2.3338,2.3167,2.327,2.3475,2.3645,2.5075,2.6188,2.6321,2.7993,3.0066,3.2533,3.3209,3.3547,3.378,3.3817,3.3817,3.3817,3.3817,3.3817,3.3817,3.3817,3.3817,3.3817,3.3817,3.3725,3.3541,3.2833,3.2035,3.1216,2.9794,2.8361,2.6867,2.6188,2.5396,2.4599,2.4599,2.4599,2.4599,2.4599,2.4599,2.4599,2.4599,2.423,2.3624,2.2645,2.0902,1.8782,0.0,0.0,0.0,0.0,0.0,0.0,0.0,0.0,0.0,0.0,0.0,0.0,0.0,0.0,0.0,0.0,0.0,0.0,0.0,0.0,0.0,0.0,0.0,2.4202,2.4202,2.4202,2.4202,2.4202,2.4202,2.4459,2.4911,2.5242,2.5645,2.6104,2.6453,2.6591,0.0,0.0,0.0,0.0,2.6673,0.0,0.0,0.0,0.0,0.0,0.0,0.0,0.0,2.9005,2.9005,2.9005,2.9005,0.0,0.0,0.0,0.0,0.0,3.1226,3.0337,2.9657,3.112,3.0682,2.9411,2.7585,0.0,0.0,0.0,0.0,2.3475,2.3406,2.3475,0.0,2.4258,2.4989,2.647,2.9313,3.0261,3.1244,3.2814,3.339,3.3663,3.3796,3.3817,3.3817,3.3817,3.3817,3.3817,3.3817,3.3817,3.3817,3.3817,3.3817,3.3651,3.3287,3.1755,3.0872,3.0611,2.7748,2.6445,2.6502,2.5212,2.4599,2.4599,2.4599,2.4599,2.4599,2.4599,2.4599,2.4599,2.4599,2.4156,2.329,2.1613,1.9489,1.7227,0.0,0.0,0.0,0.0,0.0,0.0,0.0,0.0,0.0,0.0,0.0,0.0,0.0,0.0,0.0,0.0,0.0,0.0,0.0,0.0,0.0,0.0,2.4202,2.4202,2.4202,2.4202,2.4202,2.4202,2.4202,2.4587,2.5315,2.537,2.5792,2.6527,2.6554,2.6591,2.6591,0.0,0.0,2.6637,2.6986,0.0,0.0,0.0,0.0,0.0,0.0,0.0,0.0,2.9005,2.9005,2.9005,2.9005,0.0,0.0,0.0,0.0,0.0,3.0959,3.0109,2.9707,3.1396,3.1023,2.9737,2.7949,2.6888,0.0,0.0,0.0,0.0,0.0,2.3918,2.4665,2.5614,2.6871,2.8114,2.9232,2.948,3.03,3.2429,3.2743,3.3059,3.3743,3.3817,3.3817,3.3817,3.3817,3.3817,3.3817,3.3817,3.3817,3.3817,3.3817,3.378,3.3725,3.2176,3.0736,2.9444,2.7647,2.6168,2.4954,2.471,2.4599,2.4599,2.4599,2.4599,2.4599,2.4599,2.4599,2.4599,2.4599,2.4341,2.3661,2.1725,1.9677,1.7407,0.0,0.0,0.0,0.0,0.0,0.0,0.0,0.0,0.0,0.0,0.0,0.0,0.0,0.0,0.0,0.0,0.0,0.0,0.0,0.0,0.0,2.4202,2.4202,2.4202,2.4202,2.4202,2.4202,2.4202,2.4202,2.4624,2.5407,2.5847,2.6251,2.6591,2.6591,2.6591,2.6591,2.6591,2.6591,2.6655,0.0,0.0,0.0,0.0,0.0,0.0,0.0,0.0,0.0,0.0,2.9005,2.9005,2.9005,0.0,0.0,0.0,0.0,0.0,3.1162,3.0874,3.0746,3.0972,2.9932,2.8378,2.6588,2.5987,0.0,0.0,0.0,0.0,0.0,2.4617,2.5379,2.5513,2.7004,2.8575,2.9705,3.0876,3.2007,3.3032,3.336,3.3598,3.3796,3.3817,3.3817,3.3817,3.3817,3.3817,3.3817,3.3817,3.3817,3.3817,3.3817,3.3416,3.2561,3.1032,2.9897,2.9167,2.6779,2.5286,2.4599,2.4599,2.4599,2.4599,2.4599,2.4599,2.4599,2.4599,2.4599,2.4599,2.4599,2.3809,2.2347,1.9235,1.6808,1.479,0.0,0.0,0.0,0.0,0.0,0.0,0.0,0.0,0.0,0.0,0.0,0.0,0.0,0.0,0.0,0.0,0.0,0.0,0.0,0.0,2.4202,2.4202,2.4202,2.4202,2.4202,2.4202,2.4202,2.4202,2.4293,2.4746,2.5554,2.627,2.6591,2.6591,2.6591,2.6591,2.6591,2.6591,2.6646,2.6784,0.0,0.0,0.0,0.0,0.0,0.0,0.0,0.0,0.0,0.0,0.0,0.0,0.0,0.0,0.0,2.9972,3.0828,3.1913,3.1438,3.1593,3.1653,3.0581,0.0,2.7685,2.5599,2.533,0.0,0.0,0.0,0.0,0.0,2.5648,2.6404,2.5834,2.7403,2.9051,3.0045,3.2004,3.3377,3.3615,3.3855,3.4015,3.3935,3.3851,3.3817,3.3817,3.3817,3.3817,3.3817,3.3817,3.3817,3.3817,3.3817,3.305,3.1508,2.9952,2.9023,2.8644,2.5896,2.4599,2.4599,2.4599,2.4599,2.4599,2.4599,2.4599,2.4599,2.4599,2.4599,2.4599,2.4599,2.3091,2.0489,1.6998,1.4376,1.2501,0.0,0.0,0.0,0.0,0.0,0.0,0.0,0.0,0.0,0.0,0.0,0.0,0.0,0.0,0.0,0.0,0.0,0.0,0.0,0.0,2.4202,2.4202,2.4202,2.4202,2.4202,2.4202,2.4202,2.4202,2.4562,2.5168,2.5984,2.6398,2.6591,2.6591,2.6591,2.6591,2.6591,2.6591,2.6839,2.7206,2.7591,0.0,0.0,0.0,0.0,0.0,0.0,0.0,0.0,0.0,0.0,0.0,0.0,0.0,3.103,3.0353,3.1208,3.22,3.1483,3.1593,3.1653,3.0581,3.0192,0.0,2.6188,2.5465,0.0,2.3734,0.0,0.0,0.0,2.7088,2.8015,2.7982,2.9215,3.0077,2.9867,3.1377,3.2795,3.361,3.3373,3.3476,3.4296,3.4024,3.3817,3.3817,3.3817,3.3817,3.3817,3.3817,3.3817,3.3817,3.3817,3.305,3.1508,2.9952,2.8501,2.7048,2.5396,2.4599,2.4599,2.4599,2.4599,2.4599,2.4599,2.4599,2.4599,2.4599,2.4599,2.4599,2.4599,2.2236,1.861,1.6808,1.4598,1.2501,0.0,0.0,0.0,0.0,0.0,0.0,0.0,0.0,0.0,0.0,0.0,0.0,0.0,0.0,0.0,0.0,0.0,0.0,0.0,0.0,2.4202,2.4202,2.4202,2.4202,2.4202,2.4202,2.4202,2.4202,2.4856,2.5443,2.6021,2.6416,2.6591,2.6591,2.6591,2.6591,2.6591,2.6591,2.6811,2.7243,2.7628,2.805,0.0,0.0,0.0,0.0,0.0,0.0,0.0,0.0,2.9005,2.9108,2.9723,3.0497,3.111,3.0649,3.154,3.2549,3.1797,3.191,3.1955,3.0886,3.1097,0.0,0.0,2.5484,2.5431,2.5128,2.4892,0.0,0.0,2.7486,2.7933,2.9296,2.977,3.0387,3.1566,3.2307,3.2918,3.3524,3.3699,3.3932,3.4282,3.4427,3.4474,3.4474,3.4301,3.4163,3.4163,3.3955,3.3817,3.3817,3.3817,3.2578,3.011,2.9488,2.7924,2.5469,2.4894,2.4599,2.4599,2.4599,2.4599,2.4599,2.4599,2.4599,2.4599,2.4599,2.4599,2.4414,2.2409,1.9763,1.6913,1.5259,1.3729,1.2501,0.0,0.0,0.0,0.0,0.0,0.0,0.0,0.0,0.0,0.0,0.0,0.0,0.0,0.0,0.0,0.0,0.0,0.0,2.4202,2.4202,2.4202,2.4202,2.4202,2.4202,2.4202,2.4202,2.4257,2.4404,2.5212,2.5792,2.6196,2.6472,2.6591,2.6591,2.6591,2.6591,2.6591,2.6747,2.7022,2.7426,2.783,2.8234,0.0,0.0,0.0,0.0,0.0,0.0,0.0,0.0,2.9097,2.9292,2.9927,3.0641,3.1195,3.1127,3.1778,3.2505,3.2093,3.2194,3.2211,3.1483,0.0,0.0,2.79,2.7039,2.6939,2.6622,2.6806,2.7404,2.8624,0.0,2.8886,3.0807,3.0549,3.0775,3.2657,3.2994,3.3193,3.3618,3.3848,3.4087,3.4427,3.4596,3.4736,3.4902,3.4681,3.4508,3.4405,3.4128,3.3921,3.3817,3.3817,3.2333,2.9238,2.9202,2.7635,2.4599,2.4599,2.4599,2.4599,2.4599,2.4599,2.4599,2.4599,2.4599,2.4599,2.4599,2.4304,2.35,2.0301,1.7882,1.6015,1.4307,1.3197,1.2501,0.0,0.0,0.0,0.0,0.0,0.0,0.0,0.0,0.0,0.0,0.0,0.0,0.0,0.0,0.0,0.0,0.0,0.0,2.4202,2.4202,2.4202,2.4202,2.4202,2.4202,2.4202,2.4202,2.4422,2.4819,2.5609,2.6196,2.6591,2.6591,2.6591,2.6591,2.6591,2.6591,2.6628,2.7041,2.7426,2.783,2.8223,2.8627,2.9005,0.0,0.0,0.0,0.0,0.0,0.0,0.0,2.928,2.9684,3.0106,3.071,3.1401,3.1798,3.191,3.1993,3.2326,3.239,3.239,3.239,0.0,0.0,3.0789,3.0304,2.9785,2.7982,2.9067,3.0304,3.0304,3.0578,3.1272,3.2689,3.1739,3.1304,3.2721,3.3197,3.3574,3.4055,3.374,3.3841,3.4705,3.4499,3.4467,3.4883,3.4902,3.4731,3.4439,3.4405,3.4232,3.3817,3.3782,3.2298,2.9238,2.9167,2.7635,2.4599,2.4599,2.4599,2.4599,2.4599,2.4599,2.4599,2.4599,2.4599,2.4599,2.4599,2.3611,2.1837,1.864,1.6893,1.5969,1.4307,1.3197,1.2501,0.0,0.0,0.0,0.0,0.0,0.0,0.0,0.0,0.0,0.0,0.0,0.0,0.0,0.0,0.0,0.0,0.0,0.0,2.4202,2.4202,2.4202,2.4202,2.4202,2.4202,2.4202,2.4746,2.5095,2.5223,2.5737,2.6196,2.6591,2.6591,2.6591,2.6591,2.6591,2.6765,2.7041,2.7151,2.761,2.8223,2.8333,2.8627,2.9005,0.0,0.0,0.0,0.0,0.0,0.0,0.0,0.0,0.0,3.104,3.1621,3.2029,3.2213,3.2581,3.2912,3.2804,3.2581,3.2453,3.2708,0.0,0.0,0.0,3.1355,0.0,0.0,3.0207,3.1822,3.0821,3.1355,3.2224,3.3102,3.2702,3.2511,3.3165,3.3323,3.3445,3.3594,3.3791,3.3999,3.4271,3.4464,3.4611,3.4746,3.4821,3.4791,3.4689,3.4496,3.4336,3.4232,3.291,3.1367,2.9647,2.8264,2.6721,2.5005,2.4747,2.4599,2.4599,2.4599,2.4599,2.4599,2.4599,2.4599,2.4512,2.3283,2.1121,1.8499,1.7456,1.5927,1.4234,1.3748,1.3104,1.2347,0.0,0.0,0.0,0.0,0.0,0.0,0.0,0.0,0.0,0.0,2.4202,2.4202,0.0,0.0,0.0,0.0,0.0,0.0,0.0,2.4202,2.4202,2.4202,2.4202,2.4275,2.4415,2.5223,2.5627,2.5627,2.6031,2.6361,2.6591,2.6591,2.6591,2.6591,2.6591,2.6811,2.7224,2.7371,2.7812,2.8407,2.8572,2.8773,2.9005,0.0,0.0,0.0,0.0,0.0,0.0,0.0,0.0,0.0,3.1507,3.1973,3.2163,3.2346,3.2613,3.2772,3.2549,3.2358,3.2262,3.2453,3.2549,3.2708,3.3007,0.0,0.0,0.0,3.1566,3.2657,3.1771,3.2256,3.2912,3.3323,3.3228,3.3165,3.3355,3.3386,3.3386,3.3386,3.3652,3.3887,3.4095,3.4329,3.4512,3.4687,3.4763,3.4718,3.4571,3.4431,3.4259,3.409,3.2961,3.1444,2.9579,2.8381,2.681,2.4834,2.458,2.4471,2.4484,2.4566,2.4532,2.4376,2.3658,2.3387,2.3192,2.0912,1.8791,1.6944,1.6195,1.486,1.3401,1.3468,1.3025,1.2196,0.0,0.0,2.5294,2.5197,0.0,0.0,0.0,0.0,0.0,0.0,2.4202,2.4202,0.0,0.0,0.0,0.0,0.0,0.0,0.0,0.0,2.4202,2.4202,2.4238,2.4434,2.4856,2.5609,2.6039,2.6049,2.6435,2.6591,2.6591,2.6591,2.6591,2.6591,2.6591,2.683,2.7279,2.7646,2.805,2.848,2.8906,2.9035,2.9035,2.9064,0.0,0.0,0.0,0.0,0.0,0.0,0.0,0.0,3.164,3.1942,3.207,3.2358,3.223,3.2006,3.2038,3.1974,3.1942,3.1974,3.2453,3.2994,3.3323,3.3165,3.2943,3.2943,3.2943,3.2943,3.2943,3.3197,3.3386,3.3386,3.3386,3.3386,3.3386,3.3386,3.3386,3.3386,3.3386,3.3574,3.3997,3.4055,3.4212,3.4551,3.4609,3.4517,3.4228,3.4214,3.4016,3.3671,3.3472,3.2134,2.9475,2.9133,2.7493,2.4536,2.4372,2.4301,2.4315,2.4461,2.4372,2.4069,2.2292,2.1414,2.1054,1.8087,1.6773,1.6516,1.4973,1.3882,1.3215,1.3394,1.2939,1.2076,0.0,0.0,2.5123,2.4529,0.0,0.0,0.0,0.0,0.0,0.0,0.0,0.0,0.0,0.0,0.0,0.0,0.0,0.0,0.0,0.0,2.4202,2.4202,2.4489,2.4856,2.526,2.5737,2.6141,2.6472,2.6554,2.6591,2.6591,2.6591,2.6591,2.6591,2.6591,2.7004,2.7665,2.7757,2.8215,2.8895,2.9235,2.939,2.942,2.9627,2.9715,0.0,0.0,0.0,0.0,0.0,0.0,0.0,3.2125,3.2664,3.3038,3.2867,3.274,3.2721,3.3026,3.2708,3.2358,3.2613,3.2785,3.2994,3.3323,3.3323,3.3292,3.3292,3.3292,3.3292,3.3292,3.3355,3.3386,3.3386,3.3386,3.3386,3.3386,3.3386,3.3386,3.3386,3.3386,3.3425,3.3555,3.3555,3.3594,3.3659,3.4023,3.4219,3.4122,3.4172,3.4167,3.4087,3.2603,3.1628,3.1309,2.8721,2.7061,2.6379,2.4982,2.4301,2.4301,2.408,2.3928,2.379,2.2181,2.0766,1.9442,1.75,1.5922,1.4723,1.4219,1.3592,1.3058,1.3096,1.2753,1.1873,0.0,0.0,0.0,0.0,0.0,0.0,0.0,0.0,0.0,0.0,0.0,0.0,0.0,2.4202,0.0,0.0,2.4202,2.4202,2.4202,2.4202,2.4293,2.4471,2.4874,2.5278,2.5664,2.6086,2.6398,2.6591,2.6591,2.6591,0.0,2.6591,2.6591,2.6591,2.682,2.7224,2.7812,2.8138,2.8639,2.9272,2.9568,2.9627,2.9538,2.9656,2.9597,2.9509,2.9804,0.0,0.0,0.0,0.0,0.0,0.0,0.0,3.2843,3.2654,3.2758,3.2867,3.274,3.2549,3.2485,3.2835,3.3007,3.3197,3.3355,3.3386,3.3386,3.3386,3.3386,3.3386,3.3386,3.3386,3.3386,3.3386,3.3386,3.3386,3.3386,3.3386,3.3386,3.3386,3.3386,3.3386,3.3386,3.3386,3.3386,3.3386,3.3633,3.375,3.375,3.3804,3.3811,3.3831,3.2832,3.2095,3.1603,2.9211,2.7593,2.6793,2.5155,2.4198,2.3864,2.386,2.3364,2.2418,2.0734,1.9113,1.754,1.5964,1.4825,1.4034,1.3937,1.3495,1.2894,1.2976,1.2157,1.0629,0.0,0.0,0.0,0.0,0.0,0.0,0.0,0.0,0.0,0.0,0.0,0.0,0.0,2.4202,2.4202,0.0,0.0,0.0,2.4202,2.4202,2.4385,2.4783,2.5186,2.559,2.6002,2.6398,2.6591,2.6591,2.6591,0.0,0.0,0.0,0.0,2.6637,2.7022,2.7454,2.7915,2.8533,2.9087,2.9597,2.9863,2.9863,2.9656,0.0,0.0,0.0,2.9892,3.0097,3.024,3.109,0.0,0.0,0.0,0.0,3.2389,3.2389,3.2635,3.2804,3.2294,3.2358,3.2645,3.2931,3.3197,3.3386,3.3386,3.3386,3.3386,3.3386,3.3386,3.3386,3.3386,3.3386,3.3386,3.3386,3.3386,3.3386,3.3386,3.3386,3.3386,3.3386,3.3386,3.3386,3.3386,3.3386,3.3386,3.3386,3.3386,3.3386,3.3386,3.3386,3.3386,3.3386,3.3386,3.2829,3.1675,3.003,2.846,2.6937,2.5292,2.4122,2.3406,2.377,2.3011,2.1307,1.9283,1.7689,1.6362,1.4608,1.3904,1.3904,1.3904,1.3432,1.2804,1.2909,1.1516,0.9377,0.0,0.0,0.0,0.0,0.0,0.0,0.0,0.0,0.0,0.0,2.4202,2.4202,2.4202,2.4202,2.4202,2.4202,2.4202,2.4202,2.4202,0.0,0.0,2.4783,2.5186,2.559,2.6002,2.6398,2.6591,2.6591,0.0,0.0,0.0,0.0,0.0,2.6637,0.0,2.7538,2.82,2.8619,2.9223,2.9863,3.0216,3.0304,0.0,0.0,0.0,0.0,0.0,0.0,3.0879,3.1026,3.1277,0.0,0.0,0.0,3.2731,3.2731,3.2824,3.2943,3.3133,3.3228,3.3292,3.3323,3.3355,3.3386,3.3386,3.3386,3.3386,3.3386,3.3386,3.3386,3.3386,3.3386,3.3386,3.3386,3.3386,3.3386,3.3386,3.3386,3.3386,3.3386,3.3386,3.3386,3.3386,3.3386,3.3386,3.3386,3.3386,3.3386,3.3386,3.3386,3.3386,3.3386,3.3386,3.3323,3.3114,3.0516,2.8953,2.8378,2.5749,2.4122,2.3406,2.3789,2.3509,2.25,1.9657,1.8274,1.7854,1.5061,1.3904,1.3904,1.3904,1.3432,1.2789,1.2811,1.1431,0.9292,0.0,0.0,0.0,0.0,0.0,0.0,0.0,0.0,0.0,0.0,0.0,2.4202,2.4202,2.4202,2.4202,2.4202,2.4202,2.4202,2.4202,2.4397,2.4709,2.5113,2.5517,2.5921,2.6325,2.6527,2.6591,2.6591,0.0,0.0,0.0,2.6591,2.6591,0.0,0.0,0.0,0.0,2.9286,2.9898,3.0216,3.0557,0.0,0.0,0.0,0.0,0.0,0.0,0.0,0.0,0.0,3.1052,3.1207,3.1207,0.0,0.0,0.0,3.2817,3.3197,3.3355,3.326,3.3165,3.3355,3.3386,3.3386,3.3386,3.3386,3.3386,3.3386,3.3386,3.3386,3.3386,3.3386,3.3386,3.3386,3.3386,3.3386,3.3386,3.3386,3.3386,3.3386,3.3386,3.3386,3.3386,3.3386,3.3386,3.3386,3.3386,3.3386,3.3386,3.3386,3.3386,3.3386,3.3386,3.3019,3.2237,3.0225,2.8328,2.6653,2.5442,2.4544,2.402,2.3986,2.2675,2.0305,1.8973,1.7444,1.5797,1.4466,1.3904,1.3904,1.3904,1.3432,1.2789,1.2789,1.0812,0.8007,0.0,0.0,0.0,0.0,0.0,0.0,0.0,0.0,0.0,0.0,0.0,2.4202,2.4202,0.0,0.0,0.0,2.4202,2.4257,2.4349,2.4636,2.5021,2.5517,2.5829,2.6178,2.6573,2.6591,2.6591,0.0,0.0,0.0,2.6591,2.6673,2.6764,0.0,2.779,0.0,0.0,0.0,0.0,0.0,0.0,0.0,0.0,0.0,0.0,0.0,0.0,0.0,0.0,0.0,0.0,3.0898,3.0898,3.1514,0.0,0.0,0.0,3.3386,3.3386,3.3228,3.307,3.3323,3.3386,3.3386,3.3386,3.3386,3.3386,3.3386,3.3386,3.3386,3.3386,3.3386,3.3386,3.3386,3.3386,3.3386,3.3386,3.3386,3.3386,3.3386,3.3386,3.3386,3.3386,3.3386,3.3386,3.3386,3.3386,3.3386,3.3386,3.3386,3.3386,3.3386,3.3386,3.2734,3.1304,2.9542,2.7485,2.5086,2.5086,2.4883,2.4495,2.4156,2.1996,1.8519,1.8449,1.6916,1.443,1.4039,1.3904,1.3904,1.3904,1.3432,1.2753,1.2352,0.9992,0.6937,0.0,0.0,0.0,0.0,0.0,0.0,0.0,0.0,0.0,0.0,0.0,2.4202,2.4202,2.4202,2.4202,2.4202,2.4202,2.4367,2.4746,2.4801,2.515,2.5921,2.6002,0.0,2.6573,2.6591,0.0,0.0,0.0,0.0,2.6618,2.6854,2.7194,2.7567,2.8005,2.8757,2.9728,0.0,0.0,0.0,0.0,0.0,0.0,0.0,0.0,0.0,0.0,0.0,0.0,0.0,0.0,0.0,0.0,0.0,3.2198,0.0,0.0,0.0,3.3386,3.3386,3.3386,3.3386,3.3386,3.3386,3.3386,3.3386,3.3386,3.3386,3.3386,3.3386,3.3386,3.3386,3.3386,3.3386,3.3386,3.3386,3.3386,3.3386,3.3386,3.3386,3.3386,3.3386,3.3386,3.3386,3.3386,3.3386,3.3386,3.3386,3.3386,3.3386,3.3386,3.3386,3.3386,3.2734,3.1304,2.8575,2.6501,2.5086,2.5086,2.4883,2.4495,2.4156,2.2134,1.8857,1.8554,1.7479,1.5867,1.4466,1.3904,1.3904,1.3904,1.3432,1.261,1.1084,0.9033,0.6785,0.0,0.0,0.0,0.0,0.0,0.0,0.0,0.0,0.0,0.0,0.0,0.0,0.0,2.4202,2.4202,2.4202,2.4459,2.4654,2.4801,2.5278,2.5682,2.6002,2.6251,2.6472,2.6618,2.6591,0.0,0.0,0.0,2.6682,2.6872,2.6962,2.7563,2.8557,2.8728,2.9174,2.9853,3.0471,0.0,0.0,0.0,0.0,0.0,0.0,0.0,0.0,0.0,0.0,0.0,0.0,0.0,0.0,0.0,0.0,0.0,0.0,0.0,3.3386,3.3386,3.3386,3.3386,3.3386,3.3386,3.3386,3.3386,3.3386,3.3386,3.3386,3.3386,3.3386,3.3386,3.3386,3.3386,3.3386,3.3386,3.3386,3.3386,3.3386,3.3386,3.3386,3.3386,3.3386,3.3386,3.3386,3.3386,3.3386,3.3386,3.3386,3.3386,3.3386,3.3386,3.3386,3.2524,3.0936,2.8608,2.7602,2.6435,2.5086,2.5086,2.5018,2.4849,2.3495,2.1571,1.9206,1.7889,1.6317,1.4644,1.411,1.3904,1.3904,1.3904,1.3432,1.261,1.0982,0.8956,0.6777,0.0,0.0,0.0,0.0,0.0,2.4202,0.0,0.0,0.0,0.0,0.0,0.0,0.0,0.0,2.4257,2.4404,2.4654,2.4911,2.5186,2.57,2.6049,2.6196,2.6472,2.6591,2.6591,0.0,0.0,0.0,0.0,0.0,0.0,2.726,2.7959,2.9094,2.9206,2.9591,0.0,0.0,0.0,3.0898,0.0,0.0,3.0898,0.0,0.0,0.0,0.0,0.0,0.0,0.0,0.0,0.0,0.0,0.0,0.0,0.0,0.0,0.0,3.3386,0.0,0.0,3.3386,3.3386,3.3386,3.3386,3.3386,3.3386,3.3386,3.3386,3.3386,3.3386,3.3386,3.3386,3.3386,3.3386,3.3386,3.3386,3.3386,3.3386,3.3386,3.3386,3.3386,3.3386,3.3386,3.3386,3.3386,3.3386,3.3386,3.3386,3.3386,3.3386,3.3386,3.1579,2.9687,2.78,2.6886,2.5981,2.5086,2.5086,2.5086,2.5052,2.3174,2.1296,1.9403,1.7504,1.562,1.3904,1.3904,1.3904,1.3904,1.3753,1.3003,1.1778,1.0072,0.8054,0.6017,0.0,2.4202,2.4202,2.4202,2.4202,2.4202,2.4202,0.0,0.0,0.0,0.0,0.0,0.0,0.0,0.0,2.4764,2.4838,2.5168,2.5939,2.6021,2.6178,2.6573,2.6591,2.6591,2.6591,0.0,0.0,0.0,0.0,0.0,0.0,0.0,2.8342,2.9122,2.9478,3.0106,3.0898,0.0,3.0898,3.0898,0.0,3.0898,3.0898,0.0,0.0,0.0,3.0898,3.0898,0.0,3.0898,0.0,0.0,0.0,0.0,0.0,0.0,0.0,0.0,0.0,0.0,0.0,3.3386,3.3386,3.3386,3.3386,3.3386,3.3386,3.3386,3.3386,3.3386,3.3386,3.3386,3.3386,3.3386,3.3386,3.3386,3.3386,3.3386,3.3386,3.3386,3.3386,3.3386,3.3386,3.3386,3.3386,3.3386,3.3386,3.3386,3.3386,3.3355,3.3323,3.3292,3.0613,2.9149,2.9084,2.6468,2.5153,2.5086,2.5086,2.5086,2.4984,2.3072,2.1227,1.9333,1.7434,1.5584,1.3904,1.3904,1.3904,1.3868,1.3468,1.2094,1.0144,0.823,0.6319,0.4493,2.4251,2.4202,2.4202,2.4202,2.4202,2.4202,0.0,0.0,0.0,0.0,0.0,0.0,0.0,0.0,0.0,2.4801,2.5333,2.5756,2.6002,2.627,2.6463,2.6618,2.6591,2.6591,2.6591,0.0,0.0,0.0,0.0,0.0,0.0,0.0,0.0,0.0,2.9855,3.0351,3.0898,3.0898,0.0,3.0898,3.0898,3.0898,0.0,0.0,0.0,0.0,0.0,3.0898,3.0898,0.0,3.0898,3.0996,0.0,0.0,0.0,0.0,0.0,0.0,3.3386,0.0,0.0,0.0,0.0,0.0,3.3386,3.3386,3.3386,3.3386,3.3386,3.3386,3.3386,3.3386,3.3386,3.3386,3.3386,3.3386,3.3386,3.3386,3.3386,3.3386,3.3386,3.3386,3.3386,3.3386,3.3386,3.3386,3.3386,3.3386,3.3386,3.2428,3.1419,3.0387,2.9607,2.8246,2.6234,2.6435,2.6066,2.5086,2.5086,2.4529,2.3379,2.1502,1.9623,1.7819,1.5903,1.4644,1.3904,1.3904,1.3904,1.3868,1.3468,1.2094,1.0144,0.823,0.6319,0.4457,2.4251,2.4202,2.4202,2.4202,2.4202,2.4202,0.0,0.0,0.0,0.0,0.0,0.0,0.0,0.0,0.0,2.5278,2.5719,2.6068,2.6233,2.6472,2.6591,2.6591,2.6591,2.6591,0.0,0.0,0.0,0.0,0.0,0.0,0.0,0.0,0.0,0.0,3.0,3.0449,0.0,0.0,0.0,0.0,3.0898,0.0,0.0,3.0898,3.0898,0.0,0.0,0.0,3.0898,3.0898,3.0996,0.0,0.0,0.0,0.0,0.0,0.0,0.0,0.0,0.0,0.0,0.0,0.0,0.0,3.3386,3.3386,3.3386,3.3386,3.3386,3.3386,3.3386,3.3386,3.3386,3.3386,3.3386,3.3386,3.3386,3.3386,3.3386,3.3386,3.3386,3.3386,3.3386,3.3386,3.3386,3.3386,3.3386,3.3133,3.2556,3.1739,3.0646,2.9248,2.8625,2.7551,2.5947,2.6133,2.588,2.5086,2.5086,2.4292,2.2751,2.0847,1.8997,1.7188,1.5319,1.4261,1.3904,1.3904,1.3904,1.3797,1.2567,1.1012,0.9203,0.711,0.5217,0.3571,0.0,2.4202,2.4202,2.4202,2.4202,2.4202,0.0,0.0,0.0,0.0,0.0,0.0,0.0,0.0,0.0,0.0,2.6031,2.6215,2.6582,2.6591,0.0,0.0,0.0,0.0,0.0,0.0,0.0,0.0,0.0,0.0,0.0,0.0,0.0,0.0,3.0059,3.0508,3.0898,0.0,0.0,3.0898,3.0898,3.0898,0.0,0.0,3.0898,3.0898,3.0898,3.0898,3.0898,3.0937,3.125,0.0,0.0,0.0,0.0,0.0,3.3386,0.0,0.0,0.0,0.0,0.0,3.3386,0.0,3.3386,3.3386,3.3386,3.3386,3.3386,3.3386,3.3386,3.3386,3.3386,3.3386,3.3386,3.3386,3.3386,3.3386,3.3386,3.3386,3.3386,3.3386,3.3386,3.3386,3.3386,3.3386,3.3386,3.2797,3.1387,3.1162,3.0419,2.9018,2.7618,2.6886,2.6886,2.5712,2.5086,2.5086,2.4916,2.4006,2.2443,2.0571,1.8729,1.6881,1.5177,1.4225,1.3904,1.3718,1.3646,1.3432,1.1263,0.9347,0.7576,0.5489,0.3708,0.2344,2.4226,2.4202,2.4202,2.4202,2.4202,0.0,0.0,0.0,0.0,0.0,0.0,0.0,0.0,0.0,0.0,0.0,2.6288,2.6527,2.6591,0.0,0.0,0.0,0.0,0.0,0.0,0.0,0.0,0.0,0.0,0.0,0.0,0.0,0.0,0.0,3.0439,3.0801,3.0898,0.0,0.0,3.0898,3.0898,0.0,3.0898,3.0898,3.0898,3.0898,3.0898,3.0898,3.0937,3.1289,3.168,3.214,0.0,0.0,0.0,3.3367,0.0,0.0,0.0,0.0,0.0,0.0,0.0,0.0,3.3386,3.3386,3.3386,3.3386,3.3386,3.3386,3.3386,3.3386,3.3386,3.3386,3.3386,3.3386,3.3386,3.3386,3.3386,3.3386,3.3386,3.3386,3.3386,3.3386,3.3386,3.3386,3.3386,3.2797,3.1387,3.0225,2.8953,2.7535,2.62,2.5476,2.5476,2.5221,2.5086,2.5086,2.3836,2.2305,2.0501,1.8648,1.6811,1.4999,1.4332,1.3975,1.3789,1.2559,1.2051,1.1944,1.0832,0.8703,0.6105,0.5093,0.3708,0.2307,2.4202,2.4202,2.4202,2.4202,0.0,0.0,0.0,0.0,0.0,0.0,0.0,0.0,0.0,0.0,0.0,0.0,0.0,0.0,0.0,0.0,0.0,0.0,0.0,0.0,0.0,0.0,0.0,0.0,0.0,0.0,0.0,0.0,0.0,0.0,0.0,0.0,0.0,0.0,3.0898,3.0898,3.0898,0.0,3.0918,3.1133,3.1211,3.123,3.1445,3.1553,3.1592,3.1777,3.2129,0.0,3.2734,3.3086,3.3386,0.0,3.3386,3.3386,0.0,0.0,0.0,3.3386,0.0,0.0,0.0,3.3386,3.3386,3.3386,3.323,3.3105,3.3105,3.3105,3.3105,3.3105,3.3281,3.3386,3.3386,3.3386,3.3386,3.3386,3.3386,3.3386,3.3386,3.3386,3.3386,3.3386,3.2765,3.1758,3.0322,2.892,2.7518,2.6133,2.5442,2.5086,2.5086,2.5086,2.5086,2.5086,2.3379,2.164,1.9947,1.7924,1.6079,1.4474,1.4082,1.3468,1.2702,1.1908,1.0575,0.8956,0.8343,0.7042,0.5344,0.4003,0.2913,0.2027,2.4202,2.4202,2.4202,2.4202,0.0,0.0,0.0,0.0,0.0,0.0,0.0,0.0,0.0,0.0,0.0,0.0,0.0,0.0,0.0,0.0,0.0,0.0,0.0,2.7503,0.0,0.0,0.0,0.0,0.0,0.0,0.0,0.0,0.0,0.0,0.0,0.0,0.0,0.0,0.0,3.0898,0.0,3.1016,3.1055,3.1484,3.1641,3.168,3.2081,3.2198,3.2218,3.2296,3.2519,3.2812,3.2891,3.3144,0.0,0.0,0.0,0.0,0.0,0.0,0.0,0.0,0.0,3.3386,0.0,0.0,0.0,3.3386,3.3086,3.2793,3.2793,3.2734,3.2637,3.2559,3.291,3.3144,3.3066,3.3094,3.3242,3.3367,3.3386,3.3386,3.3386,3.3386,3.3292,3.3019,3.1931,3.0563,2.8887,2.7717,2.6501,2.5153,2.5086,2.5086,2.5086,2.5086,2.4916,2.4529,2.273,2.0985,1.9286,1.7233,1.5593,1.4332,1.3718,1.2745,1.155,1.0976,0.8956,0.625,0.5927,0.538,0.4548,0.2922,0.2116,0.1742,2.4202,2.4202,2.4202,2.4202,0.0,0.0,0.0,0.0,0.0,0.0,0.0,0.0,0.0,0.0,0.0,0.0,0.0,0.0,2.6989,0.0,0.0,0.0,0.0,0.0,2.7853,0.0,0.0,0.0,0.0,0.0,0.0,0.0,0.0,0.0,3.0684,0.0,0.0,0.0,3.0898,0.0,3.1289,3.1416,0.0,3.1934,3.212,3.214,3.2179,3.2198,3.2257,0.0,3.2754,3.2851,0.0,3.3347,3.3386,3.3386,0.0,0.0,0.0,0.0,0.0,0.0,3.3386,0.0,3.3386,0.0,3.3386,3.3386,0.0,3.2793,3.2793,0.0,0.0,3.1719,3.2031,3.2168,3.1767,3.207,3.2598,3.334,3.3386,3.3386,3.3386,3.3386,3.2892,3.1643,3.1387,3.0142,2.7485,2.7186,2.6501,2.5153,2.5086,2.5086,2.5086,2.5086,2.4258,2.2593,2.102,1.9147,1.7022,1.5452,1.4474,1.3904,1.2452,1.1765,1.1406,0.8636,0.6869,0.5855,0.5818,0.4729,0.3101,0.2584,0.2132,0.1744,2.4202,2.4202,2.4202,2.4202,0.0,0.0,0.0,0.0,0.0,0.0,0.0,0.0,0.0,0.0,0.0,0.0,0.0,2.6954,0.0,0.0,0.0,0.0,0.0,0.0,0.0,0.0,0.0,0.0,2.8801,0.0,0.0,0.0,0.0,0.0,3.0801,0.0,3.0918,0.0,3.125,0.0,3.1992,3.2266,3.2285,3.2461,3.2676,3.2891,3.2891,3.2891,3.293,3.3105,3.3164,0.0,0.0,0.0,0.0,3.3386,0.0,0.0,0.0,0.0,0.0,0.0,0.0,0.0,3.3386,0.0,3.3328,3.3105,0.0,0.0,0.0,0.0,0.0,0.0,3.1875,3.214,3.1914,3.2081,3.2335,3.2656,3.291,3.3144,3.3367,3.3386,3.2829,3.1419,3.0549,2.9215,2.7219,2.6368,2.5678,2.5119,2.5086,2.5086,2.5086,2.402,2.3072,2.2271,1.946,1.7609,1.6635,1.4928,1.3575,1.2523,1.1872,1.0575,0.8817,0.73,0.5782,0.4444,0.4223,0.3462,0.2556,0.2441,0.1985,0.1441,2.4342,0.0,0.0,0.0,0.0,0.0,0.0,0.0,0.0,0.0,0.0,0.0,2.6682,2.6709,0.0,0.0,2.6935,2.7152,0.0,0.0,2.7906,0.0,0.0,0.0,0.0,0.0,0.0,0.0,0.0,0.0,0.0,0.0,0.0,0.0,0.0,3.0898,3.0918,0.0,3.1494,3.1601,3.2461,3.2871,3.2969,3.2969,3.3164,3.3386,3.3386,3.3386,3.3386,3.3386,3.3386,3.3386,3.3386,3.3386,3.3386,0.0,0.0,0.0,3.3386,0.0,0.0,0.0,0.0,0.0,0.0,0.0,0.0,3.2871,3.2492,0.0,0.0,0.0,0.0,0.0,0.0,3.1807,3.167,3.1768,3.1944,3.2179,3.2472,3.2734,3.3047,3.3086,3.2383,3.0691,2.9595,2.8327,2.6653,2.5611,2.5086,2.5086,2.5086,2.5052,2.495,2.3174,2.1996,2.133,1.8205,1.6423,1.5903,1.4537,1.3067,1.1586,1.1155,0.9466,0.6942,0.6108,0.4878,0.3464,0.3063,0.266,0.23,0.2265,0.1502,0.0493,2.4783,2.4783,0.0,0.0,0.0,0.0,0.0,0.0,0.0,0.0,0.0,0.0,0.0,0.0,0.0,0.0,0.0,2.726,2.7853,0.0,2.7664,0.0,0.0,2.8476,0.0,0.0,0.0,0.0,0.0,0.0,0.0,0.0,0.0,0.0,3.0898,3.0898,3.0918,3.1348,3.1494,3.1601,3.2461,3.3047,3.3367,3.3367,3.3386,3.3386,3.3386,3.3386,3.3386,3.3386,3.3386,3.3386,3.3386,3.3386,3.3386,3.3386,3.3386,0.0,3.3386,3.3386,3.3386,3.3386,3.3386,3.3386,3.3386,3.3386,3.3301,3.2871,3.2492,3.2061,0.0,0.0,0.0,0.0,0.0,0.0,0.0,3.0644,3.123,3.2101,3.2218,3.2218,3.2237,3.2237,3.125,2.8872,2.865,2.7621,2.5307,2.5119,2.5086,2.5086,2.5086,2.4916,2.4529,2.3038,2.1192,1.8997,1.7434,1.5761,1.4003,1.394,1.3067,1.1514,1.0006,0.8461,0.6869,0.495,0.3898,0.3464,0.3063,0.266,0.2266,0.195,0.0529,-0.129,2.5205,0.0,0.0,0.0,0.0,0.0,0.0,2.6499,0.0,0.0,2.6591,0.0,0.0,2.7124,2.729,0.0,0.0,2.7977,2.8403,2.8505,0.0,0.0,0.0,2.9227,0.0,0.0,0.0,0.0,0.0,0.0,0.0,0.0,0.0,0.0,0.0,3.1055,3.1328,3.1758,3.2109,3.2402,3.2988,3.3269,3.3386,3.3386,3.3386,3.3386,3.3386,3.3386,3.3386,3.3386,3.3386,3.3386,3.3386,3.3386,3.3386,3.3386,3.3386,3.3386,3.3386,3.3386,3.3386,3.3386,3.3386,3.3386,3.3386,3.3386,3.3223,3.255,3.2296,3.1983,0.0,0.0,0.0,0.0,0.0,0.0,0.0,3.0801,3.0996,3.1289,3.1562,3.1855,3.2179,3.1195,2.9826,2.8067,2.6969,2.5773,2.4515,2.4429,2.453,2.4699,2.4713,2.4544,2.4156,2.1433,1.9658,1.8857,1.6141,1.4493,1.386,1.2853,1.155,1.0006,0.8456,0.6906,0.5389,0.4189,0.3609,0.3427,0.2771,0.1786,0.0731,0.03,-0.0454,-0.1706,2.5609,2.5939,0.0,0.0,0.0,0.0,0.0,0.0,0.0,0.0,2.6949,0.0,2.753,0.0,2.7884,0.0,2.8418,2.8644,2.901,2.9066,0.0,2.9598,2.9598,0.0,0.0,0.0,0.0,0.0,0.0,3.0586,3.0898,3.0898,0.0,0.0,0.0,3.1269,3.1533,3.2148,3.2559,3.2832,3.3242,3.3386,3.3386,3.3386,3.3386,3.3386,3.3386,3.3386,3.3386,3.3386,3.3386,3.3386,3.3386,3.3386,3.3386,3.3386,3.3386,3.3386,3.3386,3.3386,3.3386,3.3386,3.3386,3.3386,3.3386,3.3386,3.3191,3.257,3.2296,3.1983,3.125,0.0,0.0,0.0,0.0,0.0,0.0,3.0898,3.0898,3.0898,3.1133,3.1377,3.153,3.0558,2.9195,2.7349,2.6246,2.5111,2.3818,2.3733,2.3876,2.4155,2.4121,2.3772,2.3017,2.0282,1.8543,1.7889,1.5195,1.3904,1.3868,1.2309,1.076,0.9219,0.7666,0.6039,0.4447,0.3755,0.3427,0.3172,0.1968,0.0767,-0.0331,-0.075,-0.2012,-0.3986,2.6013,2.6343,2.649,2.6104,2.6361,2.6618,2.6637,2.6967,2.7206,0.0,2.7555,2.7907,2.82,2.8493,2.8823,2.9095,2.9152,2.9312,2.9601,2.9368,0.0,0.0,2.9657,2.9852,3.0215,0.0,0.0,0.0,0.0,0.0,3.0898,3.0898,3.0898,3.0937,3.1348,3.1513,3.1641,3.2441,3.2812,3.2871,3.3262,3.3386,3.3386,3.3386,3.3386,3.3386,3.3386,3.3386,3.3386,3.3386,3.3386,3.3386,3.3386,3.3386,3.3386,3.3386,3.3386,3.3386,3.3386,3.3386,3.3386,3.3386,3.3386,3.3386,3.3386,3.3386,3.3301,3.2871,3.2511,3.2101,3.1601,0.0,0.0,0.0,0.0,0.0,0.0,0.0,3.0898,3.0898,3.0898,3.0762,3.0421,3.0255,2.9115,2.6637,2.6312,2.5297,2.3163,2.3047,2.3154,2.3429,2.3376,2.264,2.1158,1.9553,1.7889,1.6079,1.4608,1.3868,1.3718,1.2201,1.0653,0.9111,0.7557,0.5818,0.408,0.3682,0.3245,0.2697,0.0729,-0.0477,-0.1152,-0.1468,-0.4144,-0.7868,2.6453,2.6545,2.6646,2.6857,2.6747,2.671,2.7004,2.7132,2.7316,0.0,2.7738,2.8018,2.8572,2.8724,2.9028,2.9639,2.992,0.0,0.0,0.0,0.0,3.0547,3.0576,3.0605,3.0703,3.0703,3.0762,3.0898,0.0,0.0,3.0898,3.0898,3.1055,3.1367,3.1435,3.1875,3.248,3.2695,3.2969,3.3262,3.3347,3.3386,3.3386,3.3386,3.3386,3.3386,3.3386,3.3386,3.3386,3.3386,3.3386,3.3386,3.3386,3.3386,3.3386,3.3386,3.3386,3.3386,3.3386,3.3386,3.3386,3.3386,3.3386,3.3386,3.3386,3.3386,3.3301,3.2871,3.2715,3.2402,3.163,3.1426,0.0,0.0,0.0,0.0,0.0,0.0,3.0791,3.0538,3.0538,3.048,3.0421,2.8188,2.6476,2.5796,2.3725,2.2451,2.2355,2.2369,2.2475,2.2745,2.1883,2.1116,2.0476,1.806,1.6574,1.6079,1.4608,1.3289,1.213,1.0581,0.9033,0.7521,0.5967,0.4844,0.408,0.3682,0.3245,0.266,0.0437,-0.2432,-0.5262,-0.5404,-0.7103,-0.9431,2.6839,2.7004,2.7206,2.7426,2.7279,2.7206,2.7426,2.761,2.784,2.8204,2.8302,2.8534,2.9048,2.9212,2.9452,2.9873,3.0333,0.0,3.0616,0.0,0.0,3.0898,3.0898,3.0898,3.0898,3.0898,0.0,3.0898,0.0,0.0,3.1172,3.1172,3.1387,3.1816,3.1992,3.2344,3.2812,3.2988,3.3203,3.3386,3.3386,3.3386,0.0,3.3386,3.3386,3.3386,3.3386,3.3386,3.3386,3.3386,3.3386,3.3386,3.3386,3.3386,3.3386,3.3386,3.3386,3.3386,3.3386,3.3386,3.3386,3.3386,3.3386,3.3386,3.3386,3.3386,3.3359,3.3125,3.293,3.2656,3.2168,3.1777,0.0,0.0,0.0,0.0,0.0,0.0,3.0762,3.045,3.0274,3.0157,3.0039,2.7799,2.6078,2.5377,2.3232,2.189,2.1669,2.1669,2.1818,2.2117,2.0836,1.9855,1.9198,1.7101,1.5713,1.5132,1.3603,1.2452,1.1514,0.9321,0.781,0.6906,0.5168,0.4226,0.3791,0.3391,0.2588,0.1313,-0.1841,-0.4992,-0.7825,-0.8157,-0.8987,-1.0019,2.7224,2.7555,2.7812,2.7867,2.7885,2.7903,2.794,2.8215,2.8494,2.8793,2.9017,2.9275,2.9613,2.9936,3.0151,3.0211,3.0731,3.1055,3.1055,3.1055,3.1055,3.1055,3.1055,3.1055,3.1055,3.1055,3.1055,0.0,0.0,0.0,3.1601,3.1601,3.1836,3.2296,3.2637,3.2832,3.291,3.323,3.3386,3.3386,3.3386,3.3386,3.3386,3.3386,3.3386,3.3386,3.3386,3.3386,3.3386,3.3386,3.3386,3.3386,3.3386,3.3386,3.3386,3.3386,3.3386,3.3386,3.3386,3.3386,3.3386,3.3386,3.3386,3.3386,3.3386,3.3386,3.3386,3.3386,3.3125,3.2851,3.2812,3.209,3.1387,0.0,0.0,0.0,0.0,0.0,0.0,0.0,3.0069,0.0,2.9479,2.8056,2.6611,2.5194,2.3698,2.2341,2.1172,2.1109,2.1166,2.1258,1.9911,1.8671,1.756,1.6269,1.5043,1.3868,1.2345,1.1478,1.1191,0.8312,0.6906,0.6616,0.4841,0.3862,0.3464,0.3063,0.1566,-0.0839,-0.4745,-0.7469,-0.9236,-0.9855,-1.0097,-1.0136,2.7683,2.7738,2.7903,2.8252,2.8278,2.8417,2.8748,2.8553,2.8546,2.8917,2.9531,3.0032,3.0373,3.0997,3.148,3.1752,3.1903,3.1964,3.1964,3.1964,3.1964,3.1964,3.1964,3.1964,3.1964,3.1964,3.1964,0.0,0.0,0.0,0.0,3.2081,3.2316,3.2695,3.2754,3.2988,3.3289,3.3367,3.3386,3.3386,3.3386,3.3386,3.3386,3.3386,3.3386,3.3386,3.3386,3.3386,3.3386,3.3386,3.3386,3.3386,3.3386,3.3386,3.3386,3.3386,3.3386,3.3386,3.3386,3.3386,3.3386,3.3386,3.3386,3.3386,3.3386,3.3386,3.3386,3.3386,3.3328,3.3203,3.2851,3.209,3.1387,3.0957,3.0898,3.0898,3.0898,0.0,0.0,0.0,2.9922,2.9686,2.9124,2.6853,2.5331,2.5025,2.281,2.1362,2.1109,2.1109,2.0583,1.9493,1.8241,1.7032,1.5846,1.4631,1.3972,1.3868,1.2345,1.094,0.9651,0.781,0.6293,0.5062,0.4408,0.3862,0.3464,0.3063,0.0619,-0.3132,-0.5714,-0.7887,-0.9661,-1.0279,-1.0486,-1.0486,2.8124,2.8289,0.0,2.8693,2.8865,2.9097,2.9299,2.9455,2.9654,2.9815,3.0169,3.0614,3.113,3.1504,3.1742,3.1924,3.2107,3.2198,3.2198,3.2198,3.2198,3.2198,3.2198,3.2198,3.2198,3.2198,3.2198,3.2198,3.2198,0.0,0.0,0.0,3.2715,3.3125,3.3125,3.3242,3.3386,3.3386,3.3386,3.3386,3.3386,3.3386,3.3386,3.3386,3.3386,3.3386,3.3386,3.3386,3.3386,3.3386,3.3386,3.3386,3.3386,3.3386,3.3386,3.3386,3.3386,3.3386,3.3386,3.3386,3.3386,3.3386,3.3386,3.3386,3.3386,3.3386,3.3386,3.3386,3.3386,3.3301,3.2871,3.2285,3.1719,3.1289,3.1035,3.0898,3.0898,3.0898,3.0704,0.0,0.0,0.0,2.8313,2.6277,2.4994,2.4994,2.2591,2.1109,2.1109,2.1109,2.0462,1.9036,1.7769,1.6565,1.5415,1.4139,1.3243,1.2702,1.1155,0.961,0.8063,0.6511,0.5389,0.4665,0.4046,0.3682,0.3318,0.0873,-0.1926,-0.4917,-0.7133,-0.883,-1.0075,-1.0433,-1.0874,-1.1262,2.8517,2.8847,2.9133,2.9133,2.9464,2.9739,2.9739,3.0365,3.0784,3.0645,3.0875,3.1243,3.1784,3.1954,3.2073,3.2073,3.2319,3.2472,3.2472,3.2472,3.2472,3.2472,3.2472,3.2472,3.2472,3.2472,3.2472,3.2472,3.2472,3.2559,3.2793,0.0,0.0,3.3386,3.3386,3.3386,3.3386,3.3386,3.3386,3.3386,3.3386,3.3386,3.3386,3.3386,3.3386,3.3386,3.3386,3.3386,3.3386,3.3386,3.3386,3.3386,3.3386,3.3386,3.3386,3.3386,3.3386,3.3386,3.3386,3.3386,3.3386,3.3386,3.3386,3.3386,3.3386,3.3386,3.3386,3.3386,3.3386,3.3301,3.2871,3.2519,3.2159,3.1572,3.123,3.0996,3.0898,3.0898,3.0762,0.0,0.0,0.0,2.7667,2.5987,2.4902,2.4625,2.2435,2.1109,2.1109,2.1109,2.0335,1.862,1.756,1.6353,1.4982,1.3942,1.2808,1.1586,1.0042,0.8497,0.6942,0.5389,0.4665,0.4517,0.3828,0.3172,0.2295,-0.1817,-0.447,-0.6155,-0.8419,-0.9714,-1.0332,-1.0712,-1.1276,-1.1921,2.892,2.928,2.9556,2.9556,2.9874,3.0149,3.0149,3.0791,3.1121,3.0741,3.1537,3.2176,3.2238,3.2836,3.3238,3.3238,3.3269,3.3301,3.3301,3.3301,3.3301,3.3301,3.3301,3.3301,3.3301,3.3301,3.3301,3.3301,3.3301,3.3125,3.2793,0.0,3.3347,3.3386,3.3386,3.3386,3.3386,3.3386,3.3386,3.3386,3.3386,3.3386,3.3386,3.3386,3.3386,3.3386,3.3386,3.3386,3.3386,3.3386,3.3386,3.3386,3.3386,3.3386,3.3386,3.3386,3.3386,3.3386,3.3386,3.3386,3.3386,3.3386,3.3386,3.3386,3.3386,3.3386,3.3386,3.3386,3.3386,3.3301,3.2871,3.2754,3.2461,3.166,3.1484,3.1328,3.0937,3.0898,3.0762,3.045,0.0,0.0,2.7667,2.5987,2.4533,2.3356,2.1947,2.1109,2.1109,2.1109,1.9909,1.727,1.7077,1.5893,1.3608,1.3471,1.2808,1.1586,1.0042,0.8497,0.6942,0.5389,0.4517,0.4117,0.3682,0.2076,-0.0509,-0.4071,-0.5851,-0.6583,-0.904,-1.0125,-1.0396,-1.1264,-1.1741,-1.196,2.9709,2.9837,2.9947,2.9947,3.0463,3.0865,3.0865,3.1671,3.2194,3.2023,3.2377,3.2744,3.2944,3.3226,3.3386,3.3386,3.3386,3.3386,3.3386,3.3386,3.3386,3.3386,3.3386,3.3386,3.3386,3.3386,3.3386,3.3386,3.3386,3.3308,3.3184,3.3308,3.3386,3.3386,3.3386,3.3386,3.3386,3.3386,3.3386,3.3386,3.3386,3.3386,3.3386,3.3386,3.3386,3.3386,3.3386,3.3386,3.3386,3.3386,3.3386,3.3386,3.3386,3.3386,3.3386,3.3386,3.3386,3.3386,3.3386,3.3386,3.3386,3.3386,3.3386,3.3386,3.3386,3.3386,3.3386,3.3386,3.3386,3.3347,3.3203,3.2969,3.2598,3.2012,3.168,3.1367,3.0957,3.0898,3.0762,3.045,0.0,2.8938,2.6517,2.5499,2.4131,2.2059,2.1411,2.1109,2.1109,2.0303,1.8972,1.7077,1.6171,1.4978,1.3437,1.3402,1.232,1.0221,0.9579,0.7991,0.5604,0.4989,0.4337,0.3682,0.2331,0.0328,-0.2182,-0.4727,-0.658,-0.7933,-0.9505,-1.0336,-1.0733,-1.1435,-1.1958,-1.2269,3.0204,3.0389,3.0525,3.0525,3.1139,3.162,3.162,3.234,3.288,3.288,3.2994,3.3133,3.3355,3.3386,3.3386,3.3386,3.3386,3.3386,3.3386,3.3386,3.3386,3.3386,3.3386,3.3386,3.3386,3.3386,3.3386,3.3386,3.3386,3.3328,3.3211,3.3211,3.3301,3.3386,3.3386,3.3386,3.3386,3.3386,3.3386,3.3386,3.3386,3.3386,3.3386,3.3386,3.3386,3.3386,3.3386,3.3386,3.3386,3.3386,3.3386,3.3386,3.3386,3.3386,3.3386,3.3386,3.3386,3.3386,3.3386,3.3386,3.3386,3.3386,3.3386,3.3386,3.3386,3.3386,3.3386,3.3386,3.3386,3.3386,3.3386,3.3184,3.2832,3.2452,3.1992,3.1562,3.1133,3.0976,3.0762,3.045,3.0098,2.873,2.5788,2.5193,2.3915,2.1299,2.1109,2.1109,2.1109,1.975,1.8396,1.7044,1.5619,1.4425,1.3402,1.2956,1.158,0.9291,0.8858,0.7232,0.4701,0.4447,0.3973,0.3172,0.0655,-0.1454,-0.327,-0.567,-0.7598,-0.9132,-0.991,-1.0564,-1.1139,-1.1617,-1.2109,-1.2501,3.0204,3.0797,3.1308,3.1308,3.1916,3.239,3.239,3.2657,3.288,3.288,3.3197,3.3386,3.3386,3.3386,3.3386,3.3386,3.3386,3.3386,3.3386,3.3386,3.3386,3.3386,3.3386,3.3386,3.3386,3.3386,3.3386,3.3386,3.3386,3.3203,3.2793,3.2793,3.3027,3.3386,3.3386,3.3386,3.3386,3.3386,3.3386,3.3386,3.3386,3.3386,3.3386,3.3386,3.3386,3.3386,3.3386,3.3386,3.3386,3.3386,3.3386,3.3386,3.3386,3.3386,3.3386,3.3386,3.3386,3.3386,3.3386,3.3386,3.3386,3.3386,3.3386,3.3386,3.3386,3.3386,3.3386,3.3386,3.3386,3.3386,3.3386,3.3386,3.325,3.2851,3.2441,3.2042,3.1562,3.1152,3.0762,3.045,3.0098,2.873,2.5788,2.5193,2.3915,2.1299,2.1109,2.1109,2.1109,1.975,1.8396,1.7044,1.5619,1.4425,1.3402,1.1875,1.0525,0.9291,0.7774,0.6221,0.4665,0.3864,0.3281,0.2697,-0.1164,-0.3088,-0.3776,-0.7232,-0.9157,-0.9915,-1.0347,-1.0919,-1.1538,-1.1955,-1.2288,-1.2501,3.1043,3.1198,3.1367,3.1367,3.1944,3.239,3.239,3.288,3.3228,3.3228,3.3323,3.3386,3.3386,3.3386,3.3386,3.3386,3.3386,3.3386,3.3386,3.3386,3.3386,3.3386,3.3386,3.3386,3.3386,3.3386,3.3386,3.3386,3.3386,3.3328,3.3223,3.3223,3.3269,3.3386,3.3386,3.3386,3.3386,3.3386,3.3386,3.3386,3.3386,3.3386,3.3386,3.3386,3.3386,3.3386,3.3386,3.3386,3.3386,3.3386,3.3386,3.3386,3.3386,3.3386,3.3386,3.3386,3.3386,3.3386,3.3386,3.3386,3.3386,3.3386,3.3386,3.3386,3.3386,3.3386,3.3386,3.3386,3.3386,3.3386,3.3386,3.3386,3.3281,3.2871,3.2472,3.2042,3.1582,3.1152,3.0674,3.0128,2.9194,2.7697,2.5377,2.4271,2.2983,2.1235,2.1109,2.1109,2.1109,1.8908,1.7431,1.7012,1.4716,1.3436,1.3402,1.1875,1.049,0.9291,0.7738,0.6039,0.4262,0.3755,0.3281,0.2697,-0.12,-0.3125,-0.3776,-0.7268,-0.9157,-0.9951,-1.0347,-1.0913,-1.1538,-1.1948,-1.2288,-1.2501,3.141,3.1506,3.1653,3.1731,3.223,3.2645,3.2772,3.3133,3.3386,3.3386,3.3386,3.3386,3.3386,3.3386,3.3386,3.3386,3.3386,3.3386,3.3386,3.3386,3.3386,3.3386,3.3386,3.3386,3.3386,3.3386,3.3386,3.3386,3.3386,3.3386,3.3386,3.3386,3.3386,3.3386,3.3386,3.3386,3.3386,3.3386,3.3386,3.3386,3.3386,3.3386,3.3386,3.3386,3.3386,3.3386,3.3386,3.3386,3.3386,3.3386,3.3386,3.3386,3.3386,3.3386,3.3386,3.3386,3.3386,3.3386,3.3386,3.3386,3.3386,3.3386,3.3386,3.3386,3.3386,3.3386,3.3386,3.3386,3.3386,3.3386,3.3386,3.3386,3.3308,3.3066,3.257,3.2101,3.1797,3.1161,3.0528,2.9951,2.8671,2.7065,2.5178,2.3853,2.2546,2.1204,2.1109,2.1109,2.1109,1.8492,1.7012,1.7012,1.4259,1.2977,1.3402,1.1317,0.9923,0.9291,0.7159,0.535,0.3862,0.3609,0.3136,0.226,-0.149,-0.3342,-0.3993,-0.7666,-0.9518,-1.0167,-1.0534,-1.107,-1.1645,-1.1966,-1.2254,-1.2427,3.1442,3.1685,3.2025,3.2326,3.2676,3.3026,3.3323,3.3386,3.3386,3.3386,3.3386,3.3386,3.3386,3.3386,3.3386,3.3386,3.3386,3.3386,3.3386,3.3386,3.3386,3.3386,3.3386,3.3386,3.3386,3.3386,3.3386,3.3386,3.3386,3.3386,3.3386,3.3386,3.3386,3.3386,3.3386,3.3386,3.3386,3.3386,3.3386,3.3386,3.3386,3.3386,3.3386,3.3386,3.3386,3.3386,3.3386,3.3386,3.3386,3.3386,3.3386,3.3386,3.3386,3.3386,3.3386,3.3386,3.3386,3.3386,3.3386,3.3386,3.3386,3.3386,3.3386,3.3386,3.3386,3.3386,3.3386,3.3386,3.3386,3.3386,3.3386,3.3386,3.3386,3.3386,3.2734,3.2237,3.2198,3.1207,3.0294,2.9922,2.8403,2.6745,2.5148,2.376,2.2435,2.1204,2.1109,2.1046,2.0951,1.8428,1.7012,1.7012,1.4259,1.2977,1.3402,1.0345,0.8871,0.893,0.6039,0.4265,0.35,0.3464,0.2844,0.1603,-0.1961,-0.374,-0.4395,-0.8312,-1.0131,-1.0527,-1.0858,-1.1345,-1.1813,-1.2043,-1.2193,-1.2311,3.1717,3.1846,3.2025,3.2326,3.2676,3.2912,3.3026,3.3228,3.3386,3.3386,3.3386,3.3386,3.3386,3.3386,3.3386,3.3386,3.3386,3.3386,3.3386,3.3386,3.3386,3.3386,3.3386,3.3386,3.3386,3.3386,3.3386,3.3386,3.3386,3.3386,3.3386,3.3386,3.3386,3.3386,3.3386,3.3386,3.3386,3.3386,3.3386,3.3386,3.3386,3.3386,3.3386,3.3386,3.3386,3.3386,3.3386,3.3386,3.3386,3.3386,3.3386,3.3386,3.3386,3.3386,3.3386,3.3386,3.3386,3.3386,3.3386,3.3386,3.3386,3.3386,3.3386,3.3386,3.3386,3.3386,3.3386,3.3386,3.3386,3.3386,3.3386,3.3386,3.3386,3.3386,3.2988,3.257,3.2237,3.141,3.0619,2.9989,2.7559,2.5713,2.5056,2.2935,2.1443,2.1109,2.1109,2.0621,1.9559,1.7914,1.7012,1.7012,1.4259,1.2977,1.3402,1.0276,0.7746,0.5785,0.4735,0.3973,0.35,0.3172,0.2588,0.1603,-0.1961,-0.374,-0.4395,-0.8312,-1.0131,-1.0527,-1.0858,-1.1345,-1.1813,-1.2043,-1.2193,-1.2311,3.207,3.2134,3.223,3.2581,3.2804,3.2943,3.3102,3.3292,3.3386,3.3386,3.3386,3.3386,3.3386,3.3386,3.3386,3.3386,3.3386,3.3386,3.3386,3.3386,3.3386,3.3386,3.3386,3.3386,3.3386,3.3386,3.3386,3.3386,3.3386,3.3386,3.3386,3.3386,3.3386,3.3386,3.3386,3.3386,3.3386,3.3386,3.3386,3.3386,3.3386,3.3386,3.3386,3.3386,3.3386,3.3386,3.3386,3.3386,3.3386,3.3386,3.3386,3.3386,3.3386,3.3386,3.3386,3.3386,3.3386,3.3386,3.3386,3.3386,3.3386,3.3386,3.3386,3.3386,3.3386,3.3386,3.3386,3.3386,3.3386,3.3386,3.3386,3.3386,3.3386,3.3386,3.2941,3.2471,3.2226,3.1266,3.0197,2.9142,2.6806,2.4978,2.4224,2.2278,2.1109,2.1109,2.1109,2.0494,1.9068,1.7721,1.6721,1.6073,1.394,1.2977,1.3402,1.0471,0.7522,0.4701,0.4299,0.3898,0.3464,0.2881,0.2225,0.1312,-0.2217,-0.4105,-0.4902,-0.8641,-1.0383,-1.075,-1.1116,-1.145,-1.1762,-1.2201,-1.2414,-1.2519,3.2422,3.2485,3.2581,3.2931,3.2975,3.307,3.3355,3.3386,3.3386,3.3386,3.3386,3.3386,3.3386,3.3386,3.3386,3.3386,3.3386,3.3386,3.3386,3.3386,3.3386,3.3386,3.3197,3.3082,3.3082,3.3082,3.3197,3.3386,3.3386,3.3386,3.3386,3.3386,3.3386,3.3386,3.3386,3.3386,3.3386,3.3386,3.3386,3.3386,3.3386,3.3386,3.3386,3.3386,3.3386,3.3386,3.3386,3.3386,3.3386,3.3386,3.3386,3.3386,3.3386,3.3386,3.3386,3.3386,3.3386,3.3386,3.3386,3.3386,3.3386,3.3386,3.3386,3.3386,3.3386,3.3386,3.3386,3.3386,3.3386,3.3386,3.3386,3.3386,3.3386,3.3386,3.2874,3.2394,3.2155,3.107,2.967,2.8127,2.6186,2.4502,2.3232,2.1884,2.1109,2.1109,2.1109,2.0399,1.878,1.7625,1.6268,1.4618,1.345,1.2809,1.2746,1.0457,0.7738,0.4592,0.4189,0.3789,0.3391,0.2588,0.186,0.0985,-0.2545,-0.4504,-0.5485,-0.9038,-1.0714,-1.1044,-1.144,-1.1655,-1.1762,-1.2411,-1.271,-1.2812,3.2772,3.2835,3.2912,3.326,3.3323,3.3323,3.3386,3.3386,3.3386,3.3386,3.3386,3.3386,3.3386,3.3386,3.3386,3.3386,3.3386,3.3386,3.3386,3.3386,3.3386,3.3386,3.2269,3.1643,3.1643,3.1643,3.2205,3.3386,3.3386,3.3386,3.3386,3.3386,3.3386,3.3386,3.3386,3.3386,3.3386,3.3386,3.3386,3.3386,3.3386,3.3386,3.3386,3.3386,3.3386,3.3386,3.3386,3.3386,3.3386,3.3386,3.3386,3.3386,3.3386,3.3386,3.3386,3.3386,3.3386,3.3386,3.3386,3.3386,3.3386,3.3386,3.3386,3.3386,3.3386,3.3386,3.3386,3.3386,3.3386,3.3386,3.3386,3.3386,3.3386,3.3386,3.3296,3.2891,3.1918,3.1329,3.0167,2.7845,2.6048,2.4502,2.3232,2.1884,2.1109,2.1109,2.1109,1.9973,1.7464,1.7109,1.5814,1.3227,1.3078,1.1957,0.9707,0.9435,0.7589,0.4189,0.3791,0.3391,0.2953,0.2223,0.1641,0.0985,-0.2545,-0.4504,-0.5485,-0.9038,-1.0714,-1.1044,-1.144,-1.1799,-1.2144,-1.2357,-1.2727,-1.3133,3.3102,3.3165,3.3228,3.3355,3.3386,3.3386,3.3386,3.3386,3.3386,3.3386,3.3386,3.3386,3.3386,3.3386,3.3386,3.3386,3.3386,3.3386,3.3386,3.2702,3.2269,3.2269,3.0936,3.0516,3.129,3.1322,3.1995,3.3386,3.3386,3.3386,3.3386,3.3386,3.3386,3.3386,3.3386,3.3386,3.3386,3.3386,3.3386,3.3386,3.3386,3.3386,3.3386,3.3386,3.3386,3.3386,3.3386,3.3386,3.3386,3.3386,3.3386,3.3386,3.3386,3.3386,3.3386,3.3386,3.3386,3.3386,3.3386,3.3386,3.3386,3.3386,3.3386,3.3386,3.3386,3.3386,3.3386,3.3386,3.3386,3.3386,3.3386,3.3386,3.3386,3.3386,3.3102,3.2592,3.1796,3.1098,2.961,2.677,2.556,2.4224,2.2215,2.1443,2.1109,2.1109,2.0399,1.91,1.7109,1.6268,1.4945,1.2865,1.2285,1.1041,0.903,0.8366,0.6725,0.408,0.3682,0.3281,0.2881,0.1896,0.1386,0.0985,-0.2981,-0.5014,-0.5812,-0.9327,-1.1002,-1.1332,-1.1548,-1.1835,-1.2251,-1.2583,-1.3103,-1.361,3.3355,3.3386,3.3386,3.3386,3.3386,3.3386,3.3386,3.3386,3.3292,3.2956,3.3197,3.3292,3.2956,3.2924,3.2924,3.2924,3.2607,3.2575,3.2892,3.1579,3.1097,3.1771,3.0127,2.9705,3.0807,3.0807,3.1643,3.3386,3.3386,3.3386,3.3386,3.3386,3.3386,3.3386,3.3386,3.3386,3.3386,3.3386,3.3386,3.3386,3.3386,3.3386,3.3386,3.3386,3.3386,3.3386,3.3386,3.3386,3.3386,3.3386,3.3386,3.3386,3.3386,3.3386,3.3386,3.3386,3.3386,3.3386,3.3386,3.3386,3.3386,3.3386,3.3386,3.3386,3.3386,3.3386,3.3386,3.3386,3.3386,3.3386,3.3386,3.3386,3.3386,3.3386,3.2975,3.2409,3.1807,3.0705,2.8875,2.5908,2.4964,2.3636,2.133,2.1109,2.1109,2.1109,1.9814,1.8428,1.7077,1.5651,1.4304,1.2995,1.1745,1.0461,0.9073,0.7589,0.5891,0.3971,0.3536,0.3099,0.2624,0.1641,0.1131,0.0839,-0.3383,-0.5413,-0.6062,-0.9549,-1.1296,-1.1727,-1.1727,-1.2015,-1.2496,-1.2938,-1.3477,-1.404,3.3386,3.3386,3.3386,3.3386,3.3386,3.3386,3.3386,3.3386,3.2924,3.1643,3.2607,3.2892,3.1611,3.1451,3.1451,3.1451,3.0257,3.0062,3.1387,3.016,3.0516,3.3133,3.0646,2.9248,2.9346,2.9346,3.0678,3.3386,3.3386,3.3386,3.3386,3.3386,3.3386,3.3386,3.3386,3.3386,3.3386,3.3386,3.3386,3.3386,3.3386,3.3386,3.3386,3.3386,3.3386,3.3386,3.3386,3.3386,3.3386,3.3386,3.3386,3.3386,3.3386,3.3386,3.3386,3.3386,3.3386,3.3386,3.3386,3.3386,3.3386,3.3386,3.3386,3.3386,3.3386,3.3386,3.3386,3.3386,3.3386,3.3386,3.3386,3.3386,3.3386,3.3386,3.3355,3.2978,3.1953,3.0338,2.8369,2.5955,2.4222,2.2671,2.1235,2.1109,2.1109,2.1109,1.9814,1.8428,1.7077,1.5651,1.4431,1.3388,1.1895,1.0512,0.9275,0.7404,0.5456,0.3536,0.3136,0.2588,0.1859,0.1422,0.0985,0.0438,-0.3492,-0.5413,-0.6062,-0.9549,-1.1476,-1.2158,-1.2158,-1.2581,-1.3218,-1.3269,-1.3732,-1.4358,3.211,3.2797,3.3386,3.3386,3.3386,3.3133,3.2237,3.211,3.1579,3.0192,3.1226,3.1547,3.016,3.0757,3.1322,3.1322,3.003,2.9802,3.1226,2.9997,2.928,2.9459,2.9313,2.9182,2.9182,3.0062,3.1451,3.3386,3.3386,3.3386,3.3386,3.3386,3.3386,3.3386,3.3386,3.3386,3.3386,3.3386,3.3386,3.3386,3.3386,3.3386,3.3386,3.3386,3.3386,3.3386,3.3386,3.3386,3.3386,3.3386,3.3386,3.3386,3.3386,3.3386,3.3386,3.3386,3.3386,3.3386,3.3386,3.3386,3.3386,3.3386,3.3386,3.3386,3.3386,3.3386,3.3386,3.3386,3.3386,3.3386,3.3386,3.3386,3.3386,3.3386,3.3228,3.2789,3.1928,3.0106,2.8105,2.5956,2.4174,2.2591,2.1235,2.1109,2.0748,1.9846,1.8524,1.7173,1.5781,1.4475,1.3284,1.2117,1.0366,0.9253,0.892,0.6286,0.4369,0.3136,0.299,0.2515,0.1786,0.1386,0.0839,0.0,-0.3889,-0.5812,-0.6427,-0.9945,-1.1691,-1.2194,-1.2194,-1.2653,-1.3289,-1.3289,-1.3761,-1.4395,3.0646,3.1771,3.2607,3.2142,3.2447,3.2269,3.0872,3.0646,3.0142,2.8723,2.977,3.0077,2.869,2.9785,3.0646,3.0646,2.9346,2.9346,3.1176,3.0807,2.9509,2.7219,2.8887,2.9639,2.9215,3.0581,3.1995,3.3386,3.3386,3.3386,3.3386,3.3386,3.3386,3.3386,3.3386,3.3386,3.3386,3.3386,3.3386,3.3386,3.3386,3.3386,3.3386,3.3386,3.3386,3.3386,3.3386,3.3386,3.3386,3.3386,3.3386,3.3386,3.3386,3.3386,3.3386,3.3386,3.3386,3.3386,3.3386,3.3386,3.3386,3.3386,3.3386,3.3386,3.3386,3.3386,3.3386,3.3386,3.3386,3.3386,3.3386,3.3386,3.3355,3.326,3.3038,3.2499,3.1323,2.9468,2.7457,2.5438,2.368,2.2234,2.1204,2.1109,2.0526,1.91,1.7753,1.6234,1.4448,1.3612,1.2559,1.1144,0.9417,0.8193,0.7616,0.502,0.3462,0.2881,0.266,0.2223,0.1604,0.1204,0.0584,-0.0401,-0.418,-0.6029,-0.6684,-1.0167,-1.1907,-1.2409,-1.2409,-1.2832,-1.3503,-1.3503,-1.387,-1.4395,2.9182,3.0322,3.0821,2.9444,3.0354,3.0807,2.9411,2.9182,2.869,2.7286,2.8295,2.8657,2.7253,2.8361,2.9182,2.9182,2.7899,2.8328,3.1111,3.2607,3.1515,2.7303,2.9817,3.0678,2.9248,3.0613,3.2014,3.3386,3.3386,3.3386,3.3386,3.3386,3.3386,3.3386,3.3386,3.3386,3.3386,3.3386,3.3386,3.3386,3.3386,3.3386,3.3386,3.3386,3.3386,3.3386,3.3386,3.3386,3.3386,3.3386,3.3386,3.3386,3.3386,3.3386,3.3386,3.3386,3.3386,3.3386,3.3386,3.3386,3.3386,3.3386,3.3386,3.3386,3.3386,3.3386,3.3386,3.3386,3.3386,3.3386,3.3386,3.3386,3.3292,3.2943,3.288,3.216,3.0095,2.8306,2.6421,2.4346,2.2619,2.1462,2.1136,2.1077,2.0494,1.91,1.7721,1.5849,1.3252,1.3271,1.2543,1.0751,0.9358,0.7544,0.5198,0.3678,0.2881,0.2881,0.215,0.1605,0.1204,0.0766,0.0146,-0.0802,-0.4288,-0.6029,-0.6684,-1.0167,-1.2079,-1.2789,-1.2789,-1.3253,-1.3904,-1.3904,-1.4123,-1.4395,2.7734,2.8854,2.9705,2.928,2.9542,2.9346,2.7932,2.7734,2.7253,2.588,2.6886,2.7585,2.7153,2.8361,2.9182,2.9182,2.8822,2.9346,3.1176,3.1675,3.1355,3.011,3.1803,3.211,3.0692,3.2046,3.2987,3.3386,3.3386,3.3386,3.3386,3.3386,3.3386,3.3386,3.3386,3.3386,3.3386,3.3386,3.3386,3.3386,3.3386,3.3386,3.3386,3.3386,3.3386,3.3386,3.3386,3.3386,3.3386,3.3386,3.3386,3.3386,3.3386,3.3386,3.3386,3.3386,3.3386,3.3386,3.3386,3.3386,3.3386,3.3386,3.3386,3.3386,3.3386,3.3386,3.3386,3.3386,3.3386,3.3386,3.3386,3.3386,3.3292,3.2943,3.2078,3.1047,2.9965,2.7442,2.5297,2.4248,2.2619,2.1462,2.1136,2.0208,1.9068,1.7689,1.5528,1.3855,1.293,1.2017,1.0693,0.8934,0.717,0.538,0.3605,0.3134,0.2771,0.2478,0.2005,0.1605,0.1204,0.0766,-0.0583,-0.2765,-0.4866,-0.6789,-0.86,-1.0707,-1.2079,-1.2789,-1.2789,-1.3253,-1.3904,-1.3904,-1.4123,-1.4395,2.6301,2.7419,2.8196,2.7684,2.8048,2.7949,2.6535,2.6301,2.5999,2.5221,2.5813,2.6501,2.7053,2.8361,2.9411,2.9997,3.0549,3.1001,3.129,3.1803,3.2142,3.2142,3.2956,3.2734,3.1322,3.2702,3.3386,3.3386,3.3386,3.3386,3.3386,3.3386,3.3386,3.3386,3.3386,3.3386,3.3386,3.3386,3.3386,3.3386,3.3386,3.3386,3.3386,3.3386,3.3386,3.3386,3.3386,3.3386,3.3386,3.3386,3.3386,3.3386,3.3386,3.3386,3.3386,3.3386,3.3386,3.3386,3.3386,3.3386,3.3386,3.3386,3.3386,3.3386,3.3386,3.3386,3.3386,3.3386,3.3386,3.3386,3.3386,3.3386,3.326,3.2804,3.1515,3.0157,2.8903,2.6616,2.465,2.3553,2.244,2.1636,2.1341,1.9908,1.8238,1.6424,1.4319,1.3036,1.2947,1.1524,0.9824,0.7941,0.6137,0.4366,0.266,0.2515,0.2333,0.2114,0.175,0.1349,0.0949,0.0547,-0.1056,-0.3599,-0.512,-0.7151,-0.9435,-1.0966,-1.2079,-1.2789,-1.2789,-1.3253,-1.3904,-1.3904,-1.4123,-1.4395,2.5086,2.6066,2.6535,2.5322,2.6148,2.6568,2.5288,2.5086,2.5086,2.5086,2.5086,2.5644,2.712,2.8427,2.977,3.1176,3.246,3.2734,3.1579,3.2702,3.3386,3.3386,3.3386,3.2797,3.1515,3.2734,3.3386,3.3386,3.3386,3.3386,3.3386,3.3386,3.3386,3.3386,3.3386,3.3386,3.3386,3.3386,3.3386,3.3386,3.3386,3.3386,3.3386,3.3386,3.3386,3.3386,3.3386,3.3386,3.3386,3.3386,3.3386,3.3386,3.3386,3.3386,3.3386,3.3386,3.3386,3.3386,3.3386,3.3386,3.3386,3.3386,3.3386,3.3386,3.3386,3.3386,3.3386,3.3386,3.3386,3.3386,3.3355,3.3355,3.307,3.2307,3.0987,2.9311,2.7205,2.57,2.4217,2.258,2.2178,2.1864,2.1447,1.9732,1.765,1.5224,1.3864,1.3048,1.285,1.134,0.948,0.7323,0.5739,0.4073,0.226,0.1968,0.1786,0.1786,0.1349,0.0949,0.0584,0.0,-0.153,-0.378,-0.5373,-0.7368,-0.9615,-1.1038,-1.2079,-1.2789,-1.2789,-1.3253,-1.3904,-1.3904,-1.4123,-1.4395,2.5086,2.5322,2.5457,2.5153,2.5356,2.5457,2.5153,2.5086,2.5086,2.5086,2.5086,2.6048,2.846,2.9018,2.977,3.1176,3.1579,3.211,3.2892,3.3228,3.3386,3.3386,3.3386,3.326,3.2956,3.326,3.3386,3.3386,3.3386,3.3386,3.3386,3.3386,3.3386,3.3386,3.3386,3.3386,3.3386,3.3386,3.3386,3.3386,3.3386,3.3386,3.3386,3.3386,3.3386,3.3386,3.3386,3.3386,3.3386,3.3386,3.3386,3.3386,3.3386,3.3386,3.3386,3.3386,3.3386,3.3386,3.3386,3.3386,3.3386,3.3386,3.3386,3.3386,3.3386,3.3386,3.3386,3.3386,3.3386,3.3323,3.3058,3.3007,3.2435,3.0664,2.9132,2.7552,2.57,2.4229,2.3113,2.2492,2.2365,2.168,2.0115,1.7566,1.54,1.39,1.3614,1.2711,1.0905,0.9467,0.763,0.538,0.3748,0.2586,0.1932,0.1822,0.1786,0.1786,0.1058,0.0693,0.0547,-0.1384,-0.3381,-0.541,-0.7255,-0.9213,-1.1145,-1.1476,-1.2079,-1.2789,-1.2789,-1.3253,-1.3904,-1.3904,-1.4123,-1.4435,2.5086,2.5086,2.5086,2.5086,2.5086,2.5086,2.5086,2.5086,2.5086,2.5086,2.5086,2.588,2.7965,2.8196,2.9051,3.1111,3.1899,3.2587,3.3355,3.3386,3.3386,3.3386,3.3386,3.3386,3.3386,3.3386,3.3386,3.3386,3.3386,3.3386,3.3386,3.3386,3.3386,3.3386,3.3386,3.3386,3.3386,3.3386,3.3386,3.3386,3.3386,3.3386,3.3386,3.3386,3.3386,3.3386,3.3386,3.3386,3.3386,3.3386,3.3386,3.3386,3.3386,3.3386,3.3386,3.3386,3.3386,3.3386,3.3386,3.3386,3.3386,3.3386,3.3386,3.3386,3.3386,3.3386,3.3386,3.3386,3.3386,3.3292,3.2943,3.288,3.2224,3.0127,2.8542,2.6988,2.5244,2.3802,2.284,2.2645,2.1891,2.0343,1.7795,1.6195,1.4774,1.3586,1.3413,1.2466,1.0398,0.8699,0.6857,0.4766,0.3132,0.215,0.1786,0.1604,0.1422,0.124,0.0802,0.0109,-0.0838,-0.2254,-0.4358,-0.697,-0.8162,-0.9795,-1.1584,-1.1584,-1.2079,-1.2789,-1.2789,-1.3253,-1.3904,-1.3904,-1.4123,-1.4444,2.5086,2.5086,2.5086,2.5086,2.5086,2.5086,2.5086,2.5086,2.5086,2.5086,2.5086,2.5611,2.6953,2.7535,2.8838,3.1419,3.2734,3.3386,3.3386,3.3386,3.3386,3.3386,3.3386,3.3386,3.3386,3.3386,3.3386,3.3386,3.3386,3.3386,3.3386,3.3386,3.3386,3.3386,3.3386,3.3386,3.3386,3.3386,3.3386,3.3386,3.3386,3.3386,3.3386,3.3386,3.3386,3.3386,3.3386,3.3386,3.3386,3.3386,3.3386,3.3386,3.3386,3.3386,3.3386,3.3386,3.3386,3.3386,3.3386,3.3386,3.3386,3.3386,3.3386,3.3386,3.3386,3.3386,3.3386,3.3386,3.3355,3.3197,3.288,3.2562,3.1694,2.9672,2.8114,2.6555,2.4873,2.3631,2.2791,2.2551,2.0708,1.8425,1.5777,1.5261,1.4647,1.3633,1.3052,1.1896,0.9994,0.8121,0.6246,0.4366,0.295,0.2041,0.1713,0.1313,0.0766,0.0109,0.0109,-0.0765,-0.2438,-0.3381,-0.5407,-0.8234,-0.892,-1.0119,-1.1584,-1.1584,-1.2079,-1.2789,-1.2789,-1.3253,-1.3904,-1.3969,-1.4144,-1.4444,2.5086,2.5086,2.5086,2.5086,2.5086,2.5086,2.5086,2.5086,2.5086,2.5086,2.5086,2.5611,2.7035,2.9296,3.1387,3.2987,3.3292,3.3386,3.3386,3.3386,3.3386,3.3386,3.3386,3.3386,3.3386,3.3386,3.3386,3.3386,3.3386,3.3386,3.3386,3.3386,3.3386,3.3386,3.3386,3.3386,3.3386,3.3386,3.3386,3.3386,3.3386,3.3386,3.3386,3.3386,3.3386,3.3386,3.3386,3.3386,3.3386,3.3386,3.3386,3.3386,3.3386,3.3386,3.3386,3.3386,3.3386,3.3386,3.3386,3.3386,3.3386,3.3386,3.3386,3.3386,3.3386,3.3386,3.3386,3.3386,3.3165,3.2867,3.2549,3.123,2.9607,2.7768,2.6288,2.4839,2.3406,2.303,2.2413,2.1079,1.8278,1.6347,1.6056,1.4701,1.3712,1.3385,1.2066,1.0305,0.8013,0.6387,0.4618,0.2697,0.215,0.1677,0.1277,0.0876,-0.0182,-0.1893,-0.1893,-0.2219,-0.2909,-0.5989,-0.7837,-0.8703,-1.0449,-1.1361,-1.1584,-1.1584,-1.2079,-1.2789,-1.2789,-1.3253,-1.3937,-1.4245,-1.4354,-1.4444,2.5086,2.5086,2.5086,2.5086,2.5086,2.5086,2.5086,2.5086,2.5086,2.5086,2.5086,2.5611,2.6986,2.9622,3.1547,3.2174,3.2956,3.3386,3.3386,3.3386,3.3386,3.3386,3.3386,3.3386,3.3386,3.3386,3.3386,3.3386,3.3386,3.3386,3.3386,3.3386,3.3386,3.3386,3.3386,3.3386,3.3386,3.3386,3.3386,3.3386,3.3386,3.3386,3.3386,3.3386,3.3386,3.3386,3.3386,3.3386,3.3386,3.3386,3.3386,3.3386,3.3386,3.3386,3.3386,3.3386,3.3386,3.3386,3.3386,3.3386,3.3386,3.3386,3.326,3.3165,3.3355,3.3102,3.288,3.307,3.3007,3.2498,3.1198,3.034,2.8953,2.6355,2.5398,2.4501,2.3099,2.2893,2.2022,1.9646,1.7387,1.5704,1.4946,1.4,1.3389,1.3317,1.1485,0.9532,0.7616,0.5848,0.4039,0.2078,0.1895,0.1494,0.0876,0.0693,-0.0365,-0.233,-0.3201,-0.4291,-0.5594,-0.7331,-0.8781,-1.0053,-1.1145,-1.1584,-1.1584,-1.1584,-1.2079,-1.2789,-1.2789,-1.3315,-1.4083,-1.4335,-1.446,-1.4627]},{"header":{"parameterUnit":"m.s-1","parameterCategory":1,"la1":30.6,"la2":28.766,"lo1":-90.7593,"lo2":-88.6598,"dy":0.0162,"dx":0.0183,"nx":116,"ny":114,"refTime":"2024-02-25T18:00:00:Z","depth":0,"parameterNumber":3,"parameterNumberName":"V-component_of_WINDS"},"data":[0.0,0.0,0.0,0.0,0.0,0.0,0.0,0.0,0.0,0.0,0.0,0.0,0.0,0.0,0.0,0.0,0.0,0.0,0.0,0.0,0.0,0.0,0.0,0.0,0.0,0.0,0.0,0.0,0.0,0.0,0.0,0.0,0.0,0.0,0.0,0.0,0.0,0.0,0.0,0.0,0.0,0.0,0.0,0.0,0.0,0.0,0.0,0.0,0.0,0.0,0.0,0.0,0.0,0.0,0.0,0.0,0.0,0.0,0.0,0.0,0.0,0.0,0.0,0.0,0.0,0.0,0.0,0.0,0.0,0.0,0.0,0.0,0.0,0.0,0.0,0.0,0.0,0.0,0.0,0.0,0.0,0.0,0.0,0.0,0.0,0.0,0.0,0.0,0.0,0.0,0.0,0.0,0.0,0.0,0.0,0.0,0.0,0.0,0.0,0.0,0.0,0.0,0.0,0.0,0.0,0.0,0.0,0.0,0.0,0.0,0.0,0.0,0.0,0.0,0.0,0.0,0.0,0.0,0.0,0.0,0.0,0.0,0.0,0.0,0.0,0.0,0.0,0.0,0.0,0.0,0.0,0.0,0.0,0.0,0.0,0.0,0.0,0.0,0.0,0.0,0.0,0.0,0.0,0.0,0.0,0.0,0.0,0.0,0.0,0.0,0.0,0.0,0.0,0.0,0.0,0.0,0.0,0.0,0.0,0.0,0.0,0.0,0.0,0.0,0.0,0.0,0.0,0.0,0.0,0.0,0.0,0.0,0.0,0.0,0.0,0.0,0.0,0.0,0.0,0.0,0.0,0.0,0.0,0.0,0.0,0.0,0.0,0.0,0.0,0.0,0.0,0.0,0.0,0.0,0.0,0.0,0.0,0.0,0.0,0.0,0.0,0.0,0.0,0.0,0.0,0.0,0.0,0.0,0.0,0.0,0.0,0.0,0.0,0.0,0.0,0.0,0.0,0.0,0.0,0.0,0.0,0.0,0.0,0.0,0.0,0.0,0.0,0.0,0.0,0.0,0.0,0.0,0.0,0.0,0.0,0.0,0.0,0.0,0.0,0.0,0.0,0.0,0.0,0.0,0.0,0.0,0.0,0.0,0.0,0.0,0.0,0.0,0.0,0.0,0.0,0.0,0.0,0.0,0.0,0.0,0.0,0.0,0.0,0.0,0.0,0.0,0.0,0.0,0.0,0.0,0.0,0.0,0.0,0.0,0.0,0.0,0.0,0.0,0.0,0.0,0.0,0.0,0.0,0.0,0.0,0.0,0.0,0.0,0.0,0.0,0.0,0.0,0.0,0.0,0.0,0.0,0.0,0.0,0.0,0.0,0.0,0.0,0.0,0.0,0.0,0.0,0.0,0.0,0.0,0.0,0.0,0.0,0.0,0.0,0.0,0.0,0.0,0.0,0.0,0.0,0.0,0.0,0.0,0.0,0.0,0.0,0.0,0.0,0.0,0.0,0.0,0.0,0.0,0.0,0.0,0.0,0.0,0.0,0.0,0.0,0.0,0.0,0.0,0.0,0.0,0.0,0.0,0.0,0.0,0.0,0.0,0.0,0.0,0.0,0.0,0.0,0.0,0.0,0.0,0.0,0.0,0.0,0.0,0.0,0.0,0.0,0.0,0.0,0.0,0.0,0.0,0.0,0.0,0.0,0.0,0.0,0.0,0.0,0.0,0.0,0.0,0.0,0.0,0.0,0.0,0.0,0.0,0.0,0.0,0.0,0.0,0.0,0.0,0.0,0.0,0.0,0.0,0.0,0.0,0.0,0.0,0.0,0.0,0.0,0.0,0.0,0.0,0.0,0.0,0.0,0.0,0.0,0.0,0.0,0.0,0.0,0.0,0.0,0.0,0.0,0.0,0.0,0.0,0.0,0.0,0.0,0.0,0.0,0.0,0.0,0.0,0.0,0.0,0.0,0.0,0.0,0.0,0.0,0.0,0.0,0.0,0.0,0.0,0.0,0.0,0.0,0.0,0.0,0.0,0.0,0.0,0.0,0.0,0.0,0.0,0.0,0.0,0.0,0.0,0.0,0.0,0.0,0.0,0.0,0.0,0.0,0.0,0.0,0.0,0.0,0.0,0.0,0.0,0.0,0.0,0.0,0.0,0.0,0.0,0.0,0.0,0.0,0.0,0.0,0.0,0.0,0.0,0.0,0.0,0.0,0.0,0.0,0.0,0.0,0.0,0.0,0.0,0.0,0.0,0.0,0.0,0.0,0.0,0.0,0.0,0.0,0.0,0.0,0.0,0.0,0.0,0.0,0.0,0.0,0.0,0.0,0.0,0.0,0.0,0.0,0.0,0.0,0.0,0.0,0.0,0.0,0.0,0.0,0.0,0.0,0.0,0.0,0.0,0.0,0.0,0.0,0.0,0.0,0.0,0.0,0.0,0.0,0.0,0.0,0.0,0.0,0.0,0.0,0.0,0.0,0.0,0.0,0.0,0.0,0.0,0.0,0.0,0.0,0.0,0.0,0.0,0.0,0.0,0.0,0.0,0.0,0.0,0.0,0.0,0.0,0.0,0.0,0.0,0.0,0.0,0.0,0.0,0.0,0.0,0.0,0.0,0.0,0.0,0.0,0.0,0.0,0.0,0.0,0.0,0.0,0.0,0.0,0.0,0.0,0.0,0.0,0.0,0.0,0.0,0.0,0.0,0.0,0.0,0.0,0.0,0.0,0.0,0.0,0.0,0.0,0.0,0.0,0.0,0.0,0.0,0.0,0.0,0.0,0.0,0.0,0.0,0.0,0.0,0.0,0.0,0.0,0.0,0.0,0.0,0.0,0.0,0.0,0.0,0.0,0.0,0.0,0.0,0.0,0.0,0.0,0.0,0.0,0.0,0.0,0.0,0.0,0.0,0.0,0.0,0.0,0.0,0.0,0.0,0.0,0.0,0.0,0.0,0.0,0.0,0.0,0.0,0.0,0.0,0.0,0.0,0.0,0.0,0.0,0.0,0.0,0.0,0.0,0.0,0.0,0.0,0.0,0.0,0.0,0.0,0.0,0.0,0.0,0.0,0.0,0.0,0.0,0.0,0.0,0.0,0.0,0.0,0.0,0.0,0.0,0.0,0.0,0.0,0.0,0.0,0.0,0.0,0.0,0.0,0.0,0.0,0.0,0.0,0.0,0.0,0.0,0.0,0.0,0.0,0.0,0.0,0.0,0.0,0.0,0.0,0.0,0.0,0.0,0.0,0.0,0.0,0.0,0.0,0.0,0.0,0.0,0.0,0.0,0.0,0.0,0.0,0.0,0.0,0.0,0.0,0.0,0.0,0.0,0.0,0.0,0.0,0.0,0.0,0.0,0.0,0.0,0.0,0.0,0.0,0.0,0.0,0.0,0.0,0.0,0.0,0.0,0.0,0.0,0.0,0.0,0.0,0.0,0.0,0.0,0.0,0.0,0.0,0.0,0.0,0.0,0.0,0.0,0.0,0.0,0.0,0.0,0.0,0.0,0.0,0.0,0.0,0.0,0.0,0.0,0.0,0.0,0.0,0.0,0.0,0.0,0.0,0.0,0.0,0.0,0.0,0.0,0.0,0.0,0.0,0.0,0.0,0.0,0.0,0.0,0.0,0.0,0.0,0.0,0.0,0.0,0.0,0.0,0.0,0.0,0.0,0.0,0.0,0.0,0.0,0.0,0.0,0.0,0.0,0.0,0.0,0.0,0.0,0.0,0.0,0.0,0.0,0.0,0.0,0.0,0.0,0.0,0.0,0.0,0.0,0.0,0.0,0.0,0.0,0.0,0.0,0.0,0.0,0.0,0.0,0.0,0.0,0.0,0.0,0.0,0.0,0.0,0.0,0.0,0.0,0.0,0.0,0.0,0.0,0.0,0.0,0.0,0.0,0.0,0.0,0.0,0.0,0.0,0.0,0.0,0.0,0.0,0.0,0.0,0.0,0.0,0.0,0.0,0.0,0.0,0.0,0.0,0.0,0.0,0.0,0.0,0.0,0.0,0.0,0.0,0.0,0.0,0.0,0.0,0.0,0.0,0.0,0.0,0.0,0.0,0.0,0.0,0.0,0.0,0.0,0.0,0.0,0.0,0.0,0.0,0.0,0.0,0.0,0.0,0.0,0.0,0.0,0.0,0.0,0.0,0.0,0.0,0.0,0.0,0.0,0.0,0.0,0.0,0.0,0.0,0.0,0.0,0.0,0.0,0.0,0.0,0.0,0.0,0.0,0.0,0.0,0.0,0.0,0.0,0.0,0.0,0.0,0.0,0.0,0.0,0.0,0.0,0.0,0.0,0.0,0.0,0.0,0.0,0.0,0.0,0.0,0.0,0.0,0.0,0.0,0.0,0.0,0.0,0.0,0.0,0.0,0.0,0.0,0.0,0.0,0.0,0.0,0.0,0.0,0.0,0.0,0.0,0.0,0.0,0.0,0.0,0.0,0.0,0.0,0.0,0.0,0.0,0.0,0.0,0.0,0.0,0.0,0.0,0.0,0.0,0.0,0.0,0.0,0.0,0.0,0.0,0.0,0.0,0.0,0.0,0.0,0.0,0.0,0.0,0.0,0.0,0.0,0.0,0.0,0.0,0.0,0.0,0.0,0.0,0.0,0.0,0.0,0.0,0.0,0.0,0.0,0.0,0.0,0.0,0.0,0.0,0.0,0.0,0.0,0.0,0.0,0.0,0.0,0.0,0.0,0.0,0.0,0.0,0.0,0.0,0.0,0.0,0.0,0.0,0.0,0.0,0.0,0.0,0.0,0.0,0.0,0.0,0.0,0.0,0.0,0.0,0.0,0.0,0.0,0.0,0.0,0.0,0.0,0.0,0.0,0.0,0.0,0.0,0.0,0.0,0.0,0.0,0.0,0.0,0.0,0.0,0.0,0.0,0.0,0.0,0.0,0.0,0.0,0.0,0.0,0.0,0.0,0.0,0.0,0.0,0.0,0.0,0.0,0.0,0.0,0.0,0.0,0.0,0.0,0.0,0.0,0.0,0.0,0.0,0.0,0.0,0.0,0.0,0.0,0.0,0.0,0.0,0.0,0.0,0.0,0.0,0.0,0.0,0.0,0.0,0.0,0.0,0.0,0.0,0.0,0.0,0.0,0.0,0.0,0.0,0.0,0.0,0.0,0.0,0.0,0.0,0.0,0.0,0.0,0.0,0.0,0.0,0.0,0.0,0.0,0.0,0.0,0.0,0.0,0.0,0.0,0.0,0.0,0.0,0.0,0.0,0.0,0.0,0.0,0.0,0.0,0.0,0.0,0.0,0.0,0.0,0.0,0.0,0.0,0.0,0.0,0.0,0.0,0.0,0.0,0.0,0.0,0.0,0.0,0.0,0.0,0.0,0.0,0.0,0.0,0.0,0.0,0.0,0.0,0.0,0.0,0.0,0.0,0.0,0.0,0.0,0.0,0.0,0.0,0.0,0.0,0.0,0.0,0.0,0.0,0.0,0.0,0.0,0.0,0.0,0.0,0.0,0.0,0.0,0.0,0.0,0.0,0.0,0.0,0.0,0.0,0.0,0.0,0.0,0.0,0.0,0.0,0.0,0.0,0.0,0.0,0.0,0.0,0.0,0.0,0.0,0.0,0.0,0.0,0.0,0.0,0.0,0.0,0.0,0.0,0.0,0.0,0.0,0.0,0.0,0.0,0.0,0.0,0.0,0.0,0.0,0.0,0.0,0.0,0.0,0.0,0.0,0.0,0.0,0.0,0.0,0.0,0.0,0.0,0.0,0.0,0.0,0.0,0.0,0.0,0.0,0.0,0.0,0.0,0.0,0.0,0.0,0.0,0.0,0.0,0.0,0.0,0.0,0.0,0.0,0.0,0.0,0.0,0.0,0.0,0.0,0.0,0.0,0.0,0.0,0.0,0.0,0.0,0.0,0.0,0.0,0.0,0.0,0.0,0.0,0.0,0.0,0.0,0.0,0.0,0.0,0.0,0.0,0.0,0.0,0.0,0.0,0.0,0.0,0.0,0.0,0.0,0.0,0.0,0.0,0.0,0.0,0.0,0.0,0.0,0.0,0.0,0.0,0.0,0.0,0.0,0.0,0.0,0.0,0.0,0.0,0.0,0.0,0.0,0.0,0.0,0.0,0.0,0.0,0.0,0.0,0.0,0.0,0.0,0.0,0.0,0.0,5.1507,5.2053,0.0,0.0,0.0,0.0,0.0,0.0,0.0,0.0,0.0,0.0,0.0,0.0,0.0,0.0,0.0,0.0,0.0,0.0,0.0,0.0,0.0,0.0,0.0,0.0,0.0,0.0,0.0,0.0,0.0,0.0,0.0,0.0,0.0,0.0,3.9148,3.9148,3.904,3.8788,3.8738,3.8628,3.852,3.852,3.8478,3.8408,0.0,0.0,0.0,0.0,0.0,0.0,0.0,0.0,0.0,0.0,0.0,0.0,0.0,0.0,0.0,0.0,0.0,0.0,0.0,0.0,0.0,0.0,0.0,0.0,0.0,0.0,0.0,0.0,0.0,0.0,0.0,0.0,0.0,0.0,0.0,0.0,0.0,0.0,0.0,0.0,0.0,0.0,0.0,0.0,0.0,0.0,0.0,0.0,0.0,0.0,0.0,0.0,0.0,0.0,0.0,0.0,0.0,0.0,0.0,0.0,0.0,0.0,0.0,0.0,0.0,0.0,0.0,0.0,0.0,0.0,5.1986,5.2495,0.0,0.0,0.0,0.0,0.0,0.0,0.0,0.0,0.0,0.0,0.0,0.0,0.0,0.0,0.0,0.0,0.0,0.0,0.0,0.0,0.0,0.0,0.0,3.9315,3.9315,3.9315,3.9315,3.9315,3.9315,3.9315,3.9315,3.9315,3.9315,3.9269,3.9242,3.9215,3.9067,3.878,3.8752,3.8614,3.8408,3.8408,3.8408,3.8408,3.8408,0.0,0.0,0.0,0.0,0.0,0.0,0.0,0.0,0.0,0.0,0.0,0.0,0.0,0.0,0.0,0.0,0.0,0.0,0.0,0.0,0.0,0.0,0.0,0.0,0.0,0.0,0.0,0.0,0.0,0.0,0.0,0.0,0.0,0.0,0.0,0.0,0.0,0.0,0.0,0.0,0.0,0.0,0.0,0.0,0.0,0.0,0.0,0.0,0.0,0.0,0.0,0.0,0.0,0.0,0.0,0.0,0.0,0.0,0.0,0.0,0.0,0.0,0.0,5.0617,5.0962,5.1099,5.1099,5.1168,5.1321,5.2284,5.275,5.2853,5.3378,0.0,0.0,0.0,0.0,0.0,0.0,0.0,0.0,0.0,0.0,0.0,0.0,0.0,0.0,0.0,0.0,0.0,0.0,0.0,0.0,0.0,3.9315,3.9315,3.9315,3.9315,3.9315,3.9315,3.9315,3.9315,3.9315,3.9315,3.9215,3.9053,3.8944,3.8794,3.8646,3.852,3.845,3.8408,3.8408,3.8408,3.8408,3.8408,3.8408,3.8408,0.0,0.0,0.0,0.0,0.0,0.0,0.0,0.0,0.0,0.0,0.0,0.0,0.0,0.0,0.0,0.0,0.0,0.0,0.0,0.0,0.0,0.0,0.0,0.0,0.0,0.0,0.0,0.0,0.0,0.0,0.0,0.0,0.0,0.0,0.0,0.0,0.0,0.0,0.0,0.0,0.0,4.5744,4.6408,0.0,0.0,0.0,0.0,0.0,0.0,0.0,0.0,0.0,0.0,0.0,0.0,0.0,4.9824,4.9824,4.9942,5.0011,5.0011,5.0114,5.0479,5.1099,5.1099,5.1444,5.208,5.2493,0.0,5.1806,5.3083,0.0,0.0,0.0,0.0,0.0,0.0,0.0,0.0,0.0,0.0,0.0,0.0,0.0,0.0,0.0,0.0,0.0,0.0,0.0,0.0,0.0,3.9188,3.9134,3.9134,3.9067,3.9053,3.9134,3.9134,3.9175,3.9315,3.9188,3.9094,3.9013,3.889,3.8738,3.8604,3.8478,3.8408,3.8408,3.8829,3.9005,3.9037,3.9412,3.912,3.8408,3.8408,0.0,0.0,0.0,0.0,0.0,0.0,0.0,0.0,0.0,0.0,0.0,0.0,0.0,0.0,0.0,0.0,0.0,0.0,0.0,0.0,0.0,0.0,0.0,0.0,0.0,0.0,0.0,0.0,0.0,0.0,0.0,0.0,0.0,0.0,0.0,0.0,0.0,0.0,0.0,4.6225,4.6376,4.7134,4.7203,4.7341,0.0,0.0,0.0,0.0,0.0,0.0,0.0,0.0,0.0,4.9479,4.9824,5.0011,5.0011,5.0424,5.0617,5.0617,5.103,5.141,5.172,5.172,5.1892,5.2237,5.2818,5.2879,5.2612,5.3317,5.3695,5.3878,0.0,0.0,0.0,0.0,5.5348,5.5348,0.0,0.0,0.0,0.0,0.0,0.0,0.0,0.0,0.0,0.0,0.0,0.0,3.9315,3.9161,3.908,3.908,3.8999,3.8985,3.908,3.908,3.9148,3.9269,3.9161,3.9067,3.9013,3.8849,3.8781,3.8823,3.8724,3.8764,3.8958,3.9491,3.975,3.9782,4.0268,3.9912,3.8926,3.8926,3.8983,3.9083,0.0,0.0,0.0,0.0,0.0,0.0,0.0,0.0,0.0,0.0,0.0,0.0,0.0,0.0,0.0,0.0,0.0,0.0,0.0,0.0,0.0,0.0,0.0,0.0,0.0,0.0,0.0,0.0,0.0,0.0,0.0,0.0,0.0,0.0,0.0,0.0,0.0,4.6893,4.7169,4.7893,4.7996,4.8065,0.0,0.0,0.0,0.0,0.0,0.0,4.9976,5.0011,5.0011,5.0011,5.0168,5.0287,5.0287,5.0996,5.1375,5.1375,5.1927,5.2306,5.2513,5.2513,5.2617,5.2823,5.3518,5.3852,5.3955,5.4055,5.4215,5.4455,5.5209,5.5526,5.5598,5.6169,5.6539,5.6718,0.0,0.0,0.0,0.0,0.0,0.0,0.0,0.0,0.0,0.0,0.0,3.9315,3.9315,3.9269,3.9269,3.9269,3.9288,3.9288,3.9269,3.9269,3.9269,3.9315,3.9269,3.9188,3.8993,3.8738,3.8888,3.9441,3.9441,3.9782,4.0398,4.043,4.0463,4.0448,4.048,4.0463,4.0383,4.0383,4.0398,4.0428,4.0769,0.0,0.0,0.0,0.0,0.0,0.0,0.0,0.0,0.0,0.0,0.0,0.0,0.0,0.0,0.0,0.0,0.0,0.0,0.0,0.0,0.0,0.0,0.0,0.0,0.0,0.0,0.0,0.0,0.0,0.0,0.0,0.0,0.0,0.0,0.0,0.0,0.0,0.0,4.8651,4.8741,0.0,0.0,0.0,0.0,4.9942,4.9942,4.9976,5.0011,5.0011,5.0011,5.0011,5.0686,5.103,5.103,5.1789,5.2134,5.2168,5.2168,5.2582,5.3356,5.3356,5.3736,5.4391,5.4769,5.5089,5.5387,5.5396,5.5426,5.5499,5.6104,5.6347,5.6347,5.6383,5.6896,5.7539,0.0,0.0,0.0,0.0,0.0,0.0,0.0,0.0,3.9315,3.9315,3.9315,3.9315,3.9315,3.9175,3.9107,3.9107,3.9026,3.8985,3.8985,3.9067,3.9107,3.9107,3.9487,3.9781,3.995,3.9458,3.9502,4.0139,4.0139,4.0268,4.0513,4.0981,4.1208,4.124,4.1678,4.1857,4.1793,4.0869,4.0495,4.0495,4.0646,4.075,0.0,0.0,0.0,0.0,0.0,0.0,0.0,0.0,0.0,0.0,0.0,0.0,0.0,0.0,0.0,0.0,0.0,0.0,0.0,0.0,0.0,0.0,0.0,0.0,0.0,0.0,0.0,0.0,0.0,0.0,0.0,0.0,0.0,0.0,0.0,0.0,0.0,4.9479,4.9582,0.0,4.9962,5.0011,5.0011,5.0011,5.0444,5.072,5.072,5.1168,5.141,5.141,5.1686,5.1824,5.1824,5.2582,5.2961,5.2961,5.3444,5.4065,5.4823,5.4823,5.5253,5.5977,5.6107,5.6235,5.6362,5.6582,5.6726,5.6922,5.7619,5.7867,5.7867,5.7867,5.8046,5.8296,0.0,0.0,0.0,0.0,0.0,0.0,0.0,0.0,3.9315,3.9315,3.9315,3.9315,3.9315,3.9175,3.908,3.9026,3.8898,3.883,3.8788,3.8944,3.9098,3.9273,3.987,4.0272,4.0555,4.0103,4.0171,4.0884,4.0884,4.0981,4.1225,4.1711,4.1953,4.197,4.2408,4.2586,4.2554,4.1598,4.1225,4.1225,4.1286,4.1361,4.1466,0.0,0.0,0.0,0.0,0.0,0.0,0.0,0.0,0.0,0.0,0.0,0.0,0.0,0.0,0.0,0.0,0.0,0.0,0.0,0.0,0.0,0.0,0.0,0.0,0.0,0.0,0.0,0.0,0.0,0.0,0.0,0.0,0.0,0.0,4.9203,4.941,4.9942,5.0011,5.0114,5.0341,5.0375,5.0479,5.072,5.1203,5.1479,5.1479,5.1927,5.2306,5.2582,5.2858,5.3099,5.3341,5.4149,5.4563,5.4563,5.5046,5.5529,5.5996,5.5996,5.6322,5.6805,5.6805,5.6871,5.7002,5.7471,5.7813,5.808,5.838,5.8588,5.8709,5.8709,5.8852,5.9152,0.0,0.0,0.0,0.0,0.0,0.0,0.0,3.9592,3.9315,3.9315,3.9315,3.9315,3.9269,3.9269,3.9202,3.9026,3.898,3.8958,3.8821,3.8977,3.9306,3.9935,4.0449,4.072,4.0738,4.0619,4.0884,4.1644,4.1644,4.197,4.2586,4.2586,4.2586,4.2586,4.2586,4.2586,4.2586,4.2586,4.2586,4.2634,4.2822,4.2884,4.2915,0.0,0.0,0.0,0.0,0.0,0.0,0.0,0.0,0.0,0.0,0.0,0.0,0.0,0.0,0.0,0.0,0.0,0.0,0.0,0.0,0.0,0.0,0.0,0.0,0.0,0.0,0.0,0.0,0.0,0.0,0.0,0.0,0.0,5.0011,5.0011,5.0011,5.0031,5.0031,5.0306,5.1065,5.1134,5.1444,5.2168,5.2237,5.2272,5.2272,5.2306,5.2686,5.3494,5.4218,5.4892,5.5616,5.6426,5.6805,5.6805,5.6805,5.6805,5.684,5.684,5.684,5.6874,5.6874,5.7071,5.7412,5.8124,5.8631,5.8878,5.8426,5.8455,5.8766,5.8766,5.9244,6.0044,0.0,0.0,0.0,0.0,0.0,0.0,0.0,3.9375,3.9315,3.9315,3.9315,3.9228,3.9107,3.9094,3.9026,3.889,3.8843,3.9059,3.9542,3.9635,4.015,4.1232,4.0912,4.1116,4.2066,4.1579,4.1629,4.2343,4.2343,4.244,4.2586,4.2586,4.2586,4.2586,4.2586,4.2586,4.2586,4.2586,4.2586,4.2586,4.2681,4.2697,4.2713,0.0,0.0,0.0,0.0,0.0,0.0,0.0,0.0,0.0,0.0,0.0,0.0,0.0,0.0,0.0,0.0,0.0,0.0,0.0,0.0,0.0,0.0,0.0,0.0,0.0,0.0,0.0,0.0,0.0,0.0,0.0,5.0011,5.0011,5.0011,5.0011,5.0203,5.072,5.0789,5.1099,5.1824,5.1892,5.1996,5.2168,5.3237,5.3858,5.3858,5.4943,5.5632,5.5874,5.6046,5.6253,5.646,5.6702,5.6805,5.6805,5.6805,5.7081,5.7598,5.7598,5.7909,5.8392,5.8392,5.8442,5.8561,5.8734,5.9205,5.9756,5.964,5.9768,6.0078,6.0078,6.0386,6.0808,0.0,0.0,0.0,0.0,0.0,0.0,0.0,3.9315,3.9255,3.9188,3.9161,3.9107,3.8958,3.8931,3.8876,3.8725,3.9042,3.943,3.9799,4.0373,4.1033,4.1777,4.1604,4.1837,4.2586,4.2229,4.2213,4.2586,4.291,4.3055,4.3088,4.3379,4.3508,4.3508,4.3508,4.3346,4.3055,4.3055,4.2877,4.2586,4.2586,4.2586,4.2602,4.2744,4.2775,4.2791,4.2851,4.3036,4.3262,4.3783,0.0,0.0,0.0,0.0,0.0,0.0,0.0,0.0,0.0,0.0,0.0,0.0,0.0,0.0,0.0,0.0,0.0,0.0,0.0,0.0,0.0,0.0,0.0,0.0,5.0444,5.0548,5.0893,5.0651,5.072,5.1479,5.1548,5.1996,5.3065,5.3168,5.3444,5.4065,5.4977,5.546,5.546,5.6322,5.6943,5.7253,5.7253,5.7426,5.7736,5.7736,5.7736,5.7736,5.7736,5.7943,5.8357,5.8357,5.8582,5.8995,5.8995,5.8995,5.8995,5.8995,5.925,5.9667,0.0,0.0,0.0,0.0,6.0929,6.1093,0.0,0.0,0.0,0.0,0.0,0.0,0.0,3.9288,3.9188,3.904,3.8999,3.8944,3.8775,3.8794,3.8757,3.8702,3.9415,3.9868,3.9917,4.1173,4.1892,4.1877,4.234,4.2586,4.2586,4.2586,4.2651,4.2716,4.3379,4.3735,4.3832,4.4496,4.4804,4.4804,4.4804,4.4431,4.38,4.38,4.3411,4.2716,4.2716,4.2683,4.2586,4.2586,4.2618,4.268,4.268,4.2973,4.3428,4.3795,0.0,0.0,0.0,0.0,0.0,0.0,0.0,0.0,0.0,0.0,0.0,0.0,0.0,0.0,0.0,0.0,0.0,0.0,0.0,0.0,0.0,0.0,0.0,0.0,5.1203,5.1479,5.2237,5.1824,5.172,5.2375,5.2479,5.3065,5.4616,5.4754,5.5322,5.6702,5.6874,5.6909,5.6909,5.7012,0.0,0.0,0.0,5.8357,5.8995,5.8995,5.8995,5.8995,5.8995,5.8995,5.8995,5.8995,5.8995,5.8995,5.8995,5.8995,5.9012,5.9047,5.9115,5.925,5.9846,6.047,6.0989,6.1064,6.1093,6.1093,0.0,0.0,0.0,0.0,0.0,0.0,0.0,3.9161,3.9053,3.9026,3.8931,3.8794,3.8641,3.8628,3.8832,3.9289,3.9466,4.0065,4.1171,4.2154,4.2594,4.2454,4.2537,4.2586,4.2586,4.2586,4.2877,4.3476,4.3638,4.401,4.4593,4.4723,4.4804,4.4804,4.4804,4.4723,4.4593,4.4593,4.4172,4.3476,4.3476,4.3152,4.2586,4.2586,4.2851,4.3171,4.3171,4.3472,4.4039,4.5331,4.5918,4.6295,4.7505,4.8067,0.0,0.0,0.0,0.0,0.0,0.0,0.0,0.0,0.0,0.0,0.0,0.0,0.0,0.0,0.0,0.0,0.0,0.0,0.0,5.1961,5.1996,5.2272,5.308,5.3548,5.3892,5.403,5.4065,5.4667,5.6219,5.6357,5.6495,5.6771,5.7357,5.7702,5.7702,5.8254,5.8616,5.8788,5.8788,5.8857,5.8995,5.8995,5.8995,5.8995,5.8995,0.0,5.8995,5.8995,5.8995,5.8995,5.8995,5.8995,5.903,5.9334,5.9781,6.0297,6.0155,6.0186,6.0376,6.0899,6.1093,6.1093,0.0,0.0,0.0,0.0,0.0,0.0,0.0,3.9013,3.889,3.8807,3.8738,3.8804,3.9022,3.904,3.9304,3.9944,4.0407,4.1101,4.2173,4.2658,4.2822,4.2602,4.2586,4.2586,4.2586,4.2942,4.3346,4.3703,4.4431,4.4949,4.5305,4.5679,4.5841,4.5841,4.5841,4.5646,4.5305,4.5305,4.469,4.3703,4.3703,4.3408,4.2942,4.2942,4.3247,4.3699,4.4112,4.457,4.5119,4.6263,4.6803,4.7141,4.7875,4.8352,4.8638,0.0,0.0,0.0,0.0,0.0,0.0,0.0,0.0,0.0,0.0,0.0,0.0,0.0,0.0,5.1651,5.1651,0.0,5.2341,5.272,5.3099,5.3616,5.4375,5.5168,5.5478,5.5099,5.5426,5.6115,5.7253,5.7357,5.7495,5.7874,5.8237,5.8444,5.8444,5.8788,5.8995,5.8995,5.8995,5.8995,5.8995,5.9392,5.9599,5.9599,5.9978,6.0151,6.0151,6.0151,6.0151,6.0151,6.0151,6.0151,6.0168,6.0599,6.1033,6.1504,6.1504,6.1141,6.0625,6.0793,6.0959,6.1093,0.0,0.0,0.0,0.0,0.0,0.0,0.0,3.8862,3.8725,3.8632,3.8688,3.8957,3.9441,3.962,3.9977,4.0657,4.1461,4.2219,4.2805,4.2837,4.2775,4.2602,4.2586,4.2586,4.2586,4.3314,4.3783,4.3897,4.5176,4.5888,4.6018,4.6618,4.691,4.691,4.691,4.6586,4.6018,4.6018,4.5273,4.4107,4.4107,4.4004,4.3854,4.3854,4.4086,4.4462,4.5263,4.5838,4.636,4.711,4.7612,4.7927,4.81,4.8548,4.9031,4.9031,4.9479,0.0,0.0,0.0,0.0,0.0,0.0,0.0,0.0,0.0,5.1306,5.1306,5.1927,5.2444,5.2444,5.2548,5.2892,5.3701,5.4341,5.4961,5.572,5.6529,5.6771,5.6099,5.6633,5.7288,5.8047,5.8099,5.8357,5.8961,5.8995,5.8995,5.8995,5.8995,5.9064,5.9254,5.9237,5.9323,5.9461,6.0082,6.0427,6.0427,6.1013,6.1289,6.1289,6.1289,6.1289,6.1289,6.1289,6.1324,6.1413,6.1849,6.2188,6.2519,6.2779,6.2304,6.1437,6.1239,6.1285,6.1447,0.0,0.0,0.0,0.0,0.0,0.0,0.0,0.0,3.8632,3.8604,3.9072,3.9408,3.9491,4.0042,4.069,4.1417,4.2115,4.2553,4.2618,4.2618,4.2602,4.2586,4.2586,4.2586,4.2586,4.3314,4.401,4.4658,4.5435,4.6147,4.678,4.6877,4.691,4.691,4.691,4.6845,4.678,4.678,4.6309,4.5565,4.5565,4.5684,4.5882,4.5882,4.5793,4.5787,4.6534,4.7093,4.7617,4.834,4.8643,4.881,4.9513,4.9789,4.9873,4.9873,4.9942,5.0011,5.0011,5.0011,5.0011,5.0011,5.0479,5.0962,0.0,0.0,5.2065,5.2065,5.272,5.3287,5.3287,5.3804,5.4478,5.5237,5.5409,5.5754,5.6564,5.7322,5.7736,5.7667,5.7736,5.8081,5.8806,5.8857,5.8892,5.8995,5.8995,5.8995,5.8995,5.8995,5.9323,6.0047,6.0082,6.0392,6.1047,6.1116,6.1185,6.1185,6.1254,6.1289,6.1289,6.1289,6.1289,6.1289,6.1289,6.1466,6.1779,6.2188,6.2537,6.2846,6.2894,6.282,6.2726,6.2973,6.2911,6.2699,0.0,0.0,0.0,0.0,0.0,0.0,0.0,0.0,0.0,3.9091,3.9325,3.9815,4.0625,4.1322,4.1857,4.2164,4.244,4.2586,4.2586,4.2586,4.2586,4.2586,4.2586,4.2586,4.2586,4.3314,4.4075,4.4804,4.5467,4.618,4.691,4.691,4.691,4.691,4.691,4.691,4.691,4.691,4.6471,4.5808,4.6125,4.6252,4.6289,4.7008,4.7408,4.7626,4.7935,4.8151,0.0,4.9238,4.9513,4.9548,4.9893,5.0011,5.0011,5.0011,5.0011,5.0011,5.0011,5.0306,5.0651,5.0651,5.1203,5.1755,5.1755,5.2341,5.2892,5.2892,5.3529,5.4046,5.4046,5.4651,5.5237,0.0,5.634,5.7064,5.7391,5.8081,5.8547,5.8547,5.8547,5.8651,5.8961,5.8995,5.8995,5.8995,5.8995,5.9202,5.9668,5.9702,6.0047,6.0806,6.084,6.0978,6.1289,6.1772,6.1979,6.1979,6.2427,6.2634,6.2634,6.2634,6.2634,6.2634,6.2634,6.2851,6.3153,6.3328,6.3705,6.4272,6.4559,6.467,6.4516,6.3277,6.3018,6.329,0.0,0.0,0.0,0.0,0.0,0.0,0.0,0.0,0.0,0.0,3.9847,4.0528,4.1759,4.2311,4.2586,4.2586,4.2586,4.2586,4.2586,4.2586,4.2586,4.2586,4.2586,4.2586,4.2586,4.3314,4.3962,4.4496,4.5176,4.5888,4.6618,4.6618,4.6715,4.691,4.691,4.691,4.691,4.7064,4.6807,4.6385,4.6881,4.7062,4.712,4.8037,4.8724,4.9134,4.9134,4.9134,4.9238,4.9789,5.0011,5.0011,5.0011,5.0011,5.0011,5.0011,5.0134,5.0341,5.0548,5.0996,5.141,5.141,5.1961,5.2548,5.2548,5.3134,5.3701,5.3701,5.4149,5.4547,5.4754,5.5237,5.5754,5.6168,5.7168,5.7978,5.8168,5.8651,5.8995,5.8995,5.8995,5.8995,5.8995,5.8995,5.9099,5.9306,5.9306,5.9668,6.0461,6.0496,6.084,6.1599,6.1634,6.1737,6.1944,6.2496,6.2806,6.2825,6.3324,6.36,6.36,6.36,6.36,6.36,6.36,6.373,6.3984,6.4057,6.4567,6.5292,6.5713,6.5914,6.5817,6.4079,6.3859,6.4435,0.0,0.0,0.0,0.0,0.0,0.0,0.0,0.0,0.0,0.0,0.0,0.0,0.0,4.2586,4.2586,4.2586,4.2586,4.2586,4.2586,4.2586,4.2586,4.2586,4.2586,4.2586,4.2586,4.3314,4.3703,4.3735,4.4464,4.5176,4.5824,4.5824,4.6212,4.691,4.691,4.691,4.6944,4.7454,4.7671,4.7688,4.8144,4.8666,4.9127,4.9143,4.9496,4.9976,4.9976,4.9976,4.9976,4.9996,5.0011,5.0011,5.0011,5.0011,5.0011,5.0011,5.0513,5.1203,5.1927,5.2168,5.2168,5.2168,5.2754,5.3356,5.3356,5.3942,5.4494,5.4494,5.4478,5.472,5.5444,5.5582,5.6099,5.7598,5.7874,5.8133,5.8857,5.8995,5.8995,5.8995,5.8995,5.8995,5.8995,5.8995,5.9323,6.0082,6.0151,6.0496,6.122,6.1254,6.1634,6.2445,6.248,6.2825,6.3531,6.3531,6.3565,6.3565,6.3565,6.36,6.36,6.36,6.36,6.36,6.36,6.3618,6.3655,6.3984,6.4619,6.542,6.5617,6.5996,6.6374,6.6156,6.6256,6.6497,0.0,0.0,0.0,0.0,0.0,0.0,0.0,0.0,0.0,0.0,0.0,0.0,0.0,0.0,0.0,0.0,4.2586,4.2586,4.2586,4.2586,4.2586,4.2586,4.2586,4.2586,4.2586,4.2845,4.3217,4.3703,4.3945,4.4431,4.5144,4.5144,4.5273,4.5517,4.5953,4.6383,4.6749,4.7424,4.7869,4.8193,4.8715,4.9024,4.9241,4.959,4.983,5.0011,0.0,5.0011,5.0011,5.0011,5.0011,5.0011,5.0011,5.0011,5.0114,5.0582,5.1237,5.1892,5.2134,5.2582,5.2996,5.2996,5.3563,5.4149,5.4149,5.4322,5.4478,5.4478,5.4892,5.5306,5.5547,5.6444,5.7322,5.784,5.8323,5.872,5.8961,5.8995,5.8995,5.8995,5.8995,5.9219,5.9737,5.9806,5.9909,6.0185,6.0634,6.1254,6.2048,6.2082,6.2427,6.3186,6.322,6.3342,6.36,6.36,6.36,6.36,6.36,6.36,6.36,6.36,6.36,6.36,6.36,6.36,6.3655,6.4182,6.4773,6.5357,6.6161,6.6751,6.7095,6.7346,6.755,6.767,0.0,0.0,0.0,0.0,0.0,0.0,0.0,0.0,0.0,0.0,0.0,0.0,0.0,0.0,0.0,0.0,0.0,4.2586,4.2586,4.2586,4.2586,4.2586,4.2586,4.2586,4.2586,4.2586,4.2813,4.3314,4.3314,4.367,4.4399,4.4399,4.469,4.5193,4.5797,4.6421,4.7062,4.7882,4.8418,4.8731,4.9271,4.95,4.953,4.986,5.0011,0.0,5.0011,5.0011,5.0011,5.0011,5.0011,5.0011,5.0011,5.0168,5.0582,5.1617,5.2237,5.2686,5.2961,5.341,5.3804,5.3804,5.4149,5.4478,5.4478,5.4478,5.4547,5.4823,5.5272,5.5754,5.6306,5.7237,5.8012,5.8254,5.8685,5.8995,5.8995,5.8995,5.8995,5.8995,5.8995,5.9323,6.0116,6.0427,6.0703,6.0978,6.1461,6.2048,6.2859,6.2894,6.3101,6.3565,6.36,6.36,6.36,6.36,6.36,6.36,6.36,6.36,6.36,6.36,6.36,6.36,6.36,6.373,6.3985,6.441,6.5091,6.5867,6.6553,6.7123,6.7623,6.7915,6.812,6.8146,0.0,0.0,0.0,0.0,0.0,0.0,0.0,0.0,0.0,0.0,0.0,0.0,0.0,0.0,0.0,0.0,0.0,0.0,4.2586,4.2586,4.2586,4.2586,4.2586,4.2586,4.2586,4.2586,4.2586,4.2586,4.2586,4.2942,4.3638,4.3638,4.4399,4.5761,4.6291,4.6979,4.7787,4.8778,4.9226,4.9286,4.9801,5.0011,5.0011,5.0011,5.0011,5.0011,5.0011,5.0011,5.0011,5.0011,5.0011,5.0011,5.0045,5.0548,5.1444,5.2977,5.3425,5.3598,5.4306,5.4478,5.4478,5.4478,5.4478,5.4478,5.4478,5.4513,5.4754,5.5444,5.5651,5.6168,0.0,0.0,5.8185,5.8892,5.8995,5.9012,5.9047,5.903,5.9012,0.0,0.0,0.0,0.0,0.0,6.1703,6.2514,6.2549,6.2859,6.3565,6.36,6.36,6.36,6.36,6.36,6.36,6.36,6.36,6.36,6.36,6.36,6.36,6.36,6.36,6.36,6.3655,6.4021,6.4618,6.4686,6.5577,6.6874,6.6794,6.723,6.7899,6.7926,6.8004,6.8108,0.0,0.0,0.0,0.0,0.0,0.0,0.0,0.0,0.0,0.0,0.0,0.0,0.0,0.0,0.0,0.0,0.0,0.0,4.2586,4.2586,4.2586,4.2586,4.2586,4.2586,4.2586,4.2586,4.2586,4.2586,4.2586,4.2683,4.2877,4.2877,4.3569,4.4861,4.5498,4.6615,4.8048,4.8866,4.9421,4.9801,4.9918,5.0011,5.0011,5.0011,5.0011,5.0011,5.0011,5.0011,5.0011,5.0011,5.0011,5.0114,5.0651,5.1341,5.2099,5.3115,5.3804,5.4237,5.446,5.4478,5.4478,5.4478,5.4478,5.4478,5.4478,5.4927,5.5375,5.5547,5.6513,5.7409,0.0,5.8357,0.0,5.8961,5.8995,0.0,5.9681,5.93,0.0,5.9697,0.0,6.0185,6.0944,6.1737,6.2514,6.3255,6.3324,6.3393,6.3565,6.36,6.36,6.36,6.36,6.36,6.36,6.36,6.36,6.36,6.36,6.36,6.36,6.36,6.36,6.3637,6.4146,6.4428,6.4686,6.5721,6.6389,6.6794,6.7244,6.7556,6.7781,6.7991,6.8057,6.8121,0.0,0.0,0.0,0.0,0.0,0.0,0.0,0.0,0.0,0.0,0.0,0.0,0.0,0.0,0.0,0.0,0.0,0.0,0.0,4.2586,4.2586,4.2586,4.2586,4.2586,4.2586,4.2586,4.2586,4.2586,4.2586,4.2586,4.2586,4.282,4.3622,4.4982,4.5811,4.7068,4.8628,4.9266,4.9742,0.0,0.0,5.0011,5.0011,5.0011,5.0011,5.0011,5.0011,0.0,0.0,0.0,0.0,5.0617,5.1341,5.2099,5.2858,5.3667,0.0,5.4478,5.4478,5.4478,5.4478,5.4478,5.472,5.4961,5.4961,5.5598,5.6219,5.6547,5.7306,5.8012,5.8306,5.8955,5.9433,0.0,0.0,0.0,5.9969,5.9681,5.9467,0.0,5.9943,0.0,6.122,6.2031,6.2825,6.3531,6.36,6.36,6.36,6.36,6.36,6.36,6.36,6.36,6.36,6.36,6.36,6.36,6.36,6.36,6.36,6.36,6.3767,6.4075,6.4463,6.4939,6.5561,6.6359,6.6852,6.7174,6.7542,6.77,6.7741,6.8017,6.8083,6.8121,0.0,0.0,0.0,0.0,0.0,0.0,0.0,0.0,0.0,0.0,0.0,0.0,0.0,0.0,0.0,0.0,0.0,0.0,0.0,0.0,4.2586,4.2586,4.2586,4.2586,4.2586,4.2586,4.2586,4.2586,4.2586,4.2618,4.2696,4.3111,4.4157,4.5746,4.6596,4.7875,4.9331,4.9801,5.0011,5.0011,5.0011,5.0011,5.0011,0.0,5.0011,5.0011,0.0,0.0,0.0,0.0,5.1099,5.1237,5.2099,5.2823,5.3529,5.4287,5.4478,5.4478,5.4478,5.4478,5.4513,5.4616,5.5134,5.5616,5.572,5.6391,5.7116,5.7771,5.7978,5.8237,5.8892,5.9483,5.9908,5.9969,0.0,6.0524,6.0192,5.9969,5.9697,5.92,5.9858,6.0599,6.1254,6.2117,6.2928,6.3531,6.36,6.36,6.36,6.36,6.36,6.36,6.36,6.36,6.36,6.36,6.36,6.36,6.36,6.36,6.3618,6.3675,6.4057,6.4618,6.4806,6.5561,6.6707,6.678,6.716,6.77,6.77,6.7714,6.7767,6.803,6.8095,6.8146,0.0,0.0,0.0,0.0,0.0,0.0,0.0,0.0,0.0,0.0,4.2586,4.2586,0.0,0.0,0.0,0.0,0.0,0.0,0.0,0.0,0.0,4.2586,4.2586,4.2586,4.2586,4.2586,4.2586,4.2586,4.2586,4.2805,4.3187,4.3277,4.4534,4.6762,4.6922,4.8084,4.986,4.9967,5.0011,5.0011,5.0011,5.0011,5.0011,5.0011,0.0,0.0,0.0,0.0,0.0,0.0,5.1099,5.1341,5.277,5.3287,5.3529,5.4287,5.4478,5.4478,5.4478,5.4478,5.4651,5.5272,5.5513,5.5754,5.646,5.7185,0.0,0.0,5.8392,5.8857,5.8961,5.9098,5.935,5.9889,5.9613,5.9644,6.0615,5.9838,5.9333,0.0,6.0582,6.1151,6.1289,6.2565,6.348,6.3565,6.36,6.36,6.36,6.36,6.36,6.36,6.36,6.36,6.36,6.36,6.36,6.36,6.36,6.36,6.3637,6.4165,6.448,6.4669,6.5815,6.6449,6.6736,6.7308,6.7606,6.77,6.77,6.7767,6.7899,6.8031,6.8183,6.8284,0.0,0.0,0.0,0.0,0.0,0.0,0.0,4.2586,4.2586,4.2586,4.2586,4.2586,4.2586,4.2586,0.0,0.0,0.0,0.0,0.0,0.0,0.0,0.0,0.0,0.0,4.2958,4.2958,4.308,4.3323,0.0,4.3443,4.368,4.3895,4.5091,4.6995,4.7258,4.8363,5.0011,5.0011,5.0011,5.0011,5.0011,5.0011,5.0011,0.0,0.0,0.0,0.0,0.0,0.0,0.0,5.2321,5.2425,5.3184,5.3667,5.4046,5.4391,5.4478,5.4478,5.4478,5.4789,5.5168,5.5513,5.6202,5.6892,5.7288,0.0,0.0,0.0,5.8754,5.8995,5.8995,5.9283,5.9632,5.9937,6.0282,6.0498,6.0452,6.0188,5.9982,5.9985,6.0755,6.143,6.1779,6.2885,6.36,6.36,6.36,6.36,6.36,6.36,6.36,6.36,6.36,6.36,6.36,6.36,6.36,6.36,6.36,6.3785,6.4111,6.4445,6.4989,6.5721,6.6389,6.6917,6.7266,6.7593,6.77,6.77,6.77,6.7794,6.7926,6.8031,6.8196,6.8309,0.0,0.0,0.0,0.0,0.0,0.0,0.0,4.2586,4.2586,4.2586,4.2586,4.2586,4.2586,4.2586,4.2586,0.0,0.0,0.0,0.0,0.0,0.0,0.0,0.0,0.0,0.0,0.0,0.0,4.4001,4.4001,0.0,0.0,0.0,0.0,0.0,4.7705,4.8686,5.0011,5.0011,5.0011,0.0,0.0,5.0011,0.0,0.0,0.0,0.0,0.0,0.0,0.0,0.0,5.3494,5.3632,5.3632,5.403,5.4478,5.4478,5.4478,5.4478,5.4478,5.503,5.5651,5.5823,5.6892,5.7943,5.8116,5.8582,0.0,5.8995,5.8995,5.8995,5.8995,5.9549,6.0033,0.0,6.1039,6.1343,6.0328,6.0478,6.0595,6.0276,6.0859,0.0,6.2464,6.3203,6.36,6.36,6.36,6.36,6.36,6.36,6.36,6.36,6.36,6.36,6.36,6.36,6.36,6.36,6.36,6.3949,6.4601,6.4772,6.5497,6.6707,6.6838,6.7202,6.77,6.77,6.77,6.77,6.77,6.7807,6.7978,6.8044,6.8221,6.8346,0.0,0.0,0.0,0.0,0.0,0.0,0.0,4.2586,4.2586,4.2586,4.2586,4.2586,4.2586,4.2586,4.2586,0.0,0.0,0.0,0.0,0.0,0.0,0.0,0.0,0.0,0.0,0.0,0.0,4.4001,4.4001,0.0,0.0,0.0,0.0,0.0,0.0,4.9169,5.0011,5.0011,0.0,0.0,0.0,0.0,0.0,0.0,0.0,0.0,0.0,0.0,0.0,0.0,0.0,5.4391,5.4391,5.446,5.4478,5.4478,0.0,0.0,5.4478,5.503,5.5789,5.6495,5.7322,5.8081,5.8754,0.0,5.8995,5.8995,5.8995,5.8995,5.8995,5.9549,6.0192,6.0736,6.093,6.0959,6.082,6.0406,6.0327,6.0998,0.0,0.0,6.3251,6.3517,6.36,6.36,6.36,6.36,6.36,6.36,6.36,6.36,6.36,6.36,6.36,6.36,6.36,6.36,6.36,6.3949,6.4635,6.5237,6.594,6.6721,6.735,6.7647,6.77,6.77,6.77,6.77,6.77,6.7873,6.807,6.8083,6.8271,6.8481,0.0,0.0,0.0,0.0,0.0,0.0,4.2586,4.2586,4.2586,4.2586,4.2586,4.2586,4.2586,4.2586,4.2586,4.2586,0.0,0.0,0.0,0.0,0.0,0.0,0.0,0.0,0.0,0.0,4.4387,4.4852,4.4852,0.0,0.0,0.0,0.0,0.0,0.0,4.9238,5.0011,5.0011,0.0,0.0,0.0,0.0,0.0,0.0,0.0,0.0,0.0,0.0,5.241,0.0,0.0,0.0,5.4478,5.4478,0.0,0.0,5.4478,5.4598,5.503,5.5736,5.6529,5.7288,5.8012,5.8616,5.8926,0.0,5.9132,5.9516,5.9266,5.9132,5.9533,5.9844,6.0081,6.0313,6.0661,6.0781,6.0421,6.016,6.0266,6.1055,6.1224,6.1866,6.3305,6.3551,6.36,6.36,6.36,6.36,6.36,6.36,6.36,6.36,6.36,6.36,6.36,6.36,6.36,6.36,6.36,6.4147,6.5221,6.5462,6.6217,6.7336,6.7556,6.77,6.77,6.77,6.77,6.77,6.77,6.782,6.8004,6.8057,6.8234,6.8383,0.0,0.0,0.0,0.0,0.0,4.2586,4.2586,4.2586,4.2586,4.2586,4.2586,4.2586,4.2586,4.2586,4.2586,4.2586,4.2586,0.0,0.0,0.0,0.0,0.0,0.0,0.0,0.0,0.0,4.4947,4.5397,4.5397,4.5397,0.0,0.0,4.7203,4.7755,0.0,0.0,0.0,0.0,0.0,0.0,0.0,0.0,0.0,0.0,0.0,0.0,0.0,0.0,0.0,0.0,0.0,0.0,0.0,0.0,0.0,0.0,5.4478,5.4651,5.5409,5.6184,5.6978,5.7736,5.8444,5.8995,0.0,0.0,5.92,5.9841,5.9632,5.9433,5.9905,6.0317,6.0483,6.0297,6.0781,6.0974,6.0359,6.0113,6.0372,6.1354,6.1345,6.1952,6.3604,6.3655,6.36,6.36,6.36,6.36,6.36,6.36,6.36,6.36,6.36,6.36,6.36,6.36,6.36,6.36,6.36,6.4306,6.559,6.559,6.6353,6.77,6.77,6.77,6.77,6.77,6.77,6.77,6.77,6.7794,6.7926,6.8031,6.8196,6.8309,0.0,0.0,0.0,0.0,0.0,0.0,4.2586,4.2586,4.2586,4.2586,4.2586,4.2586,4.2586,4.2586,4.2586,4.2586,4.2586,0.0,0.0,0.0,0.0,0.0,0.0,0.0,0.0,0.0,4.4947,4.5397,4.5397,4.5397,4.5432,4.6962,4.7686,4.7755,0.0,0.0,0.0,0.0,0.0,0.0,0.0,0.0,0.0,0.0,0.0,0.0,0.0,0.0,0.0,0.0,0.0,0.0,0.0,5.4478,5.4478,0.0,5.4478,5.4651,5.5409,5.6184,5.6978,5.7736,5.8444,5.8995,0.0,5.8995,5.92,5.9841,5.9985,5.9969,5.9985,6.1024,6.1654,6.1018,6.1472,6.1654,6.0967,6.0375,6.0563,6.2106,6.1693,6.2178,6.4356,6.4003,6.36,6.36,6.36,6.36,6.36,6.36,6.36,6.36,6.36,6.36,6.36,6.36,6.36,6.36,6.36,6.4306,6.559,6.559,6.6353,6.77,6.77,6.77,6.77,6.77,6.77,6.77,6.77,6.7794,6.7926,6.8031,6.8196,6.8309,0.0,0.0,0.0,0.0,0.0,0.0,0.0,4.2586,4.2586,4.2586,4.2586,4.2586,4.2586,4.2586,4.2586,4.2586,4.2586,0.0,0.0,0.0,0.0,0.0,0.0,0.0,0.0,0.0,4.523,4.5397,4.5397,4.5397,4.5432,4.6996,4.7686,4.7789,4.9306,5.0011,0.0,0.0,0.0,0.0,0.0,0.0,5.008,0.0,0.0,0.0,0.0,0.0,0.0,0.0,0.0,0.0,0.0,0.0,0.0,5.5099,5.5237,5.5409,5.6219,5.6978,5.7736,5.8478,5.8823,5.9132,5.9582,5.9697,5.9985,6.1068,6.0915,6.0751,6.1214,6.1648,6.1842,6.1612,6.1365,6.1293,6.1556,6.0282,6.0056,6.206,6.2631,6.3157,6.3843,6.3712,6.36,6.36,6.36,6.36,6.36,6.36,6.36,6.36,6.36,6.36,6.36,6.36,6.36,6.36,6.36,6.4306,6.559,6.559,6.6353,6.77,6.77,6.77,6.77,6.77,6.77,6.77,6.77,6.7727,6.7794,6.803,6.8145,6.8222,0.0,0.0,0.0,0.0,0.0,0.0,0.0,4.2586,4.2586,4.2586,4.2586,4.2586,4.2586,4.2586,4.2586,4.2586,4.2586,0.0,0.0,0.0,0.0,0.0,0.0,0.0,0.0,4.5397,4.5397,4.5397,4.5397,4.5397,4.5432,4.6996,4.7686,4.7789,4.9306,5.0011,0.0,0.0,0.0,0.0,0.0,0.0,5.008,0.0,0.0,0.0,0.0,0.0,0.0,0.0,0.0,0.0,0.0,0.0,0.0,0.0,5.5823,5.6219,5.7012,5.7564,5.8081,5.8823,5.8995,5.92,5.986,0.0,6.0379,6.1662,6.157,6.1393,6.1828,6.2072,6.2139,6.1869,6.1293,6.112,6.1745,6.0188,5.9719,6.1691,6.268,6.3289,6.3565,6.36,6.36,6.36,6.36,6.36,6.36,6.36,6.36,6.36,6.36,6.3462,6.3186,6.3204,6.3204,6.3204,6.3425,6.4268,6.5605,6.5893,6.6626,6.77,6.77,6.77,0.0,6.77,6.77,6.77,6.77,6.7727,6.7807,6.8006,6.8247,6.8455,0.0,0.0,0.0,0.0,0.0,0.0,0.0,4.2586,4.2586,4.2586,4.2586,4.2602,4.2633,4.2602,4.2602,4.2633,0.0,0.0,0.0,0.0,0.0,0.0,0.0,0.0,0.0,4.5397,4.5397,4.5397,4.5397,4.5432,4.55,4.7031,4.772,4.7858,4.9355,5.0011,0.0,0.0,0.0,0.0,5.0011,5.0011,0.0,0.0,0.0,0.0,0.0,0.0,0.0,0.0,0.0,0.0,0.0,0.0,0.0,0.0,0.0,0.0,0.0,5.7978,5.815,5.8823,5.8995,5.92,5.9889,6.0049,0.0,6.1718,6.1951,6.1951,6.1965,6.2412,6.2578,6.1869,6.1265,6.1106,6.169,6.0286,5.9737,6.1134,6.2013,6.279,6.3531,6.36,6.36,6.36,6.36,6.36,6.36,6.36,6.36,6.36,6.36,6.3255,6.2583,6.2583,6.2601,6.2673,6.3275,6.4334,6.5685,6.6389,6.7075,6.77,6.77,6.77,6.77,6.77,6.77,6.77,6.77,6.7794,6.7926,6.8031,6.843,6.8937,0.0,0.0,0.0,0.0,0.0,0.0,0.0,0.0,0.0,0.0,4.2586,4.2743,4.3095,4.282,4.2743,0.0,0.0,0.0,0.0,0.0,0.0,0.0,0.0,0.0,0.0,4.5397,4.5397,4.5397,4.5397,4.5707,4.6341,4.7272,4.7996,4.8582,4.9548,5.0011,0.0,0.0,0.0,0.0,5.0011,5.0011,0.0,0.0,0.0,0.0,5.3754,5.4341,0.0,0.0,0.0,0.0,0.0,0.0,0.0,0.0,5.6667,5.7081,5.8375,0.0,5.8788,5.8961,5.8909,5.9183,0.0,6.06,0.0,0.0,0.0,6.2451,6.259,6.2629,6.2603,6.2399,6.157,6.125,6.2255,6.1788,6.1341,6.1309,6.2013,6.279,6.3531,6.36,6.36,6.36,6.36,6.36,6.36,6.36,6.36,6.36,6.36,6.3515,6.3324,6.3324,6.3599,6.4096,6.4286,6.5076,6.6434,6.6618,6.7075,6.77,6.77,6.77,6.77,6.77,6.77,6.77,6.77,6.7794,6.7926,6.8031,6.843,6.8944,0.0,0.0,0.0,0.0,0.0,0.0,0.0,0.0,0.0,0.0,0.0,0.0,0.0,0.0,0.0,0.0,0.0,0.0,0.0,0.0,0.0,0.0,0.0,0.0,4.5397,4.5397,4.5397,4.5397,4.5397,4.5811,4.6617,4.7341,4.81,4.8844,4.9651,5.0011,0.0,0.0,0.0,0.0,5.0011,0.0,0.0,0.0,0.0,0.0,5.4065,5.4478,0.0,5.4478,5.4478,5.4478,0.0,0.0,0.0,0.0,5.7047,5.7564,5.8685,5.9216,5.9383,5.9081,5.9115,5.9515,6.0661,0.0,0.0,0.0,0.0,6.2629,6.2692,6.2654,6.2578,6.2513,6.1869,6.1322,6.1265,6.1336,6.1305,6.1185,6.1887,6.2681,6.3531,6.36,6.36,6.36,6.36,6.36,6.36,6.36,6.36,6.36,6.36,6.3427,6.3082,6.341,6.3729,6.4091,6.4721,6.5617,6.6707,6.7018,6.7364,6.77,6.77,6.77,6.77,6.77,6.77,6.77,6.77,6.7834,6.8006,6.8297,6.8769,6.9337,0.0,0.0,0.0,0.0,0.0,0.0,0.0,0.0,0.0,0.0,0.0,0.0,0.0,0.0,0.0,0.0,0.0,0.0,0.0,0.0,0.0,0.0,0.0,4.5397,4.5397,4.5397,4.5397,4.5397,4.5397,4.588,4.6789,4.741,4.8169,4.9031,4.9686,5.0011,0.0,0.0,0.0,0.0,5.01,0.0,0.0,0.0,0.0,0.0,0.0,0.0,0.0,5.4478,5.4478,5.4478,5.4478,0.0,0.0,0.0,0.0,0.0,5.8651,5.9379,5.9809,5.9149,5.9333,5.9886,6.0706,0.0,0.0,0.0,0.0,6.2578,6.2603,6.2578,0.0,6.2278,6.1946,6.1243,5.9934,6.0118,6.0582,6.0991,6.1657,6.2486,6.3478,6.36,6.36,6.36,6.36,6.36,6.36,6.36,6.36,6.36,6.36,6.3289,6.2687,6.3345,6.3737,6.3819,6.5073,6.6076,6.6852,6.7433,6.77,6.77,6.77,6.77,6.77,6.77,6.77,6.77,6.77,6.786,6.8121,6.8548,6.9101,6.974,0.0,0.0,0.0,0.0,0.0,0.0,0.0,0.0,0.0,0.0,0.0,0.0,0.0,0.0,0.0,0.0,0.0,0.0,0.0,0.0,0.0,0.0,4.5397,4.5397,4.5397,4.5397,4.5397,4.5397,4.5397,4.6121,4.7548,4.7651,4.8444,4.9824,4.9942,5.0011,5.0011,0.0,0.0,5.0031,5.0686,0.0,0.0,0.0,0.0,0.0,0.0,0.0,0.0,5.4478,5.4478,5.4478,5.4478,0.0,0.0,0.0,0.0,0.0,5.7996,5.9013,5.9827,5.9047,5.92,5.9725,6.0539,6.1018,0.0,0.0,0.0,0.0,0.0,6.241,6.2118,6.1648,6.1068,6.0549,6.0017,6.0027,6.036,6.1152,6.1339,6.2012,6.3462,6.36,6.36,6.36,6.36,6.36,6.36,6.36,6.36,6.36,6.36,6.3531,6.3427,6.4096,6.4712,6.5267,6.6133,6.6858,6.7529,6.766,6.77,6.77,6.77,6.77,6.77,6.77,6.77,6.77,6.77,6.7794,6.7993,6.8513,6.9048,6.9655,0.0,0.0,0.0,0.0,0.0,0.0,0.0,0.0,0.0,0.0,0.0,0.0,0.0,0.0,0.0,0.0,0.0,0.0,0.0,0.0,0.0,4.5397,4.5397,4.5397,4.5397,4.5397,4.5397,4.5397,4.5397,4.619,4.772,4.8548,4.9306,5.0011,5.0011,5.0011,5.0011,5.0011,5.0011,5.0065,0.0,0.0,0.0,0.0,0.0,0.0,0.0,0.0,0.0,0.0,5.4478,5.4478,5.4478,0.0,0.0,0.0,0.0,0.0,5.7843,5.8528,5.93,5.9182,5.9627,6.034,6.1149,6.1407,0.0,0.0,0.0,0.0,0.0,6.2095,6.1745,6.169,6.101,6.0333,5.9741,5.9629,5.996,6.0917,6.1362,6.2121,6.3478,6.36,6.36,6.36,6.36,6.36,6.36,6.36,6.36,6.36,6.36,6.3767,6.4164,6.4787,6.5319,6.5605,6.67,6.7405,6.77,6.77,6.77,6.77,6.77,6.77,6.77,6.77,6.77,6.77,6.77,6.7941,6.8395,6.9213,6.9842,7.0337,0.0,0.0,0.0,0.0,0.0,0.0,0.0,0.0,0.0,0.0,0.0,0.0,0.0,0.0,0.0,0.0,0.0,0.0,0.0,0.0,4.5397,4.5397,4.5397,4.5397,4.5397,4.5397,4.5397,4.5397,4.5569,4.6479,4.7996,4.9341,5.0011,5.0011,5.0011,5.0011,5.0011,5.0011,5.0114,5.0306,0.0,0.0,0.0,0.0,0.0,0.0,0.0,0.0,0.0,0.0,0.0,0.0,0.0,0.0,0.0,5.5999,5.7224,5.8547,5.7827,5.8187,5.8909,5.9297,0.0,6.0661,6.1612,6.1723,0.0,0.0,0.0,0.0,0.0,6.1634,6.1272,6.1514,6.0831,6.0062,5.9527,5.9253,5.9523,6.0642,6.1313,6.2161,6.3404,6.3581,6.36,6.36,6.36,6.36,6.36,6.36,6.36,6.36,6.36,6.3913,6.4601,6.5251,6.5669,6.5878,6.7132,6.77,6.77,6.77,6.77,6.77,6.77,6.77,6.77,6.77,6.77,6.77,6.77,6.8147,6.8893,6.9796,7.0462,7.0898,0.0,0.0,0.0,0.0,0.0,0.0,0.0,0.0,0.0,0.0,0.0,0.0,0.0,0.0,0.0,0.0,0.0,0.0,0.0,0.0,4.5397,4.5397,4.5397,4.5397,4.5397,4.5397,4.5397,4.5397,4.6134,4.7272,4.8741,4.9582,5.0011,5.0011,5.0011,5.0011,5.0011,5.0011,5.041,5.1099,5.1824,0.0,0.0,0.0,0.0,0.0,0.0,0.0,0.0,0.0,0.0,0.0,0.0,0.0,5.6269,5.6637,5.7552,5.839,5.7758,5.8187,5.8909,5.9297,5.9496,0.0,6.1322,6.1668,0.0,6.2438,0.0,0.0,0.0,6.093,6.0509,6.061,5.9982,5.9511,5.966,5.9012,5.9087,6.0556,6.0909,6.1654,6.3165,6.3489,6.36,6.36,6.36,6.36,6.36,6.36,6.36,6.36,6.36,6.3913,6.4601,6.5251,6.594,6.6633,6.7364,6.77,6.77,6.77,6.77,6.77,6.77,6.77,6.77,6.77,6.77,6.77,6.77,6.8308,6.9302,6.9842,7.0377,7.0898,0.0,0.0,0.0,0.0,0.0,0.0,0.0,0.0,0.0,0.0,0.0,0.0,0.0,0.0,0.0,0.0,0.0,0.0,0.0,0.0,4.5397,4.5397,4.5397,4.5397,4.5397,4.5397,4.5397,4.5397,4.6686,4.7789,4.881,4.9617,5.0011,5.0011,5.0011,5.0011,5.0011,5.0011,5.0424,5.1168,5.1892,5.2686,0.0,0.0,0.0,0.0,0.0,0.0,0.0,0.0,5.4478,5.4601,5.5246,5.5804,5.6269,5.6522,5.7415,5.8195,5.7586,5.8014,5.8702,5.9095,5.9028,0.0,0.0,6.1618,6.1682,6.1806,6.1901,0.0,0.0,6.0751,6.0504,5.9899,5.9709,5.9397,5.8823,5.8509,5.8705,5.9709,6.0327,6.1136,6.2327,6.2915,6.3246,6.3246,6.334,6.3414,6.3414,6.3526,6.36,6.36,6.36,6.4111,6.5221,6.5462,6.6186,6.7336,6.7593,6.77,6.77,6.77,6.77,6.77,6.77,6.77,6.77,6.77,6.77,6.7767,6.8333,6.9064,6.9776,7.0276,7.0631,7.0898,0.0,0.0,0.0,0.0,0.0,0.0,0.0,0.0,0.0,0.0,0.0,0.0,0.0,0.0,0.0,0.0,0.0,0.0,4.5397,4.5397,4.5397,4.5397,4.5397,4.5397,4.5397,4.5397,4.55,4.5776,4.7293,4.8444,4.9203,4.972,5.0011,5.0011,5.0011,5.0011,5.0011,5.0237,5.0755,5.1513,5.2272,5.303,0.0,0.0,0.0,0.0,0.0,0.0,0.0,0.0,5.4651,5.4945,5.5624,5.6215,5.6713,5.7106,5.7774,5.8265,5.7823,5.808,5.8562,5.8823,0.0,0.0,6.0519,6.0909,6.0953,6.1135,6.1011,6.0745,6.018,0.0,6.0055,5.918,5.9314,5.9197,5.8314,5.8169,5.8371,5.9118,5.975,6.0557,6.171,6.2332,6.2745,6.2966,6.3133,6.3227,6.3283,6.3433,6.3544,6.36,6.36,6.4235,6.5574,6.559,6.6307,6.77,6.77,6.77,6.77,6.77,6.77,6.77,6.77,6.77,6.77,6.77,6.7807,6.8007,6.8948,6.9615,7.0068,7.0516,7.0772,7.0898,0.0,0.0,0.0,0.0,0.0,0.0,0.0,0.0,0.0,0.0,0.0,0.0,0.0,0.0,0.0,0.0,0.0,0.0,4.5397,4.5397,4.5397,4.5397,4.5397,4.5397,4.5397,4.5397,4.5811,4.6617,4.81,4.9203,5.0011,5.0011,5.0011,5.0011,5.0011,5.0011,5.008,5.0789,5.1513,5.2272,5.308,5.3839,5.4478,0.0,0.0,0.0,0.0,0.0,0.0,0.0,5.4996,5.5754,5.6547,5.7155,5.7758,5.8565,5.8771,5.877,5.8543,5.8508,5.8508,5.8508,0.0,0.0,5.9145,5.9395,5.9658,6.0524,6.0011,5.9395,5.9395,5.9211,5.8892,5.8296,5.8685,5.8875,5.8278,5.8009,5.8152,5.8912,5.9183,5.9889,6.142,6.176,6.218,6.2931,6.2966,6.3061,6.3265,6.3283,6.3377,6.36,6.3618,6.4253,6.5574,6.5605,6.6307,6.77,6.77,6.77,6.77,6.77,6.77,6.77,6.77,6.77,6.77,6.77,6.7969,6.8477,6.9416,6.9861,7.0038,7.0516,7.0772,7.0898,0.0,0.0,0.0,0.0,0.0,0.0,0.0,0.0,0.0,0.0,0.0,0.0,0.0,0.0,0.0,0.0,0.0,0.0,4.5397,4.5397,4.5397,4.5397,4.5397,4.5397,4.5397,4.6479,4.7134,4.7376,4.8341,4.9203,5.0011,5.0011,5.0011,5.0011,5.0011,5.0272,5.0789,5.0996,5.1858,5.308,5.3287,5.3839,5.4478,0.0,0.0,0.0,0.0,0.0,0.0,0.0,0.0,0.0,5.6798,5.7192,5.7412,5.8338,5.8401,5.8171,5.8277,5.8401,5.8472,5.833,0.0,0.0,0.0,5.8892,0.0,0.0,5.9445,5.8685,5.9129,5.8892,5.851,5.8063,5.8244,5.8351,5.8027,5.7936,5.8001,5.8186,5.8749,5.926,5.9734,6.0299,6.071,6.0947,6.1624,6.2044,6.2101,6.2878,6.3321,6.3377,6.3985,6.4669,6.5433,6.6084,6.6765,6.7552,6.7647,6.77,6.77,6.77,6.77,6.77,6.77,6.77,6.7691,6.738,6.7761,6.8442,6.8111,6.8645,6.9574,6.9712,7.0273,7.0925,0.0,0.0,0.0,0.0,0.0,0.0,0.0,0.0,0.0,0.0,4.5397,4.5397,0.0,0.0,0.0,0.0,0.0,0.0,0.0,4.5397,4.5397,4.5397,4.5397,4.5535,4.5858,4.7376,4.8134,4.8134,4.8893,4.9513,5.0011,5.0011,5.0011,5.0011,5.0011,5.0424,5.1134,5.141,5.2237,5.3425,5.3736,5.4115,5.4478,0.0,0.0,0.0,0.0,0.0,0.0,0.0,0.0,0.0,5.6987,5.7533,5.7874,5.8353,5.8384,5.8294,5.8419,5.8525,5.8578,5.8472,5.8419,5.833,5.8117,0.0,0.0,0.0,5.8823,5.8314,5.8668,5.8492,5.8171,5.7936,5.7991,5.8027,5.7918,5.79,5.79,5.79,5.8287,5.8693,5.8979,5.9385,5.9776,6.008,6.0668,6.1053,6.1182,6.1797,6.2205,6.2298,6.2815,6.35,6.4347,6.4885,6.5634,6.6532,6.6626,6.6666,6.6703,6.738,6.7517,6.72,6.7042,6.6971,6.6998,6.709,6.7471,6.7958,6.7619,6.8084,6.8944,6.9289,6.9851,7.0515,0.0,0.0,4.4708,4.4763,0.0,0.0,0.0,0.0,0.0,0.0,4.5397,4.5397,0.0,0.0,0.0,0.0,0.0,0.0,0.0,0.0,4.5397,4.5397,4.5466,4.5893,4.6686,4.81,4.8844,4.8927,4.9651,5.0011,5.0011,5.0011,5.0011,5.0011,5.0011,5.0459,5.1237,5.1927,5.2686,5.3563,5.4221,5.4463,5.4463,5.4447,0.0,0.0,0.0,0.0,0.0,0.0,0.0,0.0,5.7226,5.7997,5.8684,5.8525,5.8596,5.8718,5.8701,5.8736,5.8753,5.8736,5.8472,5.8169,5.7936,5.8027,5.8153,5.8153,5.8153,5.8153,5.8153,5.8009,5.79,5.79,5.79,5.79,5.79,5.79,5.79,5.79,5.79,5.8152,5.881,5.8912,5.9182,5.9844,5.9945,6.0088,6.0343,6.0396,6.0508,6.0745,6.0855,6.1484,6.2673,6.2832,6.3609,6.4975,6.5078,6.5105,6.5141,6.6753,6.7076,6.6355,6.6026,6.5905,6.6021,6.6773,6.7115,6.7179,6.754,6.7852,6.8184,6.8905,6.939,6.9823,0.0,0.0,4.4804,4.5177,0.0,0.0,0.0,0.0,0.0,0.0,0.0,0.0,0.0,0.0,0.0,0.0,0.0,0.0,0.0,0.0,4.5397,4.5397,4.5996,4.6686,4.7445,4.8341,4.91,4.972,4.9942,5.0011,5.0011,5.0011,5.0011,5.0011,5.0011,5.072,5.1961,5.2134,5.2996,5.4272,5.4267,5.4271,5.4255,5.4143,5.4094,0.0,0.0,0.0,0.0,0.0,0.0,0.0,5.8029,5.8176,5.8099,5.8241,5.8312,5.8278,5.8151,5.833,5.8525,5.8384,5.8243,5.8169,5.7936,5.7936,5.7954,5.7954,5.7954,5.7954,5.7954,5.7918,5.79,5.79,5.79,5.79,5.79,5.79,5.79,5.79,5.79,5.7967,5.8118,5.8118,5.8186,5.8373,5.893,5.9268,5.9324,6.0016,6.0467,6.0557,6.1237,6.1658,6.1864,6.3022,6.3752,6.408,6.4763,6.5105,6.5105,6.5603,6.5742,6.5584,6.5816,6.6112,6.6432,6.6324,6.6479,6.6755,6.6185,6.6436,6.718,6.7372,6.8391,6.9778,0.0,0.0,0.0,0.0,0.0,0.0,0.0,0.0,0.0,0.0,0.0,0.0,0.0,4.5397,0.0,0.0,4.5397,4.5397,4.5397,4.5397,4.5569,4.5962,4.672,4.7479,4.8203,4.8996,4.9582,5.0011,5.0011,5.0011,0.0,5.0011,5.0011,5.0011,5.0375,5.1134,5.2237,5.2506,5.3301,5.4335,5.4175,5.4143,5.4191,5.4127,5.4159,5.4207,5.4045,0.0,0.0,0.0,0.0,0.0,0.0,0.0,5.7536,5.7643,5.7899,5.8241,5.8312,5.8419,5.8455,5.8259,5.8117,5.8009,5.7918,5.79,5.79,5.79,5.79,5.79,5.79,5.79,5.79,5.79,5.79,5.79,5.79,5.79,5.79,5.79,5.79,5.79,5.79,5.79,5.79,5.79,5.8254,5.8457,5.8457,5.8921,5.9232,5.9266,5.9691,6.0046,6.0307,6.1415,6.2158,6.255,6.3353,6.3766,6.3933,6.4352,6.4741,6.4992,6.5016,6.5307,6.5747,6.5705,6.5852,6.6025,6.5566,6.5778,6.6336,6.6758,6.7865,6.9307,0.0,0.0,0.0,0.0,0.0,0.0,0.0,0.0,0.0,0.0,0.0,0.0,0.0,4.5397,4.5397,0.0,0.0,0.0,4.5397,4.5397,4.5742,4.6548,4.7307,4.8065,4.8775,4.9582,5.0011,5.0011,5.0011,0.0,0.0,0.0,0.0,5.0031,5.0755,5.1498,5.2226,5.2826,5.3503,5.4159,5.4013,5.4013,5.4127,0.0,0.0,0.0,5.3997,5.4017,5.4206,5.4534,0.0,0.0,0.0,0.0,5.703,5.703,5.7609,5.8277,5.8561,5.8525,5.8366,5.8205,5.8009,5.79,5.79,5.79,5.79,5.79,5.79,5.79,5.79,5.79,5.79,5.79,5.79,5.79,5.79,5.79,5.79,5.79,5.79,5.79,5.79,5.79,5.79,5.79,5.79,5.79,5.79,5.79,5.79,5.79,5.79,5.8173,5.872,5.9578,6.0344,6.1039,6.1823,6.2331,6.2603,6.326,6.3872,6.4378,6.4198,6.4331,6.4721,6.522,6.5413,6.5413,6.5413,6.5472,6.5678,6.6413,6.7461,6.862,0.0,0.0,0.0,0.0,0.0,0.0,0.0,0.0,0.0,0.0,4.5397,4.5397,4.5397,4.5397,4.5397,4.5397,4.5397,4.5397,4.5397,0.0,0.0,4.6548,4.7307,4.8065,4.8775,4.9582,5.0011,5.0011,0.0,0.0,0.0,0.0,0.0,5.0031,0.0,5.1453,5.2073,5.2779,5.3473,5.4013,5.3816,5.3767,0.0,0.0,0.0,0.0,0.0,0.0,5.4788,5.4839,5.5281,0.0,0.0,0.0,5.6835,5.6835,5.7502,5.8153,5.8045,5.7991,5.7954,5.7936,5.7918,5.79,5.79,5.79,5.79,5.79,5.79,5.79,5.79,5.79,5.79,5.79,5.79,5.79,5.79,5.79,5.79,5.79,5.79,5.79,5.79,5.79,5.79,5.79,5.79,5.79,5.79,5.79,5.79,5.79,5.79,5.7936,5.8011,5.9331,6.0109,6.034,6.1592,6.2331,6.2603,6.2584,6.2773,6.3101,6.3798,6.4126,6.4245,6.5077,6.5413,6.5413,6.5413,6.5472,6.5601,6.5716,6.6525,6.7725,0.0,0.0,0.0,0.0,0.0,0.0,0.0,0.0,0.0,0.0,0.0,4.5397,4.5397,4.5397,4.5397,4.5397,4.5397,4.5397,4.5397,4.5824,4.641,4.7169,4.7927,4.8686,4.9444,4.9824,5.0011,5.0011,0.0,0.0,0.0,5.0011,5.0011,0.0,0.0,0.0,0.0,5.3038,5.3591,5.3816,5.3668,0.0,0.0,0.0,0.0,0.0,0.0,0.0,0.0,0.0,5.433,5.4601,5.4601,0.0,0.0,0.0,5.7056,5.8009,5.7918,5.7972,5.8027,5.7918,5.79,5.79,5.79,5.79,5.79,5.79,5.79,5.79,5.79,5.79,5.79,5.79,5.79,5.79,5.79,5.79,5.79,5.79,5.79,5.79,5.79,5.79,5.79,5.79,5.79,5.79,5.79,5.79,5.79,5.79,5.79,5.8065,5.8458,5.948,6.0406,6.1206,6.1804,6.2208,6.237,6.2384,6.283,6.3554,6.3923,6.4398,6.4862,6.5252,6.5413,6.5413,6.5413,6.5472,6.5601,6.5601,6.6391,6.7653,0.0,0.0,0.0,0.0,0.0,0.0,0.0,0.0,0.0,0.0,0.0,4.5397,4.5397,0.0,0.0,0.0,4.5397,4.55,4.5673,4.6272,4.6996,4.7927,4.8513,4.9169,4.9976,5.0011,5.0011,0.0,0.0,0.0,5.0011,4.9967,5.0007,0.0,5.1451,0.0,0.0,0.0,0.0,0.0,0.0,0.0,0.0,0.0,0.0,0.0,0.0,0.0,0.0,0.0,0.0,5.3518,5.3518,5.4515,0.0,0.0,0.0,5.79,5.79,5.7991,5.8081,5.7936,5.79,5.79,5.79,5.79,5.79,5.79,5.79,5.79,5.79,5.79,5.79,5.79,5.79,5.79,5.79,5.79,5.79,5.79,5.79,5.79,5.79,5.79,5.79,5.79,5.79,5.79,5.79,5.79,5.79,5.79,5.79,5.8226,5.8875,5.9822,6.0837,6.1992,6.1992,6.2073,6.2185,6.2318,6.2988,6.4056,6.4076,6.4538,6.5259,6.5345,6.5413,6.5413,6.5413,6.5472,6.5608,6.5645,6.6361,6.7417,0.0,0.0,0.0,0.0,0.0,0.0,0.0,0.0,0.0,0.0,0.0,4.5397,4.5397,4.5397,4.5397,4.5397,4.5397,4.5707,4.6479,4.6583,4.7238,4.8686,4.8775,0.0,4.9976,5.0011,0.0,0.0,0.0,0.0,4.9996,4.9781,5.0086,5.0772,5.1646,5.2214,5.2611,0.0,0.0,0.0,0.0,0.0,0.0,0.0,0.0,0.0,0.0,0.0,0.0,0.0,0.0,0.0,0.0,0.0,5.5699,0.0,0.0,0.0,5.79,5.79,5.79,5.79,5.79,5.79,5.79,5.79,5.79,5.79,5.79,5.79,5.79,5.79,5.79,5.79,5.79,5.79,5.79,5.79,5.79,5.79,5.79,5.79,5.79,5.79,5.79,5.79,5.79,5.79,5.79,5.79,5.79,5.79,5.79,5.8226,5.8875,6.0246,6.1315,6.1992,6.1992,6.2073,6.2185,6.2318,6.294,6.3917,6.4046,6.4388,6.4845,6.5252,6.5413,6.5413,6.5413,6.5472,6.5635,6.5792,6.6104,6.6648,0.0,0.0,0.0,0.0,0.0,0.0,0.0,0.0,0.0,0.0,0.0,0.0,0.0,4.5397,4.5397,4.5397,4.588,4.6307,4.6583,4.7479,4.8238,4.8775,4.9306,4.972,4.9996,5.0011,0.0,0.0,0.0,4.9918,4.9816,4.9723,5.024,5.1253,5.156,5.2027,5.2631,5.3313,0.0,0.0,0.0,0.0,0.0,0.0,0.0,0.0,0.0,0.0,0.0,0.0,0.0,0.0,0.0,0.0,0.0,0.0,0.0,5.79,5.79,5.79,5.79,5.79,5.79,5.79,5.79,5.79,5.79,5.79,5.79,5.79,5.79,5.79,5.79,5.79,5.79,5.79,5.79,5.79,5.79,5.79,5.79,5.79,5.79,5.79,5.79,5.79,5.79,5.79,5.79,5.79,5.79,5.79,5.8299,5.9113,6.0231,6.0741,6.1343,6.1992,6.1992,6.2019,6.2087,6.2528,6.3094,6.3813,6.4235,6.4693,6.5212,6.5329,6.5413,6.5413,6.5413,6.5472,6.5635,6.5848,6.6075,6.657,0.0,0.0,0.0,0.0,0.0,4.5397,0.0,0.0,0.0,0.0,0.0,0.0,0.0,0.0,4.55,4.5776,4.6307,4.6789,4.7307,4.8272,4.8927,4.9203,4.972,5.0011,5.0011,0.0,0.0,0.0,0.0,0.0,0.0,4.956,5.0245,5.1489,5.1426,5.1971,0.0,0.0,0.0,5.3518,0.0,0.0,5.3518,0.0,0.0,0.0,0.0,0.0,0.0,0.0,0.0,0.0,0.0,0.0,0.0,0.0,0.0,0.0,5.79,0.0,0.0,5.79,5.79,5.79,5.79,5.79,5.79,5.79,5.79,5.79,5.79,5.79,5.79,5.79,5.79,5.79,5.79,5.79,5.79,5.79,5.79,5.79,5.79,5.79,5.79,5.79,5.79,5.79,5.79,5.79,5.79,5.79,5.8772,5.9706,6.0651,6.1104,6.1579,6.1992,6.1992,6.1992,6.2005,6.2606,6.3187,6.3712,6.4341,6.4905,6.5413,6.5413,6.5413,6.5413,6.5405,6.5559,6.575,6.5915,6.6191,6.6682,0.0,4.5397,4.5397,4.5397,4.5397,4.5397,4.5397,0.0,0.0,0.0,0.0,0.0,0.0,0.0,0.0,4.6514,4.6652,4.7272,4.872,4.881,4.9169,4.9976,5.0011,5.0011,5.0011,0.0,0.0,0.0,0.0,0.0,0.0,0.0,5.003,5.1473,5.1315,5.208,5.3518,0.0,5.3518,5.3518,0.0,5.3518,5.3518,0.0,0.0,0.0,5.3518,5.3518,0.0,5.3518,0.0,0.0,0.0,0.0,0.0,0.0,0.0,0.0,0.0,0.0,0.0,5.79,5.79,5.79,5.79,5.79,5.79,5.79,5.79,5.79,5.79,5.79,5.79,5.79,5.79,5.79,5.79,5.79,5.79,5.79,5.79,5.79,5.79,5.79,5.79,5.79,5.79,5.79,5.79,5.7918,5.7936,5.7954,5.9281,6.0014,6.0046,6.1329,6.1964,6.1992,6.1992,6.1992,6.2033,6.2644,6.3211,6.3734,6.436,6.4913,6.5413,6.5413,6.5413,6.5421,6.5465,6.5653,6.5903,6.613,6.6379,6.688,4.5371,4.5397,4.5397,4.5397,4.5397,4.5397,0.0,0.0,0.0,0.0,0.0,0.0,0.0,0.0,0.0,4.6583,4.7582,4.8376,4.8775,4.9341,4.9769,4.9996,5.0011,5.0011,5.0011,0.0,0.0,0.0,0.0,0.0,0.0,0.0,0.0,0.0,5.1775,5.257,5.3518,5.3518,0.0,5.3518,5.3518,5.3518,0.0,0.0,0.0,0.0,0.0,5.3518,5.3518,0.0,5.3518,5.3687,0.0,0.0,0.0,0.0,0.0,0.0,5.79,0.0,0.0,0.0,0.0,0.0,5.79,5.79,5.79,5.79,5.79,5.79,5.79,5.79,5.79,5.79,5.79,5.79,5.79,5.79,5.79,5.79,5.79,5.79,5.79,5.79,5.79,5.79,5.79,5.79,5.79,5.8352,5.8858,5.9397,5.979,6.0488,6.143,6.1343,6.1501,6.1992,6.1992,6.2172,6.253,6.3117,6.3686,6.4254,6.4836,6.5212,6.5413,6.5413,6.5413,6.5421,6.5465,6.5653,6.5903,6.613,6.6379,6.6883,4.5371,4.5397,4.5397,4.5397,4.5397,4.5397,0.0,0.0,0.0,0.0,0.0,0.0,0.0,0.0,0.0,4.7479,4.8307,4.8962,4.9272,4.972,5.0011,5.0011,5.0011,5.0011,0.0,0.0,0.0,0.0,0.0,0.0,0.0,0.0,0.0,0.0,5.1961,5.2739,0.0,0.0,0.0,0.0,5.3518,0.0,0.0,5.3518,5.3518,0.0,0.0,0.0,5.3518,5.3518,5.3687,0.0,0.0,0.0,0.0,0.0,0.0,0.0,0.0,0.0,0.0,0.0,0.0,0.0,5.79,5.79,5.79,5.79,5.79,5.79,5.79,5.79,5.79,5.79,5.79,5.79,5.79,5.79,5.79,5.79,5.79,5.79,5.79,5.79,5.79,5.79,5.79,5.8045,5.8281,5.8685,5.9264,5.9966,6.0266,6.0807,6.1594,6.1472,6.1622,6.1992,6.1992,6.2265,6.272,6.3337,6.3876,6.4426,6.5057,6.5337,6.5413,6.5413,6.5413,6.5436,6.5604,6.5804,6.6002,6.626,6.6749,6.7444,0.0,4.5397,4.5397,4.5397,4.5397,4.5397,0.0,0.0,0.0,0.0,0.0,0.0,0.0,0.0,0.0,0.0,4.8893,4.9238,4.9927,5.0011,0.0,0.0,0.0,0.0,0.0,0.0,0.0,0.0,0.0,0.0,0.0,0.0,0.0,0.0,5.2063,5.2841,5.3518,0.0,0.0,5.3518,5.3518,5.3518,0.0,0.0,5.3518,5.3518,5.3518,5.3518,5.3518,5.3585,5.4126,0.0,0.0,0.0,0.0,0.0,5.79,0.0,0.0,0.0,0.0,0.0,5.79,0.0,5.79,5.79,5.79,5.79,5.79,5.79,5.79,5.79,5.79,5.79,5.79,5.79,5.79,5.79,5.79,5.79,5.79,5.79,5.79,5.79,5.79,5.79,5.79,5.8191,5.8875,5.8994,5.938,6.0078,6.0777,6.1104,6.1104,6.1692,6.1992,6.1992,6.206,6.2334,6.2831,6.3427,6.3995,6.4548,6.509,6.5344,6.5413,6.5413,6.5428,6.5472,6.5761,6.5982,6.6169,6.6492,6.7241,6.8202,4.5384,4.5397,4.5397,4.5397,4.5397,0.0,0.0,0.0,0.0,0.0,0.0,0.0,0.0,0.0,0.0,0.0,4.9375,4.9824,5.0011,0.0,0.0,0.0,0.0,0.0,0.0,0.0,0.0,0.0,0.0,0.0,0.0,0.0,0.0,0.0,5.2655,5.3348,5.3518,0.0,0.0,5.3518,5.3518,0.0,5.3518,5.3518,5.3518,5.3518,5.3518,5.3518,5.3585,5.4194,5.4871,5.5597,0.0,0.0,0.0,5.7866,0.0,0.0,0.0,0.0,0.0,0.0,0.0,0.0,5.79,5.79,5.79,5.79,5.79,5.79,5.79,5.79,5.79,5.79,5.79,5.79,5.79,5.79,5.79,5.79,5.79,5.79,5.79,5.79,5.79,5.79,5.79,5.8191,5.8875,5.948,6.0109,6.0772,6.1444,6.179,6.179,6.1937,6.1992,6.1992,6.2399,6.288,6.345,6.3978,6.4566,6.5131,6.5321,6.5398,6.5398,6.5566,6.5621,6.5641,6.5833,6.6109,6.6439,6.6563,6.7241,6.8203,4.5397,4.5397,4.5397,4.5397,0.0,0.0,0.0,0.0,0.0,0.0,0.0,0.0,0.0,0.0,0.0,0.0,0.0,0.0,0.0,0.0,0.0,0.0,0.0,0.0,0.0,0.0,0.0,0.0,0.0,0.0,0.0,0.0,0.0,0.0,0.0,0.0,0.0,0.0,5.3518,5.3518,5.3518,0.0,5.3551,5.3923,5.4059,5.4093,5.4465,5.4583,5.4651,5.504,5.5649,0.0,5.6697,5.7306,5.79,0.0,5.79,5.79,0.0,0.0,0.0,5.79,0.0,0.0,0.0,5.79,5.79,5.79,5.7629,5.734,5.734,5.734,5.734,5.734,5.7645,5.79,5.79,5.79,5.79,5.79,5.79,5.79,5.79,5.79,5.79,5.79,5.8209,5.872,5.943,6.0125,6.0822,6.1472,6.1804,6.1992,6.1992,6.1992,6.1992,6.1992,6.253,6.307,6.3626,6.4225,6.4792,6.529,6.5375,6.5465,6.5538,6.5647,6.5836,6.6075,6.6156,6.6307,6.6504,6.6638,6.7554,6.8798,4.5397,4.5397,4.5397,4.5397,0.0,0.0,0.0,0.0,0.0,0.0,0.0,0.0,0.0,0.0,0.0,0.0,0.0,0.0,0.0,0.0,0.0,0.0,0.0,4.9426,0.0,0.0,0.0,0.0,0.0,0.0,0.0,0.0,0.0,0.0,0.0,0.0,0.0,0.0,0.0,5.3518,0.0,5.3721,5.3788,5.4532,5.4803,5.4871,5.5496,5.5699,5.5733,5.5868,5.6325,5.6833,5.6968,5.7408,0.0,0.0,0.0,0.0,0.0,0.0,0.0,0.0,0.0,5.79,0.0,0.0,0.0,5.79,5.7306,5.6799,5.6799,5.6697,5.6528,5.6393,5.7002,5.7408,5.7273,5.7392,5.7577,5.7866,5.79,5.79,5.79,5.79,5.7954,5.8065,5.8581,5.9263,6.0141,6.0732,6.1315,6.1964,6.1992,6.1992,6.1992,6.1992,6.206,6.2172,6.2769,6.3291,6.3829,6.4455,6.4951,6.5321,6.5413,6.5569,6.5711,6.581,6.6075,6.6425,6.6494,6.6501,6.6603,6.6928,6.8053,6.9431,4.5397,4.5397,4.5397,4.5397,0.0,0.0,0.0,0.0,0.0,0.0,0.0,0.0,0.0,0.0,0.0,0.0,0.0,0.0,4.9708,0.0,0.0,0.0,0.0,0.0,4.9229,0.0,0.0,0.0,0.0,0.0,0.0,0.0,0.0,0.0,5.3145,0.0,0.0,0.0,5.3518,0.0,5.4194,5.4482,0.0,5.531,5.5564,5.5597,5.5665,5.5699,5.58,0.0,5.6731,5.69,0.0,5.7832,5.79,5.79,0.0,0.0,0.0,0.0,0.0,0.0,5.79,0.0,5.79,0.0,5.79,5.79,0.0,5.6799,5.6799,0.0,0.0,5.4938,5.548,5.5716,5.5091,5.5547,5.6461,5.7746,5.79,5.79,5.79,5.79,5.8137,5.8737,5.8875,5.9478,6.0837,6.0971,6.1315,6.1964,6.1992,6.1992,6.1992,6.1992,6.2278,6.2818,6.328,6.3871,6.4511,6.4985,6.529,6.5413,6.5586,6.5673,6.5736,6.6157,6.6403,6.65,6.6504,6.659,6.6842,6.7646,6.856,6.9509,4.5397,4.5397,4.5397,4.5397,0.0,0.0,0.0,0.0,0.0,0.0,0.0,0.0,0.0,0.0,0.0,0.0,0.0,4.9772,0.0,0.0,0.0,0.0,0.0,0.0,0.0,0.0,0.0,0.0,4.9947,0.0,0.0,0.0,0.0,0.0,5.3348,0.0,5.3551,0.0,5.4126,0.0,5.5412,5.5886,5.5919,5.6224,5.6596,5.6968,5.6968,5.6968,5.7036,5.734,5.7442,0.0,0.0,0.0,0.0,5.79,0.0,0.0,0.0,0.0,0.0,0.0,0.0,0.0,5.79,0.0,5.7798,5.734,0.0,0.0,0.0,0.0,0.0,0.0,5.5209,5.5597,5.5277,5.5496,5.5936,5.6562,5.7002,5.7408,5.7866,5.79,5.8173,5.8858,5.9314,5.9982,6.0956,6.1372,6.1706,6.1978,6.1992,6.1992,6.1992,6.237,6.2644,6.2892,6.3777,6.4312,6.4612,6.5147,6.5443,6.5572,6.5654,6.5836,6.6133,6.6318,6.6507,6.6688,6.6663,6.6746,6.6904,6.7768,6.8643,6.9516,4.5721,0.0,0.0,0.0,0.0,0.0,0.0,0.0,0.0,0.0,0.0,0.0,4.9918,4.9903,0.0,0.0,4.9737,4.9619,0.0,0.0,4.9199,0.0,0.0,0.0,0.0,0.0,0.0,0.0,0.0,0.0,0.0,0.0,0.0,0.0,0.0,5.3518,5.3551,0.0,5.4617,5.4735,5.6224,5.6934,5.7103,5.7103,5.7442,5.79,5.79,5.79,5.79,5.79,5.79,5.79,5.79,5.79,5.79,0.0,0.0,0.0,5.79,0.0,0.0,0.0,0.0,0.0,0.0,0.0,0.0,5.6934,5.6206,0.0,0.0,0.0,0.0,0.0,0.0,5.5023,5.4786,5.4955,5.5259,5.5665,5.6172,5.6697,5.7239,5.7306,5.7751,5.88,5.9359,6.0147,6.1206,6.1734,6.1992,6.1992,6.1992,6.2005,6.2046,6.2606,6.2988,6.3176,6.4146,6.4666,6.4836,6.5236,6.5506,6.5705,6.5779,6.6044,6.6396,6.6478,6.6618,6.6785,6.6805,6.6783,6.6913,6.8048,6.8851,6.9529,4.6548,4.6548,0.0,0.0,0.0,0.0,0.0,0.0,0.0,0.0,0.0,0.0,0.0,0.0,0.0,0.0,0.0,4.956,4.9229,0.0,4.9335,0.0,0.0,4.9323,0.0,0.0,0.0,0.0,0.0,0.0,0.0,0.0,0.0,0.0,5.3518,5.3518,5.3551,5.4296,5.4617,5.4735,5.6224,5.7239,5.7866,5.7866,5.79,5.79,5.79,5.79,5.79,5.79,5.79,5.79,5.79,5.79,5.79,5.79,5.79,0.0,5.79,5.79,5.79,5.79,5.79,5.79,5.79,5.79,5.7679,5.6934,5.6206,5.5462,0.0,0.0,0.0,0.0,0.0,0.0,0.0,5.3078,5.4093,5.553,5.5733,5.5733,5.5767,5.5767,5.6594,5.8628,5.8823,5.9744,6.1859,6.1978,6.1992,6.1992,6.1992,6.206,6.2172,6.2657,6.3222,6.3876,6.436,6.487,6.5352,6.5406,6.5506,6.5718,6.5964,6.6219,6.6403,6.6613,6.6722,6.6785,6.6805,6.6783,6.6993,6.8722,6.9334,6.9558,4.7341,0.0,0.0,0.0,0.0,0.0,0.0,4.9838,0.0,0.0,5.0011,0.0,0.0,5.0612,5.0789,0.0,0.0,5.1127,5.0847,5.0834,0.0,0.0,0.0,5.0558,0.0,0.0,0.0,0.0,0.0,0.0,0.0,0.0,0.0,0.0,0.0,5.3788,5.4262,5.5006,5.5615,5.6122,5.7137,5.7697,5.79,5.79,5.79,5.79,5.79,5.79,5.79,5.79,5.79,5.79,5.79,5.79,5.79,5.79,5.79,5.79,5.79,5.79,5.79,5.79,5.79,5.79,5.79,5.79,5.7543,5.6308,5.5868,5.5327,0.0,0.0,0.0,0.0,0.0,0.0,0.0,5.3348,5.3687,5.4194,5.4668,5.5175,5.5665,5.6133,5.6916,5.8108,5.8668,5.9629,6.1253,6.1329,6.1583,6.2105,6.2141,6.2208,6.2318,6.3141,6.3675,6.3917,6.4737,6.5205,6.5383,6.5549,6.5711,6.5964,6.6181,6.64,6.6618,6.6704,6.6777,6.6787,6.6817,6.6812,6.6988,6.8671,6.9295,6.951,4.81,4.872,0.0,0.0,0.0,0.0,0.0,0.0,0.0,0.0,5.0617,0.0,5.1369,0.0,5.1489,0.0,5.1866,5.1741,5.1537,5.1505,0.0,5.1201,5.1201,0.0,0.0,0.0,0.0,0.0,0.0,5.2976,5.3518,5.3518,0.0,0.0,0.0,5.416,5.4685,5.5683,5.6393,5.6867,5.7577,5.79,5.79,5.79,5.79,5.79,5.79,5.79,5.79,5.79,5.79,5.79,5.79,5.79,5.79,5.79,5.79,5.79,5.79,5.79,5.79,5.79,5.79,5.79,5.79,5.79,5.7561,5.6341,5.5868,5.5327,5.4126,0.0,0.0,0.0,0.0,0.0,0.0,5.3518,5.3518,5.3518,5.3923,5.4414,5.4957,5.5414,5.6232,5.7499,5.8011,5.8978,6.0563,6.0638,6.1002,6.1815,6.1828,6.2131,6.2706,6.3479,6.4009,6.4235,6.5005,6.5413,6.5421,6.5613,6.5845,6.6118,6.6316,6.6523,6.6727,6.6769,6.6787,6.68,6.6807,6.6988,6.7382,6.8746,6.958,7.0199,4.8858,4.9479,4.9755,4.9031,4.9513,4.9996,5.0031,5.0651,5.1099,0.0,5.1755,5.2142,5.2073,5.1869,5.1731,5.1623,5.1591,5.1545,5.1335,5.1513,0.0,0.0,5.1302,5.1641,5.2334,0.0,0.0,0.0,0.0,0.0,5.3518,5.3518,5.3518,5.3585,5.4296,5.4651,5.4803,5.619,5.6833,5.6934,5.7611,5.79,5.79,5.79,5.79,5.79,5.79,5.79,5.79,5.79,5.79,5.79,5.79,5.79,5.79,5.79,5.79,5.79,5.79,5.79,5.79,5.79,5.79,5.79,5.79,5.79,5.7679,5.6934,5.624,5.553,5.4735,0.0,0.0,0.0,0.0,0.0,0.0,0.0,5.3518,5.3518,5.3518,5.3551,5.3701,5.3749,5.4685,5.6799,5.6993,5.792,5.9854,5.9941,6.0318,6.1133,6.1195,6.1887,6.3234,6.3707,6.4235,6.4792,6.522,6.5421,6.5413,6.5633,6.5863,6.6133,6.6329,6.6504,6.6711,6.6773,6.6796,6.6781,6.6793,6.7303,6.8154,6.9008,7.0268,7.1482,4.9686,4.9858,5.0114,5.0444,5.0237,5.0168,5.072,5.0962,5.1306,0.0,5.2099,5.2349,5.276,5.2766,5.2912,5.3333,5.3221,0.0,0.0,0.0,0.0,5.2909,5.2892,5.301,5.3179,5.3179,5.3281,5.3518,0.0,0.0,5.3518,5.3518,5.3788,5.4329,5.4516,5.5209,5.6258,5.663,5.7103,5.7611,5.7832,5.79,5.79,5.79,5.79,5.79,5.79,5.79,5.79,5.79,5.79,5.79,5.79,5.79,5.79,5.79,5.79,5.79,5.79,5.79,5.79,5.79,5.79,5.79,5.79,5.79,5.7679,5.6934,5.6664,5.6122,5.4854,5.4431,0.0,0.0,0.0,0.0,0.0,0.0,5.3534,5.3634,5.3634,5.3667,5.3701,5.473,5.5665,5.6198,5.7188,5.8203,5.9201,5.9237,5.9615,6.0432,6.1371,6.2094,6.2554,6.3903,6.4668,6.4792,6.522,6.5501,6.5646,6.5874,6.6104,6.6333,6.653,6.666,6.6711,6.6773,6.6796,6.6783,6.6756,6.7534,6.8783,6.9634,7.0542,7.1332,5.041,5.072,5.1099,5.1513,5.1237,5.1099,5.1513,5.1858,5.2222,5.2559,5.295,5.3313,5.3569,5.3524,5.3615,5.3962,5.375,0.0,5.3635,0.0,0.0,5.3518,5.3518,5.3518,5.3518,5.3518,0.0,5.3518,0.0,0.0,5.3991,5.3991,5.4363,5.5108,5.5412,5.6021,5.6833,5.7137,5.7509,5.79,5.79,5.79,0.0,5.79,5.79,5.79,5.79,5.79,5.79,5.79,5.79,5.79,5.79,5.79,5.79,5.79,5.79,5.79,5.79,5.79,5.79,5.79,5.79,5.79,5.79,5.79,5.778,5.7374,5.7036,5.6562,5.5716,5.504,0.0,0.0,0.0,0.0,0.0,0.0,5.3551,5.3684,5.3783,5.3849,5.3915,5.4928,5.5766,5.6089,5.7053,5.7873,5.854,5.854,5.8943,5.9749,6.062,6.1565,6.255,6.3681,6.452,6.506,6.5397,6.5586,6.5718,6.6064,6.6299,6.64,6.6596,6.6702,6.6767,6.6789,6.6786,6.6862,6.7475,6.8177,6.9011,7.0231,7.0956,7.1291,5.1134,5.1755,5.2237,5.2341,5.2375,5.241,5.2479,5.2996,5.3379,5.3307,5.4073,5.4555,5.4328,5.4285,5.4255,5.4222,5.3974,5.3788,5.3788,5.3788,5.3788,5.3788,5.3788,5.3788,5.3788,5.3788,5.3788,0.0,0.0,0.0,5.4735,5.4735,5.5141,5.5868,5.6528,5.6867,5.7002,5.7629,5.79,5.79,5.79,5.79,5.79,5.79,5.79,5.79,5.79,5.79,5.79,5.79,5.79,5.79,5.79,5.79,5.79,5.79,5.79,5.79,5.79,5.79,5.79,5.79,5.79,5.79,5.79,5.79,5.79,5.79,5.7374,5.69,5.6833,5.5581,5.4363,0.0,0.0,0.0,0.0,0.0,0.0,0.0,5.3899,0.0,5.4223,5.4841,5.5557,5.6257,5.6861,5.7449,5.7973,5.7997,5.835,5.9106,5.9614,6.0832,6.2786,6.3334,6.4198,6.5421,6.5606,6.5724,6.5773,6.6199,6.64,6.6429,6.6621,6.6724,6.6785,6.6805,6.6778,6.6909,6.839,6.8893,6.8994,7.0683,7.128,7.1275,5.1996,5.2099,5.241,5.3065,5.3184,5.3375,5.3996,5.3701,5.3616,5.4171,5.4817,5.5168,5.4936,5.5349,5.557,5.5415,5.5328,5.5293,5.5293,5.5293,5.5293,5.5293,5.5293,5.5293,5.5293,5.5293,5.5293,0.0,0.0,0.0,0.0,5.5496,5.5902,5.663,5.6731,5.7137,5.773,5.7866,5.79,5.79,5.79,5.79,5.79,5.79,5.79,5.79,5.79,5.79,5.79,5.79,5.79,5.79,5.79,5.79,5.79,5.79,5.79,5.79,5.79,5.79,5.79,5.79,5.79,5.79,5.79,5.79,5.79,5.79,5.7798,5.7509,5.69,5.5581,5.4363,5.3619,5.3518,5.3518,5.3518,0.0,0.0,0.0,5.398,5.411,5.4415,5.544,5.6152,5.6289,5.7265,5.7904,5.7997,5.7997,5.8227,5.8683,5.9779,6.1027,6.2394,6.3532,6.452,6.5421,6.5606,6.5816,6.6056,6.6299,6.65,6.6644,6.669,6.6724,6.6785,6.6805,6.6716,6.6723,6.8316,6.8886,6.9014,7.0623,7.1224,7.1224,5.2823,5.3134,0.0,5.3892,5.4287,5.4651,5.503,5.5035,5.4973,5.4841,5.5493,5.5874,5.5587,5.5825,5.596,5.5856,5.5751,5.5699,5.5699,5.5699,5.5699,5.5699,5.5699,5.5699,5.5699,5.5699,5.5699,5.5699,5.5699,0.0,0.0,0.0,5.6664,5.7374,5.7374,5.7577,5.79,5.79,5.79,5.79,5.79,5.79,5.79,5.79,5.79,5.79,5.79,5.79,5.79,5.79,5.79,5.79,5.79,5.79,5.79,5.79,5.79,5.79,5.79,5.79,5.79,5.79,5.79,5.79,5.79,5.79,5.79,5.79,5.79,5.7679,5.6934,5.5919,5.4938,5.4194,5.3754,5.3518,5.3518,5.3518,5.3584,0.0,0.0,0.0,5.4753,5.5716,5.6303,5.6303,5.7351,5.7997,5.7997,5.7997,5.8186,5.8586,5.9391,6.0629,6.2261,6.3123,6.4195,6.5538,6.5779,6.6023,6.6269,6.6479,6.6618,6.6712,6.6752,6.6773,6.6792,6.6713,6.6613,6.6655,6.8222,6.8811,6.8955,7.06,7.1166,7.1106,5.3632,5.4253,5.472,5.472,5.534,5.5858,5.5858,5.6364,5.6404,5.55,5.6132,5.6508,5.625,5.6334,5.6401,5.6401,5.6261,5.6172,5.6172,5.6172,5.6172,5.6172,5.6172,5.6172,5.6172,5.6172,5.6172,5.6172,5.6172,5.6393,5.6799,0.0,0.0,5.79,5.79,5.79,5.79,5.79,5.79,5.79,5.79,5.79,5.79,5.79,5.79,5.79,5.79,5.79,5.79,5.79,5.79,5.79,5.79,5.79,5.79,5.79,5.79,5.79,5.79,5.79,5.79,5.79,5.79,5.79,5.79,5.79,5.79,5.79,5.79,5.7679,5.6934,5.6325,5.5631,5.4753,5.4093,5.3687,5.3518,5.3518,5.3551,0.0,0.0,0.0,5.5039,5.5809,5.6344,5.6465,5.7413,5.7997,5.7997,5.7997,5.8231,5.872,5.9046,6.0242,6.2406,6.2727,6.3845,6.5705,6.5959,6.6215,6.6396,6.6618,6.6712,6.6683,6.6765,6.68,6.6757,6.6616,6.653,6.6591,6.7957,6.8573,6.8878,7.0361,7.0945,7.0998,5.4391,5.4996,5.5513,5.5513,5.6184,5.6702,5.6702,5.7155,5.7243,5.6472,5.6747,5.7016,5.6981,5.745,5.7715,5.7715,5.7697,5.7679,5.7679,5.7679,5.7679,5.7679,5.7679,5.7679,5.7679,5.7679,5.7679,5.7679,5.7679,5.7374,5.6799,0.0,5.7832,5.79,5.79,5.79,5.79,5.79,5.79,5.79,5.79,5.79,5.79,5.79,5.79,5.79,5.79,5.79,5.79,5.79,5.79,5.79,5.79,5.79,5.79,5.79,5.79,5.79,5.79,5.79,5.79,5.79,5.79,5.79,5.79,5.79,5.79,5.79,5.79,5.7679,5.6934,5.6731,5.6224,5.4837,5.4532,5.4262,5.3585,5.3518,5.3551,5.3684,0.0,0.0,5.5039,5.5809,5.6506,5.7002,5.7643,5.7997,5.7997,5.7997,5.8337,5.9131,5.9187,6.0365,6.284,6.287,6.3845,6.5705,6.5959,6.6215,6.6396,6.6618,6.6683,6.6709,6.6773,6.6764,6.6717,6.6555,6.6462,6.6471,6.7247,6.8,6.8789,6.9642,7.0395,7.0992,5.5874,5.6115,5.6322,5.6322,5.6844,5.7293,5.7293,5.7655,5.7857,5.7549,5.7665,5.7727,5.7568,5.7767,5.79,5.79,5.79,5.79,5.79,5.79,5.79,5.79,5.79,5.79,5.79,5.79,5.79,5.79,5.79,5.7764,5.7476,5.7764,5.79,5.79,5.79,5.79,5.79,5.79,5.79,5.79,5.79,5.79,5.79,5.79,5.79,5.79,5.79,5.79,5.79,5.79,5.79,5.79,5.79,5.79,5.79,5.79,5.79,5.79,5.79,5.79,5.79,5.79,5.79,5.79,5.79,5.79,5.79,5.79,5.79,5.7832,5.7509,5.7103,5.6461,5.5446,5.4871,5.4329,5.3619,5.3518,5.3551,5.3684,0.0,5.4425,5.5516,5.6033,5.6678,5.7558,5.7844,5.7997,5.7997,5.8242,5.8607,5.9187,5.9441,6.0638,6.2877,6.2884,6.3941,6.5931,6.6067,6.6278,6.6561,6.6649,6.6734,6.6773,6.6756,6.6718,6.6644,6.6551,6.6433,6.6403,6.7103,6.7889,6.8737,6.9495,7.0279,7.0939,5.6805,5.6928,5.7033,5.7033,5.75,5.7861,5.7861,5.8044,5.8189,5.8189,5.8169,5.8045,5.7918,5.79,5.79,5.79,5.79,5.79,5.79,5.79,5.79,5.79,5.79,5.79,5.79,5.79,5.79,5.79,5.79,5.7798,5.7595,5.7595,5.7679,5.79,5.79,5.79,5.79,5.79,5.79,5.79,5.79,5.79,5.79,5.79,5.79,5.79,5.79,5.79,5.79,5.79,5.79,5.79,5.79,5.79,5.79,5.79,5.79,5.79,5.79,5.79,5.79,5.79,5.79,5.79,5.79,5.79,5.79,5.79,5.79,5.79,5.79,5.7476,5.6867,5.6139,5.5412,5.4668,5.3923,5.3653,5.3551,5.3684,5.3882,5.4535,5.5858,5.6172,5.677,5.7927,5.7997,5.7997,5.7997,5.8391,5.8791,5.9197,5.9588,6.0813,6.2884,6.2978,6.4039,6.6108,6.6167,6.6365,6.6709,6.6727,6.6757,6.68,6.6715,6.6625,6.656,6.6477,6.6363,6.6288,6.6808,6.7657,6.8633,6.9188,7.0015,7.0898,5.6805,5.7241,5.7587,5.7587,5.81,5.8508,5.8508,5.8314,5.8189,5.8189,5.8009,5.79,5.79,5.79,5.79,5.79,5.79,5.79,5.79,5.79,5.79,5.79,5.79,5.79,5.79,5.79,5.79,5.79,5.79,5.7509,5.6799,5.6799,5.7205,5.79,5.79,5.79,5.79,5.79,5.79,5.79,5.79,5.79,5.79,5.79,5.79,5.79,5.79,5.79,5.79,5.79,5.79,5.79,5.79,5.79,5.79,5.79,5.79,5.79,5.79,5.79,5.79,5.79,5.79,5.79,5.79,5.79,5.79,5.79,5.79,5.79,5.79,5.79,5.7663,5.69,5.619,5.5428,5.4668,5.3957,5.3551,5.3684,5.3882,5.4535,5.5858,5.6172,5.677,5.7927,5.7997,5.7997,5.7997,5.8391,5.8791,5.9197,5.9588,6.0813,6.2884,6.3111,6.4182,6.6108,6.6303,6.6506,6.6712,6.6763,6.6794,6.6781,6.6669,6.6569,6.6494,6.6365,6.6205,6.6096,6.603,6.7046,6.8488,6.8456,6.9468,7.0898,5.8306,5.8444,5.8531,5.8531,5.853,5.8508,5.8508,5.8189,5.7991,5.7991,5.7936,5.79,5.79,5.79,5.79,5.79,5.79,5.79,5.79,5.79,5.79,5.79,5.79,5.79,5.79,5.79,5.79,5.79,5.79,5.7798,5.7543,5.7543,5.7697,5.79,5.79,5.79,5.79,5.79,5.79,5.79,5.79,5.79,5.79,5.79,5.79,5.79,5.79,5.79,5.79,5.79,5.79,5.79,5.79,5.79,5.79,5.79,5.79,5.79,5.79,5.79,5.79,5.79,5.79,5.79,5.79,5.79,5.79,5.79,5.79,5.79,5.79,5.79,5.7645,5.6934,5.6172,5.5428,5.4702,5.3957,5.3601,5.3866,5.4333,5.5024,5.6089,5.6576,5.7154,5.795,5.7997,5.7997,5.7997,5.8628,5.9084,5.9206,5.9858,6.1079,6.2884,6.3111,6.4187,6.6108,6.6308,6.6523,6.67,6.6769,6.6794,6.6781,6.6669,6.6567,6.6494,6.6361,6.6205,6.6091,6.603,6.7008,6.8488,6.8417,6.9468,7.0898,5.8995,5.8944,5.8909,5.8823,5.8596,5.8366,5.8294,5.8045,5.79,5.79,5.79,5.79,5.79,5.79,5.79,5.79,5.79,5.79,5.79,5.79,5.79,5.79,5.79,5.79,5.79,5.79,5.79,5.79,5.79,5.79,5.79,5.79,5.79,5.79,5.79,5.79,5.79,5.79,5.79,5.79,5.79,5.79,5.79,5.79,5.79,5.79,5.79,5.79,5.79,5.79,5.79,5.79,5.79,5.79,5.79,5.79,5.79,5.79,5.79,5.79,5.79,5.79,5.79,5.79,5.79,5.79,5.79,5.79,5.79,5.79,5.79,5.79,5.7764,5.7273,5.6341,5.553,5.5074,5.4178,5.3685,5.3964,5.4567,5.5337,5.6221,5.6796,5.7327,5.7962,5.7997,5.7997,5.7997,5.876,5.9206,5.9206,5.9969,6.1218,6.2884,6.3174,6.4238,6.6108,6.6373,6.6582,6.6724,6.6777,6.6801,6.6798,6.6624,6.6557,6.6482,6.6316,6.6155,6.6058,6.604,6.6823,6.7994,6.8296,6.9276,7.0475,5.8978,5.8892,5.8753,5.8543,5.8348,5.8151,5.7936,5.79,5.79,5.79,5.79,5.79,5.79,5.79,5.79,5.79,5.79,5.79,5.79,5.79,5.79,5.79,5.79,5.79,5.79,5.79,5.79,5.79,5.79,5.79,5.79,5.79,5.79,5.79,5.79,5.79,5.79,5.79,5.79,5.79,5.79,5.79,5.79,5.79,5.79,5.79,5.79,5.79,5.79,5.79,5.79,5.79,5.79,5.79,5.79,5.79,5.79,5.79,5.79,5.79,5.79,5.79,5.79,5.79,5.79,5.79,5.79,5.79,5.79,5.79,5.79,5.79,5.79,5.79,5.6697,5.5767,5.5699,5.4601,5.3817,5.398,5.4707,5.5449,5.6235,5.6835,5.7413,5.7962,5.7997,5.802,5.8054,5.8781,5.9206,5.9206,5.9969,6.1218,6.2884,6.3301,6.4392,6.6158,6.6523,6.6739,6.6783,6.6785,6.6814,6.6777,6.6573,6.6496,6.6495,6.6199,6.6063,6.6001,6.5988,6.646,6.7212,6.8084,6.893,6.9821,5.8875,5.8806,5.8753,5.8543,5.8348,5.8171,5.8151,5.7991,5.79,5.79,5.79,5.79,5.79,5.79,5.79,5.79,5.79,5.79,5.79,5.79,5.79,5.79,5.79,5.79,5.79,5.79,5.79,5.79,5.79,5.79,5.79,5.79,5.79,5.79,5.79,5.79,5.79,5.79,5.79,5.79,5.79,5.79,5.79,5.79,5.79,5.79,5.79,5.79,5.79,5.79,5.79,5.79,5.79,5.79,5.79,5.79,5.79,5.79,5.79,5.79,5.79,5.79,5.79,5.79,5.79,5.79,5.79,5.79,5.79,5.79,5.79,5.79,5.79,5.79,5.7137,5.6341,5.5767,5.5026,5.4396,5.4032,5.5049,5.5936,5.6276,5.7215,5.7832,5.7997,5.7997,5.813,5.8455,5.8939,5.9206,5.9206,5.9969,6.1218,6.2884,6.3312,6.4537,6.6546,6.6668,6.6757,6.6783,6.68,6.6786,6.6777,6.6573,6.6496,6.6495,6.6199,6.6063,6.6001,6.5988,6.646,6.7212,6.8084,6.893,6.9821,5.8684,5.8648,5.8596,5.8401,5.8277,5.8153,5.8063,5.7954,5.79,5.79,5.79,5.79,5.79,5.79,5.79,5.79,5.79,5.79,5.79,5.79,5.79,5.79,5.79,5.79,5.79,5.79,5.79,5.79,5.79,5.79,5.79,5.79,5.79,5.79,5.79,5.79,5.79,5.79,5.79,5.79,5.79,5.79,5.79,5.79,5.79,5.79,5.79,5.79,5.79,5.79,5.79,5.79,5.79,5.79,5.79,5.79,5.79,5.79,5.79,5.79,5.79,5.79,5.79,5.79,5.79,5.79,5.79,5.79,5.79,5.79,5.79,5.79,5.79,5.79,5.7345,5.6669,5.5818,5.5332,5.4899,5.445,5.542,5.6267,5.6639,5.7474,5.7997,5.7997,5.7997,5.8175,5.8576,5.8997,5.9289,5.9467,6.0084,6.1218,6.2884,6.4072,6.5389,6.6709,6.6697,6.6722,6.6785,6.6813,6.6838,6.6823,6.6604,6.6514,6.646,6.6196,6.6024,6.6005,6.5984,6.6204,6.6705,6.7897,6.8652,6.9229,5.849,5.8455,5.8401,5.8205,5.8135,5.8081,5.7918,5.79,5.79,5.79,5.79,5.79,5.79,5.79,5.79,5.79,5.79,5.79,5.79,5.79,5.79,5.79,5.8009,5.8029,5.8029,5.8029,5.8009,5.79,5.79,5.79,5.79,5.79,5.79,5.79,5.79,5.79,5.79,5.79,5.79,5.79,5.79,5.79,5.79,5.79,5.79,5.79,5.79,5.79,5.79,5.79,5.79,5.79,5.79,5.79,5.79,5.79,5.79,5.79,5.79,5.79,5.79,5.79,5.79,5.79,5.79,5.79,5.79,5.79,5.79,5.79,5.79,5.79,5.79,5.79,5.7518,5.6893,5.5904,5.5621,5.5363,5.4981,5.5759,5.6519,5.7053,5.7667,5.7997,5.7997,5.7997,5.8209,5.8669,5.9026,5.9415,5.9882,6.0355,6.1413,6.318,6.5103,6.6308,6.6717,6.6704,6.6728,6.6789,6.6786,6.6849,6.6907,6.6631,6.6488,6.6454,6.6143,6.6011,6.5996,6.5929,6.5891,6.6071,6.7581,6.8161,6.85,5.8294,5.8259,5.8171,5.7972,5.7936,5.7936,5.79,5.79,5.79,5.79,5.79,5.79,5.79,5.79,5.79,5.79,5.79,5.79,5.79,5.79,5.79,5.79,5.844,5.8737,5.8737,5.8737,5.8476,5.79,5.79,5.79,5.79,5.79,5.79,5.79,5.79,5.79,5.79,5.79,5.79,5.79,5.79,5.79,5.79,5.79,5.79,5.79,5.79,5.79,5.79,5.79,5.79,5.79,5.79,5.79,5.79,5.79,5.79,5.79,5.79,5.79,5.79,5.79,5.79,5.79,5.79,5.79,5.79,5.79,5.79,5.79,5.79,5.79,5.79,5.79,5.7816,5.7329,5.613,5.6013,5.585,5.5168,5.578,5.6519,5.7053,5.7667,5.7997,5.7997,5.7997,5.8315,5.9074,5.9178,5.9537,6.0285,6.1036,6.242,6.4469,6.5575,6.6286,6.6704,6.6767,6.6789,6.681,6.6799,6.6855,6.6907,6.6631,6.6488,6.6454,6.6143,6.6011,6.5996,6.5929,6.5865,6.5922,6.6876,6.7641,6.8359,5.8063,5.8027,5.7991,5.7918,5.79,5.79,5.79,5.79,5.79,5.79,5.79,5.79,5.79,5.79,5.79,5.79,5.79,5.79,5.79,5.8244,5.844,5.844,5.9113,5.9331,5.8926,5.8909,5.8546,5.79,5.79,5.79,5.79,5.79,5.79,5.79,5.79,5.79,5.79,5.79,5.79,5.79,5.79,5.79,5.79,5.79,5.79,5.79,5.79,5.79,5.79,5.79,5.79,5.79,5.79,5.79,5.79,5.79,5.79,5.79,5.79,5.79,5.79,5.79,5.79,5.79,5.79,5.79,5.79,5.79,5.79,5.79,5.79,5.79,5.79,5.79,5.8063,5.7679,5.6199,5.632,5.628,5.5654,5.6005,5.6639,5.7498,5.7832,5.7997,5.7997,5.8209,5.8566,5.9178,5.9415,5.9801,6.0363,6.1759,6.3223,6.4764,6.5759,6.6418,6.6711,6.6773,6.6794,6.6813,6.6848,6.686,6.6907,6.6613,6.6491,6.6426,6.6103,6.5964,6.5947,6.591,6.5859,6.5902,6.6674,6.741,6.8226,5.7918,5.79,5.79,5.79,5.79,5.79,5.79,5.79,5.7954,5.8101,5.8009,5.7954,5.8101,5.8119,5.8119,5.8119,5.8298,5.8315,5.8137,5.8772,5.9028,5.8668,5.9529,5.9741,5.918,5.918,5.8737,5.79,5.79,5.79,5.79,5.79,5.79,5.79,5.79,5.79,5.79,5.79,5.79,5.79,5.79,5.79,5.79,5.79,5.79,5.79,5.79,5.79,5.79,5.79,5.79,5.79,5.79,5.79,5.79,5.79,5.79,5.79,5.79,5.79,5.79,5.79,5.79,5.79,5.79,5.79,5.79,5.79,5.79,5.79,5.79,5.79,5.79,5.79,5.8135,5.7871,5.6507,5.6625,5.6748,5.6361,5.6402,5.6887,5.7916,5.7997,5.7997,5.7997,5.8369,5.8781,5.9187,5.958,6.0159,6.0974,6.242,6.3796,6.5073,6.5971,6.6497,6.6718,6.6781,6.6803,6.6784,6.6855,6.6904,6.6909,6.6633,6.6459,6.6364,6.6111,6.5954,6.5878,6.5878,6.5826,6.5816,6.6368,6.7177,6.8059,5.79,5.79,5.79,5.79,5.79,5.79,5.79,5.79,5.8119,5.8737,5.8298,5.8137,5.8755,5.8841,5.8841,5.8841,5.9463,5.9562,5.8875,5.9513,5.9331,5.8045,5.9264,5.9966,5.9918,5.9918,5.9247,5.79,5.79,5.79,5.79,5.79,5.79,5.79,5.79,5.79,5.79,5.79,5.79,5.79,5.79,5.79,5.79,5.79,5.79,5.79,5.79,5.79,5.79,5.79,5.79,5.79,5.79,5.79,5.79,5.79,5.79,5.79,5.79,5.79,5.79,5.79,5.79,5.79,5.79,5.79,5.79,5.79,5.79,5.79,5.79,5.79,5.79,5.79,5.7918,5.7773,5.7276,5.7132,5.7133,5.7285,5.7149,5.7278,5.795,5.7997,5.7997,5.7997,5.8369,5.8781,5.9187,5.958,6.0691,6.2648,6.3028,6.4105,6.5992,6.6267,6.6534,6.6781,6.6801,6.6786,6.681,6.686,6.6907,6.6873,6.6627,6.6459,6.6364,6.6111,6.5923,6.58,6.58,6.5681,6.5516,6.5585,6.6567,6.7913,5.8528,5.8191,5.79,5.79,5.79,5.8045,5.8458,5.8528,5.8772,5.9496,5.896,5.8789,5.9513,5.9162,5.8909,5.8909,5.9578,5.9693,5.896,5.9595,5.995,5.9819,5.9934,5.9998,5.9998,5.9562,5.8841,5.79,5.79,5.79,5.79,5.79,5.79,5.79,5.79,5.79,5.79,5.79,5.79,5.79,5.79,5.79,5.79,5.79,5.79,5.79,5.79,5.79,5.79,5.79,5.79,5.79,5.79,5.79,5.79,5.79,5.79,5.79,5.79,5.79,5.79,5.79,5.79,5.79,5.79,5.79,5.79,5.79,5.79,5.79,5.79,5.79,5.79,5.79,5.7991,5.7881,5.7379,5.7299,5.7307,5.737,5.7211,5.7351,5.795,5.7997,5.8085,5.8358,5.875,5.9159,5.9546,6.0439,6.1831,6.3821,6.4089,6.4811,6.608,6.6422,6.6654,6.6801,6.6808,6.6788,6.6812,6.686,6.6909,6.6875,6.6566,6.6426,6.6369,6.6052,6.5885,6.5793,6.5793,6.5667,6.5501,6.5501,6.6521,6.7905,5.9264,5.8668,5.8298,5.8511,5.8386,5.844,5.9146,5.9264,5.9478,6.0219,5.9709,5.9511,6.0235,5.9658,5.9264,5.9264,5.9918,5.9918,5.8943,5.918,5.9838,6.0956,6.0141,5.9774,5.9982,5.9297,5.8546,5.79,5.79,5.79,5.79,5.79,5.79,5.79,5.79,5.79,5.79,5.79,5.79,5.79,5.79,5.79,5.79,5.79,5.79,5.79,5.79,5.79,5.79,5.79,5.79,5.79,5.79,5.79,5.79,5.79,5.79,5.79,5.79,5.79,5.79,5.79,5.79,5.79,5.79,5.79,5.79,5.79,5.79,5.79,5.79,5.79,5.7918,5.7972,5.8099,5.8179,5.8067,5.8068,5.8053,5.8071,5.7882,5.7826,5.7962,5.7997,5.8164,5.8566,5.8988,5.9545,6.0325,6.14,6.2779,6.4434,6.4946,6.5544,6.6204,6.6569,6.6746,6.6813,6.6783,6.6799,6.6817,6.6864,6.6911,6.6874,6.6548,6.6406,6.6383,6.6058,6.5846,6.5753,6.5753,6.5632,6.5457,6.5457,6.6499,6.7905,5.9998,5.943,5.9129,5.987,5.9414,5.918,5.9886,5.9998,6.0235,6.0927,6.0421,6.0251,6.0942,6.039,5.9998,5.9998,6.0605,6.0406,5.8977,5.8298,5.8806,6.0876,5.9641,5.9247,5.9966,5.9281,5.8581,5.79,5.79,5.79,5.79,5.79,5.79,5.79,5.79,5.79,5.79,5.79,5.79,5.79,5.79,5.79,5.79,5.79,5.79,5.79,5.79,5.79,5.79,5.79,5.79,5.79,5.79,5.79,5.79,5.79,5.79,5.79,5.79,5.79,5.79,5.79,5.79,5.79,5.79,5.79,5.79,5.79,5.79,5.79,5.79,5.79,5.7954,5.8153,5.8189,5.8545,5.9546,5.9596,5.9516,5.9509,5.931,5.8866,5.807,5.8008,5.8175,5.8566,5.8997,5.9932,6.1518,6.2433,6.342,6.4461,6.5546,6.6212,6.6516,6.6695,6.6813,6.6813,6.6801,6.6856,6.6903,6.691,6.6914,6.687,6.6541,6.6406,6.6383,6.6058,6.5775,6.5601,6.5601,6.5509,6.5413,6.5413,6.6445,6.7905,6.0681,6.0156,5.9741,5.995,5.9822,5.9918,6.059,6.0681,6.0942,6.1622,6.1104,6.0792,6.0986,6.039,5.9998,5.9998,6.0172,5.9918,5.8943,5.872,5.8892,5.9494,5.8651,5.8528,5.9196,5.8563,5.8083,5.79,5.79,5.79,5.79,5.79,5.79,5.79,5.79,5.79,5.79,5.79,5.79,5.79,5.79,5.79,5.79,5.79,5.79,5.79,5.79,5.79,5.79,5.79,5.79,5.79,5.79,5.79,5.79,5.79,5.79,5.79,5.79,5.79,5.79,5.79,5.79,5.79,5.79,5.79,5.79,5.79,5.79,5.79,5.79,5.79,5.7954,5.8153,5.8546,5.9011,5.9611,5.9956,5.996,5.9549,5.931,5.8866,5.807,5.8275,5.8576,5.9007,6.0177,6.1385,6.2505,6.3482,6.455,6.5645,6.6136,6.6501,6.6699,6.6762,6.6817,6.679,6.6806,6.6856,6.6903,6.691,6.6833,6.6661,6.6463,6.6333,6.6162,6.5973,6.5775,6.5601,6.5601,6.5509,6.5413,6.5413,6.6445,6.7905,6.1401,6.0867,6.0468,6.0747,6.058,6.0626,6.13,6.1401,6.1529,6.1937,6.165,6.1315,6.1031,6.039,5.9886,5.9595,5.9314,5.9079,5.8926,5.8651,5.8511,5.8511,5.8101,5.8226,5.8909,5.8244,5.79,5.79,5.79,5.79,5.79,5.79,5.79,5.79,5.79,5.79,5.79,5.79,5.79,5.79,5.79,5.79,5.79,5.79,5.79,5.79,5.79,5.79,5.79,5.79,5.79,5.79,5.79,5.79,5.79,5.79,5.79,5.79,5.79,5.79,5.79,5.79,5.79,5.79,5.79,5.79,5.79,5.79,5.79,5.79,5.79,5.79,5.7972,5.8277,5.8806,5.9427,6.009,6.0668,6.0819,6.0373,5.992,5.9343,5.8535,5.8543,5.8962,5.9858,6.0958,6.2163,6.3458,6.4129,6.5004,6.6166,6.6396,6.6615,6.6783,6.6788,6.6795,6.6802,6.6813,6.6861,6.6907,6.6912,6.6788,6.6582,6.6444,6.6295,6.6088,6.597,6.5775,6.5601,6.5601,6.5509,6.5413,6.5413,6.6445,6.7905,6.1992,6.1501,6.13,6.1895,6.1508,6.1286,6.1909,6.1992,6.1992,6.1992,6.1992,6.172,6.1001,6.0359,5.9709,5.8943,5.8335,5.8226,5.8772,5.8244,5.79,5.79,5.79,5.8191,5.8806,5.8226,5.79,5.79,5.79,5.79,5.79,5.79,5.79,5.79,5.79,5.79,5.79,5.79,5.79,5.79,5.79,5.79,5.79,5.79,5.79,5.79,5.79,5.79,5.79,5.79,5.79,5.79,5.79,5.79,5.79,5.79,5.79,5.79,5.79,5.79,5.79,5.79,5.79,5.79,5.79,5.79,5.79,5.79,5.79,5.79,5.7918,5.7918,5.8081,5.8509,5.913,5.9848,6.0835,6.157,6.1875,6.1618,6.0933,6.0174,5.9328,5.8974,5.9467,6.106,6.1583,6.256,6.4235,6.4519,6.5134,6.6198,6.6432,6.6594,6.6798,6.6807,6.6812,6.6812,6.6861,6.6907,6.6911,6.6875,6.6779,6.6572,6.6423,6.6271,6.6062,6.5958,6.5775,6.5601,6.5601,6.5509,6.5413,6.5413,6.6445,6.7905,6.1992,6.1895,6.184,6.1964,6.1882,6.184,6.1964,6.1992,6.1992,6.1992,6.1992,6.1551,6.0344,6.0078,5.9709,5.8943,5.8772,5.8528,5.8137,5.7991,5.79,5.79,5.79,5.7972,5.8101,5.7972,5.79,5.79,5.79,5.79,5.79,5.79,5.79,5.79,5.79,5.79,5.79,5.79,5.79,5.79,5.79,5.79,5.79,5.79,5.79,5.79,5.79,5.79,5.79,5.79,5.79,5.79,5.79,5.79,5.79,5.79,5.79,5.79,5.79,5.79,5.79,5.79,5.79,5.79,5.79,5.79,5.79,5.79,5.79,5.7936,5.8133,5.8117,5.8438,5.9299,5.9979,6.0721,6.157,6.2205,6.2337,6.1692,6.1447,6.0905,5.9793,6.0143,6.1056,6.2376,6.3199,6.3904,6.4514,6.5294,6.6006,6.6501,6.6652,6.6747,6.6808,6.6811,6.6812,6.6812,6.6866,6.691,6.6873,6.6743,6.6594,6.6421,6.6244,6.6079,6.594,6.5923,6.5775,6.5601,6.5601,6.5509,6.5413,6.5413,6.6445,6.8096,6.1992,6.1992,6.1992,6.1992,6.1992,6.1992,6.1992,6.1992,6.1992,6.1992,6.1992,6.1622,6.0575,6.0468,6.0062,5.8977,5.8599,5.8264,5.7918,5.79,5.79,5.79,5.79,5.79,5.79,5.79,5.79,5.79,5.79,5.79,5.79,5.79,5.79,5.79,5.79,5.79,5.79,5.79,5.79,5.79,5.79,5.79,5.79,5.79,5.79,5.79,5.79,5.79,5.79,5.79,5.79,5.79,5.79,5.79,5.79,5.79,5.79,5.79,5.79,5.79,5.79,5.79,5.79,5.79,5.79,5.79,5.79,5.79,5.79,5.7954,5.8153,5.8189,5.851,5.9529,6.0262,6.0974,6.1801,6.2412,6.2646,6.2218,6.2032,6.1693,6.1053,6.1376,6.2135,6.3404,6.396,6.4509,6.5191,6.5795,6.6287,6.6587,6.6723,6.6801,6.6812,6.6817,6.686,6.6863,6.687,6.6875,6.6791,6.6641,6.6498,6.6314,6.6178,6.6035,6.5904,6.5904,6.5775,6.5601,6.5601,6.5509,6.5413,6.5413,6.6445,6.8134,6.1992,6.1992,6.1992,6.1992,6.1992,6.1992,6.1992,6.1992,6.1992,6.1992,6.1992,6.1734,6.1075,6.0772,6.0121,5.8858,5.8226,5.79,5.79,5.79,5.79,5.79,5.79,5.79,5.79,5.79,5.79,5.79,5.79,5.79,5.79,5.79,5.79,5.79,5.79,5.79,5.79,5.79,5.79,5.79,5.79,5.79,5.79,5.79,5.79,5.79,5.79,5.79,5.79,5.79,5.79,5.79,5.79,5.79,5.79,5.79,5.79,5.79,5.79,5.79,5.79,5.79,5.79,5.79,5.79,5.79,5.79,5.79,5.7918,5.8009,5.8189,5.8367,5.8754,5.9757,6.0463,6.1164,6.1951,6.2477,6.283,6.2917,6.2684,6.2578,6.2694,6.2661,6.3128,6.4313,6.4513,6.4975,6.5887,6.6144,6.6386,6.6615,6.6732,6.6805,6.6814,6.6862,6.687,6.6875,6.6875,6.6792,6.6674,6.6594,6.6382,6.6169,6.608,6.5986,6.5904,6.5904,6.5775,6.5601,6.5601,6.5509,6.5413,6.5719,6.672,6.8134,6.1992,6.1992,6.1992,6.1992,6.1992,6.1992,6.1992,6.1992,6.1992,6.1992,6.1992,6.1734,6.1081,5.9899,5.8875,5.8083,5.7954,5.79,5.79,5.79,5.79,5.79,5.79,5.79,5.79,5.79,5.79,5.79,5.79,5.79,5.79,5.79,5.79,5.79,5.79,5.79,5.79,5.79,5.79,5.79,5.79,5.79,5.79,5.79,5.79,5.79,5.79,5.79,5.79,5.79,5.79,5.79,5.79,5.79,5.79,5.79,5.79,5.79,5.79,5.79,5.79,5.79,5.79,5.79,5.79,5.79,5.79,5.79,5.8027,5.8241,5.8419,5.9046,5.979,6.058,6.1279,6.1965,6.2603,6.2743,6.2966,6.3342,6.3353,6.3637,6.4396,6.4157,6.4336,6.5243,6.5499,6.576,6.6157,6.6334,6.6559,6.6781,6.6801,6.6815,6.6902,6.6908,6.6836,6.6731,6.6731,6.6682,6.6616,6.6371,6.6217,6.6109,6.5974,6.5903,6.5904,6.5904,6.5775,6.5601,6.5601,6.5509,6.5566,6.7018,6.7714,6.8134,6.1992,6.1992,6.1992,6.1992,6.1992,6.1992,6.1992,6.1992,6.1992,6.1992,6.1992,6.1734,6.106,5.9739,5.8789,5.8493,5.8101,5.79,5.79,5.79,5.79,5.79,5.79,5.79,5.79,5.79,5.79,5.79,5.79,5.79,5.79,5.79,5.79,5.79,5.79,5.79,5.79,5.79,5.79,5.79,5.79,5.79,5.79,5.79,5.79,5.79,5.79,5.79,5.79,5.79,5.79,5.79,5.79,5.79,5.79,5.79,5.79,5.79,5.79,5.79,5.79,5.79,5.7972,5.8027,5.7918,5.8063,5.8189,5.8081,5.8117,5.8403,5.9063,5.9465,6.0109,6.125,6.1696,6.2099,6.2717,6.2793,6.3062,6.3761,6.4049,6.4482,6.5063,6.4993,6.5082,6.5456,6.5762,6.5995,6.6204,6.6423,6.6635,6.6803,6.6809,6.6819,6.6908,6.691,6.6835,6.6717,6.6642,6.658,6.6444,6.6275,6.6138,6.6036,6.594,6.5904,6.5904,6.5904,6.5775,6.5601,6.5601,6.5815,6.6254,6.7439,6.8211,6.8814]}]]